<?xml version='1.0' encoding='UTF-8'?><gpx version="1.1" creator="JPX - https://github.com/jenetics/jpx" xmlns="http://www.topografix.com/GPX/1/1"><trk><trkseg><trkpt lat="44.6883343" lon="10.6359261"><ele>66.0</ele><time>2026-04-22T16:50:55.019Z</time></trkpt><trkpt lat="44.6883231" lon="10.6358355"><ele>66.0</ele><time>2026-04-22T16:51:10.018Z</time></trkpt><trkpt lat="44.6883704" lon="10.6357401"><ele>66.0</ele><time>2026-04-22T16:51:12.019Z</time></trkpt><trkpt lat="44.688411" lon="10.6356277"><ele>66.0</ele><time>2026-04-22T16:51:14.019Z</time></trkpt><trkpt lat="44.6884493" lon="10.6354965"><ele>66.0</ele><time>2026-04-22T16:51:16.018Z</time></trkpt><trkpt lat="44.6884967" lon="10.6353683"><ele>66.0</ele><time>2026-04-22T16:51:18.019Z</time></trkpt><trkpt lat="44.6885362" lon="10.6352699"><ele>65.66666666666667</ele><time>2026-04-22T16:51:20.019Z</time></trkpt><trkpt lat="44.6884938" lon="10.6351935"><ele>65.33333333333333</ele><time>2026-04-22T16:51:26.018Z</time></trkpt><trkpt lat="44.6884279" lon="10.6351432"><ele>65.0</ele><time>2026-04-22T16:51:28.018Z</time></trkpt><trkpt lat="44.6883547" lon="10.6350935"><ele>64.66666666666666</ele><time>2026-04-22T16:51:30.019Z</time></trkpt><trkpt lat="44.6882789" lon="10.635057"><ele>64.33333333333333</ele><time>2026-04-22T16:51:32.019Z</time></trkpt><trkpt lat="44.6882001" lon="10.6350127"><ele>64.0</ele><time>2026-04-22T16:51:34.018Z</time></trkpt><trkpt lat="44.6881089" lon="10.6349603"><ele>63.99999999999999</ele><time>2026-04-22T16:51:36.019Z</time></trkpt><trkpt lat="44.6880642" lon="10.6348859"><ele>64.0</ele><time>2026-04-22T16:51:38.018Z</time></trkpt><trkpt lat="44.6881281" lon="10.6348193"><ele>64.0</ele><time>2026-04-22T16:51:40.019Z</time></trkpt><trkpt lat="44.6882167" lon="10.6347488"><ele>64.0</ele><time>2026-04-22T16:51:42.019Z</time></trkpt><trkpt lat="44.6882962" lon="10.6346799"><ele>63.99999999999999</ele><time>2026-04-22T16:51:44.018Z</time></trkpt><trkpt lat="44.6883697" lon="10.634611"><ele>64.0</ele><time>2026-04-22T16:51:46.019Z</time></trkpt><trkpt lat="44.6884355" lon="10.6345468"><ele>64.0</ele><time>2026-04-22T16:51:48.018Z</time></trkpt><trkpt lat="44.6885169" lon="10.6344578"><ele>64.0</ele><time>2026-04-22T16:51:50.019Z</time></trkpt><trkpt lat="44.6885965" lon="10.6343763"><ele>64.0</ele><time>2026-04-22T16:51:52.018Z</time></trkpt><trkpt lat="44.6886798" lon="10.6343155"><ele>64.0</ele><time>2026-04-22T16:51:54.019Z</time></trkpt><trkpt lat="44.6887679" lon="10.6342768"><ele>64.0</ele><time>2026-04-22T16:51:56.018Z</time></trkpt><trkpt lat="44.688864" lon="10.6342451"><ele>63.666666666666664</ele><time>2026-04-22T16:51:58.019Z</time></trkpt><trkpt lat="44.6889595" lon="10.6341995"><ele>63.33333333333333</ele><time>2026-04-22T16:52:00.018Z</time></trkpt><trkpt lat="44.6890529" lon="10.634159"><ele>63.0</ele><time>2026-04-22T16:52:02.019Z</time></trkpt><trkpt lat="44.6891308" lon="10.634109"><ele>62.66666666666667</ele><time>2026-04-22T16:52:04.018Z</time></trkpt><trkpt lat="44.6892062" lon="10.6340758"><ele>62.333333333333336</ele><time>2026-04-22T16:52:06.019Z</time></trkpt><trkpt lat="44.6892198" lon="10.6339807"><ele>62.0</ele><time>2026-04-22T16:52:18.018Z</time></trkpt><trkpt lat="44.689184" lon="10.633901"><ele>62.00000000000001</ele><time>2026-04-22T16:52:21.019Z</time></trkpt><trkpt lat="44.6891174" lon="10.6338214"><ele>62.0</ele><time>2026-04-22T16:52:24.019Z</time></trkpt><trkpt lat="44.6890665" lon="10.6337493"><ele>62.0</ele><time>2026-04-22T16:52:26.019Z</time></trkpt><trkpt lat="44.6890179" lon="10.6336848"><ele>62.0</ele><time>2026-04-22T16:52:28.019Z</time></trkpt><trkpt lat="44.6889665" lon="10.6336186"><ele>62.00000000000001</ele><time>2026-04-22T16:52:30.018Z</time></trkpt><trkpt lat="44.6888958" lon="10.6335446"><ele>62.0</ele><time>2026-04-22T16:52:32.019Z</time></trkpt><trkpt lat="44.6888099" lon="10.6334602"><ele>62.400000000000006</ele><time>2026-04-22T16:52:34.018Z</time></trkpt><trkpt lat="44.6887199" lon="10.6333766"><ele>62.800000000000004</ele><time>2026-04-22T16:52:36.019Z</time></trkpt><trkpt lat="44.6886397" lon="10.633328"><ele>63.2</ele><time>2026-04-22T16:52:38.019Z</time></trkpt><trkpt lat="44.6885528" lon="10.633256"><ele>63.6</ele><time>2026-04-22T16:52:40.019Z</time></trkpt><trkpt lat="44.688479" lon="10.6331759"><ele>64.0</ele><time>2026-04-22T16:52:42.019Z</time></trkpt><trkpt lat="44.6884055" lon="10.6330733"><ele>64.4</ele><time>2026-04-22T16:52:44.019Z</time></trkpt><trkpt lat="44.6883226" lon="10.6329928"><ele>64.80000000000001</ele><time>2026-04-22T16:52:46.019Z</time></trkpt><trkpt lat="44.68828" lon="10.6329254"><ele>65.19999999999999</ele><time>2026-04-22T16:52:47.018Z</time></trkpt><trkpt lat="44.6882149" lon="10.6327811"><ele>65.6</ele><time>2026-04-22T16:52:49.018Z</time></trkpt><trkpt lat="44.6881654" lon="10.632652"><ele>66.0</ele><time>2026-04-22T16:52:51.019Z</time></trkpt><trkpt lat="44.6880793" lon="10.6325488"><ele>66.0</ele><time>2026-04-22T16:52:53.019Z</time></trkpt><trkpt lat="44.6879938" lon="10.6324949"><ele>66.0</ele><time>2026-04-22T16:52:55.019Z</time></trkpt><trkpt lat="44.687909" lon="10.6324087"><ele>66.0</ele><time>2026-04-22T16:52:57.019Z</time></trkpt><trkpt lat="44.6878206" lon="10.6323161"><ele>66.0</ele><time>2026-04-22T16:52:59.018Z</time></trkpt><trkpt lat="44.6877383" lon="10.6322304"><ele>66.0</ele><time>2026-04-22T16:53:01.018Z</time></trkpt><trkpt lat="44.6876536" lon="10.6321352"><ele>65.6</ele><time>2026-04-22T16:53:03.018Z</time></trkpt><trkpt lat="44.6875788" lon="10.632045"><ele>65.19999999999999</ele><time>2026-04-22T16:53:05.019Z</time></trkpt><trkpt lat="44.6874967" lon="10.6319438"><ele>64.80000000000001</ele><time>2026-04-22T16:53:07.018Z</time></trkpt><trkpt lat="44.6874258" lon="10.6318635"><ele>64.4</ele><time>2026-04-22T16:53:09.019Z</time></trkpt><trkpt lat="44.6873592" lon="10.6317773"><ele>64.0</ele><time>2026-04-22T16:53:11.019Z</time></trkpt><trkpt lat="44.6873268" lon="10.6316541"><ele>63.800000000000004</ele><time>2026-04-22T16:53:13.019Z</time></trkpt><trkpt lat="44.6873605" lon="10.6315134"><ele>63.60000000000001</ele><time>2026-04-22T16:53:15.02Z</time></trkpt><trkpt lat="44.687415" lon="10.6313755"><ele>63.4</ele><time>2026-04-22T16:53:17.019Z</time></trkpt><trkpt lat="44.6874658" lon="10.6312389"><ele>63.2</ele><time>2026-04-22T16:53:19.02Z</time></trkpt><trkpt lat="44.6875162" lon="10.6311036"><ele>63.0</ele><time>2026-04-22T16:53:21.019Z</time></trkpt><trkpt lat="44.6875644" lon="10.6309743"><ele>63.0</ele><time>2026-04-22T16:53:23.019Z</time></trkpt><trkpt lat="44.6876164" lon="10.63085"><ele>63.0</ele><time>2026-04-22T16:53:25.019Z</time></trkpt><trkpt lat="44.6876701" lon="10.6307221"><ele>63.0</ele><time>2026-04-22T16:53:27.02Z</time></trkpt><trkpt lat="44.6877184" lon="10.6305858"><ele>63.0</ele><time>2026-04-22T16:53:29.02Z</time></trkpt><trkpt lat="44.6877745" lon="10.6304482"><ele>63.0</ele><time>2026-04-22T16:53:31.02Z</time></trkpt><trkpt lat="44.6878234" lon="10.6303219"><ele>63.8</ele><time>2026-04-22T16:53:33.019Z</time></trkpt><trkpt lat="44.6878618" lon="10.6301917"><ele>64.6</ele><time>2026-04-22T16:53:35.019Z</time></trkpt><trkpt lat="44.6879003" lon="10.6300567"><ele>65.4</ele><time>2026-04-22T16:53:37.02Z</time></trkpt><trkpt lat="44.6879285" lon="10.6299134"><ele>66.2</ele><time>2026-04-22T16:53:39.019Z</time></trkpt><trkpt lat="44.6879505" lon="10.6297732"><ele>67.0</ele><time>2026-04-22T16:53:41.02Z</time></trkpt><trkpt lat="44.6879686" lon="10.6296299"><ele>67.0</ele><time>2026-04-22T16:53:43.019Z</time></trkpt><trkpt lat="44.6879862" lon="10.6294865"><ele>67.0</ele><time>2026-04-22T16:53:45.02Z</time></trkpt><trkpt lat="44.6880048" lon="10.6293306"><ele>67.0</ele><time>2026-04-22T16:53:47.019Z</time></trkpt><trkpt lat="44.6880323" lon="10.6291821"><ele>67.0</ele><time>2026-04-22T16:53:49.019Z</time></trkpt><trkpt lat="44.6880593" lon="10.6290164"><ele>67.0</ele><time>2026-04-22T16:53:51.02Z</time></trkpt><trkpt lat="44.6880787" lon="10.6288707"><ele>66.75</ele><time>2026-04-22T16:53:53.019Z</time></trkpt><trkpt lat="44.6881048" lon="10.6287128"><ele>66.5</ele><time>2026-04-22T16:53:55.019Z</time></trkpt><trkpt lat="44.688129" lon="10.6285539"><ele>66.25</ele><time>2026-04-22T16:53:57.02Z</time></trkpt><trkpt lat="44.6881404" lon="10.6283911"><ele>66.0</ele><time>2026-04-22T16:53:59.019Z</time></trkpt><trkpt lat="44.6881643" lon="10.6282467"><ele>65.8</ele><time>2026-04-22T16:54:01.02Z</time></trkpt><trkpt lat="44.6881848" lon="10.6281097"><ele>65.6</ele><time>2026-04-22T16:54:03.02Z</time></trkpt><trkpt lat="44.6882337" lon="10.6279871"><ele>65.4</ele><time>2026-04-22T16:54:05.019Z</time></trkpt><trkpt lat="44.6883108" lon="10.6278698"><ele>65.2</ele><time>2026-04-22T16:54:07.02Z</time></trkpt><trkpt lat="44.6884051" lon="10.6277635"><ele>65.0</ele><time>2026-04-22T16:54:09.02Z</time></trkpt><trkpt lat="44.6884363" lon="10.6276843"><ele>64.8</ele><time>2026-04-22T16:54:10.019Z</time></trkpt><trkpt lat="44.6884466" lon="10.6275961"><ele>64.6</ele><time>2026-04-22T16:54:11.02Z</time></trkpt><trkpt lat="44.6884827" lon="10.6274381"><ele>64.4</ele><time>2026-04-22T16:54:13.019Z</time></trkpt><trkpt lat="44.6885547" lon="10.627311"><ele>64.2</ele><time>2026-04-22T16:54:15.02Z</time></trkpt><trkpt lat="44.6886692" lon="10.6272846"><ele>64.0</ele><time>2026-04-22T16:54:17.019Z</time></trkpt><trkpt lat="44.6887769" lon="10.6273604"><ele>64.4</ele><time>2026-04-22T16:54:19.02Z</time></trkpt><trkpt lat="44.6888881" lon="10.6273916"><ele>64.80000000000001</ele><time>2026-04-22T16:54:21.02Z</time></trkpt><trkpt lat="44.6889535" lon="10.6274023"><ele>65.19999999999999</ele><time>2026-04-22T16:54:22.02Z</time></trkpt><trkpt lat="44.689076" lon="10.6274129"><ele>65.6</ele><time>2026-04-22T16:54:24.019Z</time></trkpt><trkpt lat="44.6892047" lon="10.6274416"><ele>66.0</ele><time>2026-04-22T16:54:26.019Z</time></trkpt><trkpt lat="44.6892703" lon="10.6274535"><ele>66.0</ele><time>2026-04-22T16:54:27.02Z</time></trkpt><trkpt lat="44.6893333" lon="10.6274562"><ele>66.0</ele><time>2026-04-22T16:54:28.02Z</time></trkpt><trkpt lat="44.6893962" lon="10.6274606"><ele>66.0</ele><time>2026-04-22T16:54:29.02Z</time></trkpt><trkpt lat="44.6894623" lon="10.6274697"><ele>66.0</ele><time>2026-04-22T16:54:30.019Z</time></trkpt><trkpt lat="44.6895264" lon="10.6274739"><ele>66.0</ele><time>2026-04-22T16:54:31.02Z</time></trkpt><trkpt lat="44.6895909" lon="10.6274788"><ele>66.0</ele><time>2026-04-22T16:54:32.02Z</time></trkpt><trkpt lat="44.6896559" lon="10.6274831"><ele>66.0</ele><time>2026-04-22T16:54:33.02Z</time></trkpt><trkpt lat="44.6897693" lon="10.6274799"><ele>65.2</ele><time>2026-04-22T16:54:35.019Z</time></trkpt><trkpt lat="44.6898534" lon="10.6273898"><ele>64.39999999999999</ele><time>2026-04-22T16:54:37.02Z</time></trkpt><trkpt lat="44.6898857" lon="10.6272528"><ele>63.6</ele><time>2026-04-22T16:54:39.019Z</time></trkpt><trkpt lat="44.6899229" lon="10.6271086"><ele>62.8</ele><time>2026-04-22T16:54:41.019Z</time></trkpt><trkpt lat="44.6899615" lon="10.6269542"><ele>62.0</ele><time>2026-04-22T16:54:43.02Z</time></trkpt><trkpt lat="44.6900122" lon="10.6268149"><ele>62.0</ele><time>2026-04-22T16:54:45.02Z</time></trkpt><trkpt lat="44.6900631" lon="10.6266807"><ele>62.0</ele><time>2026-04-22T16:54:47.02Z</time></trkpt><trkpt lat="44.6901149" lon="10.6265506"><ele>62.0</ele><time>2026-04-22T16:54:49.019Z</time></trkpt><trkpt lat="44.6901694" lon="10.6264088"><ele>62.0</ele><time>2026-04-22T16:54:51.019Z</time></trkpt><trkpt lat="44.690223" lon="10.6262802"><ele>62.0</ele><time>2026-04-22T16:54:53.019Z</time></trkpt><trkpt lat="44.6902796" lon="10.6261417"><ele>62.400000000000006</ele><time>2026-04-22T16:54:55.02Z</time></trkpt><trkpt lat="44.6903391" lon="10.6260161"><ele>62.800000000000004</ele><time>2026-04-22T16:54:57.02Z</time></trkpt><trkpt lat="44.6903955" lon="10.6258929"><ele>63.2</ele><time>2026-04-22T16:54:59.02Z</time></trkpt><trkpt lat="44.6904587" lon="10.6257627"><ele>63.6</ele><time>2026-04-22T16:55:01.019Z</time></trkpt><trkpt lat="44.6905195" lon="10.6256276"><ele>64.0</ele><time>2026-04-22T16:55:03.019Z</time></trkpt><trkpt lat="44.6905794" lon="10.6255003"><ele>64.0</ele><time>2026-04-22T16:55:05.019Z</time></trkpt><trkpt lat="44.6906454" lon="10.6253906"><ele>64.0</ele><time>2026-04-22T16:55:07.019Z</time></trkpt><trkpt lat="44.6907103" lon="10.6252984"><ele>64.0</ele><time>2026-04-22T16:55:09.02Z</time></trkpt><trkpt lat="44.6907665" lon="10.6252056"><ele>64.0</ele><time>2026-04-22T16:55:11.019Z</time></trkpt><trkpt lat="44.6908224" lon="10.625088"><ele>64.0</ele><time>2026-04-22T16:55:13.02Z</time></trkpt><trkpt lat="44.6908776" lon="10.6249736"><ele>63.800000000000004</ele><time>2026-04-22T16:55:15.02Z</time></trkpt><trkpt lat="44.690935" lon="10.6248618"><ele>63.60000000000001</ele><time>2026-04-22T16:55:17.02Z</time></trkpt><trkpt lat="44.690997" lon="10.6247669"><ele>63.4</ele><time>2026-04-22T16:55:19.02Z</time></trkpt><trkpt lat="44.6910546" lon="10.6246628"><ele>63.2</ele><time>2026-04-22T16:55:21.019Z</time></trkpt><trkpt lat="44.6911244" lon="10.6245578"><ele>63.0</ele><time>2026-04-22T16:55:23.019Z</time></trkpt><trkpt lat="44.6911719" lon="10.6244569"><ele>63.0</ele><time>2026-04-22T16:55:25.019Z</time></trkpt><trkpt lat="44.6911984" lon="10.6243449"><ele>63.0</ele><time>2026-04-22T16:55:27.02Z</time></trkpt><trkpt lat="44.6912016" lon="10.6242438"><ele>63.0</ele><time>2026-04-22T16:55:30.019Z</time></trkpt><trkpt lat="44.6912279" lon="10.6241446"><ele>63.0</ele><time>2026-04-22T16:55:35.019Z</time></trkpt><trkpt lat="44.6912245" lon="10.6240444"><ele>63.0</ele><time>2026-04-22T16:55:37.019Z</time></trkpt><trkpt lat="44.6911569" lon="10.6239917"><ele>63.0</ele><time>2026-04-22T16:55:39.019Z</time></trkpt><trkpt lat="44.6910725" lon="10.6239297"><ele>63.0</ele><time>2026-04-22T16:55:41.02Z</time></trkpt><trkpt lat="44.6909929" lon="10.6238446"><ele>63.0</ele><time>2026-04-22T16:55:43.02Z</time></trkpt><trkpt lat="44.6909301" lon="10.6237508"><ele>63.0</ele><time>2026-04-22T16:55:45.019Z</time></trkpt><trkpt lat="44.6909079" lon="10.6236061"><ele>63.0</ele><time>2026-04-22T16:55:47.02Z</time></trkpt><trkpt lat="44.6909434" lon="10.6234526"><ele>63.0</ele><time>2026-04-22T16:55:49.019Z</time></trkpt><trkpt lat="44.6909808" lon="10.6233157"><ele>62.599999999999994</ele><time>2026-04-22T16:55:51.019Z</time></trkpt><trkpt lat="44.6910117" lon="10.6231841"><ele>62.199999999999996</ele><time>2026-04-22T16:55:53.02Z</time></trkpt><trkpt lat="44.6910444" lon="10.623055"><ele>61.8</ele><time>2026-04-22T16:55:55.019Z</time></trkpt><trkpt lat="44.69108" lon="10.6229271"><ele>61.4</ele><time>2026-04-22T16:55:57.02Z</time></trkpt><trkpt lat="44.6911089" lon="10.6228049"><ele>61.0</ele><time>2026-04-22T16:55:59.019Z</time></trkpt><trkpt lat="44.6911422" lon="10.6226877"><ele>60.99999999999999</ele><time>2026-04-22T16:56:01.02Z</time></trkpt><trkpt lat="44.6911786" lon="10.6225906"><ele>61.0</ele><time>2026-04-22T16:56:03.019Z</time></trkpt><trkpt lat="44.6912139" lon="10.6225008"><ele>61.0</ele><time>2026-04-22T16:56:06.02Z</time></trkpt><trkpt lat="44.6912505" lon="10.6223918"><ele>61.0</ele><time>2026-04-22T16:56:09.019Z</time></trkpt><trkpt lat="44.6912816" lon="10.6222935"><ele>60.99999999999999</ele><time>2026-04-22T16:56:12.019Z</time></trkpt><trkpt lat="44.6913137" lon="10.6222124"><ele>61.0</ele><time>2026-04-22T16:56:14.019Z</time></trkpt><trkpt lat="44.6912457" lon="10.6221176"><ele>61.0</ele><time>2026-04-22T16:56:17.02Z</time></trkpt><trkpt lat="44.6911682" lon="10.6221301"><ele>60.99999999999999</ele><time>2026-04-22T16:56:19.02Z</time></trkpt><trkpt lat="44.6910682" lon="10.6221235"><ele>60.99999999999999</ele><time>2026-04-22T16:56:21.019Z</time></trkpt><trkpt lat="44.6909736" lon="10.6220658"><ele>61.0</ele><time>2026-04-22T16:56:23.019Z</time></trkpt><trkpt lat="44.690884" lon="10.6219755"><ele>61.0</ele><time>2026-04-22T16:56:25.02Z</time></trkpt><trkpt lat="44.690801" lon="10.6218827"><ele>60.599999999999994</ele><time>2026-04-22T16:56:27.02Z</time></trkpt><trkpt lat="44.6907094" lon="10.6217926"><ele>60.199999999999996</ele><time>2026-04-22T16:56:29.019Z</time></trkpt><trkpt lat="44.6906252" lon="10.6217187"><ele>59.800000000000004</ele><time>2026-04-22T16:56:31.02Z</time></trkpt><trkpt lat="44.6905373" lon="10.6216352"><ele>59.400000000000006</ele><time>2026-04-22T16:56:33.02Z</time></trkpt><trkpt lat="44.6904624" lon="10.621537"><ele>59.0</ele><time>2026-04-22T16:56:35.02Z</time></trkpt><trkpt lat="44.690405" lon="10.6214239"><ele>59.00000000000001</ele><time>2026-04-22T16:56:37.02Z</time></trkpt><trkpt lat="44.6903782" lon="10.6213128"><ele>59.0</ele><time>2026-04-22T16:56:39.02Z</time></trkpt><trkpt lat="44.6903709" lon="10.6211934"><ele>59.0</ele><time>2026-04-22T16:56:42.019Z</time></trkpt><trkpt lat="44.6903931" lon="10.6210981"><ele>59.0</ele><time>2026-04-22T16:56:44.02Z</time></trkpt><trkpt lat="44.6904251" lon="10.6209977"><ele>59.00000000000001</ele><time>2026-04-22T16:56:46.019Z</time></trkpt><trkpt lat="44.6904459" lon="10.6208875"><ele>59.0</ele><time>2026-04-22T16:56:48.019Z</time></trkpt><trkpt lat="44.6904749" lon="10.6207726"><ele>59.0</ele><time>2026-04-22T16:56:50.019Z</time></trkpt><trkpt lat="44.6905092" lon="10.620669"><ele>59.00000000000001</ele><time>2026-04-22T16:56:52.019Z</time></trkpt><trkpt lat="44.6905309" lon="10.6205587"><ele>59.00000000000001</ele><time>2026-04-22T16:56:54.019Z</time></trkpt><trkpt lat="44.6905641" lon="10.6204545"><ele>59.0</ele><time>2026-04-22T16:56:56.02Z</time></trkpt><trkpt lat="44.6906117" lon="10.6203334"><ele>59.0</ele><time>2026-04-22T16:56:58.019Z</time></trkpt><trkpt lat="44.6906693" lon="10.6202034"><ele>59.00000000000001</ele><time>2026-04-22T16:57:00.02Z</time></trkpt><trkpt lat="44.6907129" lon="10.6200635"><ele>59.0</ele><time>2026-04-22T16:57:02.019Z</time></trkpt><trkpt lat="44.6907477" lon="10.6199472"><ele>59.0</ele><time>2026-04-22T16:57:04.019Z</time></trkpt><trkpt lat="44.6906699" lon="10.6199335"><ele>59.0</ele><time>2026-04-22T16:57:09.02Z</time></trkpt><trkpt lat="44.6906129" lon="10.6198929"><ele>59.00000000000001</ele><time>2026-04-22T16:57:11.019Z</time></trkpt><trkpt lat="44.6905652" lon="10.6197735"><ele>59.0</ele><time>2026-04-22T16:57:13.02Z</time></trkpt><trkpt lat="44.6905249" lon="10.619643"><ele>59.00000000000001</ele><time>2026-04-22T16:57:15.019Z</time></trkpt><trkpt lat="44.6904656" lon="10.6195417"><ele>59.0</ele><time>2026-04-22T16:57:17.019Z</time></trkpt><trkpt lat="44.6904246" lon="10.619432"><ele>59.0</ele><time>2026-04-22T16:57:19.02Z</time></trkpt><trkpt lat="44.6904544" lon="10.6193377"><ele>59.0</ele><time>2026-04-22T16:57:21.02Z</time></trkpt><trkpt lat="44.6904186" lon="10.619262"><ele>59.00000000000001</ele><time>2026-04-22T16:57:23.02Z</time></trkpt><trkpt lat="44.6903316" lon="10.619224"><ele>59.0</ele><time>2026-04-22T16:57:25.02Z</time></trkpt><trkpt lat="44.6902398" lon="10.6191681"><ele>59.0</ele><time>2026-04-22T16:57:27.02Z</time></trkpt><trkpt lat="44.6901986" lon="10.6190548"><ele>59.00000000000001</ele><time>2026-04-22T16:57:29.019Z</time></trkpt><trkpt lat="44.6901757" lon="10.6189102"><ele>59.00000000000001</ele><time>2026-04-22T16:57:31.019Z</time></trkpt><trkpt lat="44.6901519" lon="10.6187648"><ele>59.0</ele><time>2026-04-22T16:57:33.019Z</time></trkpt><trkpt lat="44.6901201" lon="10.6186295"><ele>59.0</ele><time>2026-04-22T16:57:35.019Z</time></trkpt><trkpt lat="44.6900835" lon="10.6184943"><ele>59.400000000000006</ele><time>2026-04-22T16:57:37.02Z</time></trkpt><trkpt lat="44.6900469" lon="10.6183518"><ele>59.800000000000004</ele><time>2026-04-22T16:57:39.019Z</time></trkpt><trkpt lat="44.6900139" lon="10.6182039"><ele>60.199999999999996</ele><time>2026-04-22T16:57:41.019Z</time></trkpt><trkpt lat="44.6899835" lon="10.6180695"><ele>60.599999999999994</ele><time>2026-04-22T16:57:43.02Z</time></trkpt><trkpt lat="44.6899607" lon="10.6179314"><ele>61.0</ele><time>2026-04-22T16:57:45.019Z</time></trkpt><trkpt lat="44.689927" lon="10.6177865"><ele>61.0</ele><time>2026-04-22T16:57:47.02Z</time></trkpt><trkpt lat="44.6898968" lon="10.617645"><ele>60.99999999999999</ele><time>2026-04-22T16:57:49.02Z</time></trkpt><trkpt lat="44.6898651" lon="10.6174999"><ele>60.99999999999999</ele><time>2026-04-22T16:57:51.02Z</time></trkpt><trkpt lat="44.6898297" lon="10.6173513"><ele>61.0</ele><time>2026-04-22T16:57:53.019Z</time></trkpt><trkpt lat="44.6897957" lon="10.6172131"><ele>61.0</ele><time>2026-04-22T16:57:55.02Z</time></trkpt><trkpt lat="44.6897642" lon="10.6170569"><ele>61.0</ele><time>2026-04-22T16:57:57.019Z</time></trkpt><trkpt lat="44.6897245" lon="10.616888"><ele>61.0</ele><time>2026-04-22T16:57:59.019Z</time></trkpt><trkpt lat="44.689686" lon="10.6167242"><ele>61.0</ele><time>2026-04-22T16:58:01.019Z</time></trkpt><trkpt lat="44.6896457" lon="10.6165668"><ele>61.0</ele><time>2026-04-22T16:58:03.019Z</time></trkpt><trkpt lat="44.6896032" lon="10.6164156"><ele>61.0</ele><time>2026-04-22T16:58:05.019Z</time></trkpt><trkpt lat="44.6895697" lon="10.61626"><ele>60.99999999999999</ele><time>2026-04-22T16:58:07.02Z</time></trkpt><trkpt lat="44.6895343" lon="10.6160989"><ele>60.99999999999999</ele><time>2026-04-22T16:58:09.02Z</time></trkpt><trkpt lat="44.6894982" lon="10.6159372"><ele>61.0</ele><time>2026-04-22T16:58:11.02Z</time></trkpt><trkpt lat="44.6894812" lon="10.6158483"><ele>61.0</ele><time>2026-04-22T16:58:12.019Z</time></trkpt><trkpt lat="44.6894316" lon="10.6157022"><ele>61.0</ele><time>2026-04-22T16:58:14.019Z</time></trkpt><trkpt lat="44.6893809" lon="10.6155489"><ele>60.99999999999999</ele><time>2026-04-22T16:58:16.02Z</time></trkpt><trkpt lat="44.6893511" lon="10.6154707"><ele>60.99999999999999</ele><time>2026-04-22T16:58:17.02Z</time></trkpt><trkpt lat="44.6892994" lon="10.6153183"><ele>61.0</ele><time>2026-04-22T16:58:19.019Z</time></trkpt><trkpt lat="44.6892707" lon="10.6151711"><ele>61.0</ele><time>2026-04-22T16:58:21.019Z</time></trkpt><trkpt lat="44.6892251" lon="10.6150301"><ele>61.0</ele><time>2026-04-22T16:58:23.019Z</time></trkpt><trkpt lat="44.68918" lon="10.6148919"><ele>60.99999999999999</ele><time>2026-04-22T16:58:25.02Z</time></trkpt><trkpt lat="44.6891501" lon="10.6147688"><ele>60.99999999999999</ele><time>2026-04-22T16:58:27.019Z</time></trkpt><trkpt lat="44.6891225" lon="10.6146562"><ele>61.0</ele><time>2026-04-22T16:58:29.019Z</time></trkpt><trkpt lat="44.6890774" lon="10.6145347"><ele>61.0</ele><time>2026-04-22T16:58:31.02Z</time></trkpt><trkpt lat="44.6890413" lon="10.6143991"><ele>61.0</ele><time>2026-04-22T16:58:33.019Z</time></trkpt><trkpt lat="44.6890144" lon="10.614295"><ele>60.99999999999999</ele><time>2026-04-22T16:58:35.02Z</time></trkpt><trkpt lat="44.6889798" lon="10.6141923"><ele>60.99999999999999</ele><time>2026-04-22T16:58:37.019Z</time></trkpt><trkpt lat="44.6889565" lon="10.6140579"><ele>61.0</ele><time>2026-04-22T16:58:39.02Z</time></trkpt><trkpt lat="44.6889359" lon="10.6139142"><ele>61.0</ele><time>2026-04-22T16:58:41.019Z</time></trkpt><trkpt lat="44.6889047" lon="10.6137773"><ele>60.8</ele><time>2026-04-22T16:58:43.019Z</time></trkpt><trkpt lat="44.688864" lon="10.6136444"><ele>60.599999999999994</ele><time>2026-04-22T16:58:45.02Z</time></trkpt><trkpt lat="44.6888347" lon="10.6134953"><ele>60.4</ele><time>2026-04-22T16:58:47.02Z</time></trkpt><trkpt lat="44.6888187" lon="10.6133541"><ele>60.2</ele><time>2026-04-22T16:58:49.019Z</time></trkpt><trkpt lat="44.6888045" lon="10.6132118"><ele>60.0</ele><time>2026-04-22T16:58:51.019Z</time></trkpt><trkpt lat="44.6887638" lon="10.6130971"><ele>60.0</ele><time>2026-04-22T16:58:54.02Z</time></trkpt><trkpt lat="44.6887372" lon="10.6129832"><ele>60.0</ele><time>2026-04-22T16:58:56.019Z</time></trkpt><trkpt lat="44.6887102" lon="10.6128667"><ele>60.0</ele><time>2026-04-22T16:58:58.02Z</time></trkpt><trkpt lat="44.6886895" lon="10.6127605"><ele>60.0</ele><time>2026-04-22T16:59:00.02Z</time></trkpt><trkpt lat="44.6886697" lon="10.6126449"><ele>60.0</ele><time>2026-04-22T16:59:02.02Z</time></trkpt><trkpt lat="44.6886573" lon="10.6125449"><ele>60.0</ele><time>2026-04-22T16:59:04.02Z</time></trkpt><trkpt lat="44.6886304" lon="10.6124529"><ele>60.5</ele><time>2026-04-22T16:59:06.02Z</time></trkpt><trkpt lat="44.6885873" lon="10.6123855"><ele>61.0</ele><time>2026-04-22T16:59:08.019Z</time></trkpt><trkpt lat="44.6885486" lon="10.612291"><ele>61.5</ele><time>2026-04-22T16:59:35.019Z</time></trkpt><trkpt lat="44.6885229" lon="10.612179"><ele>62.0</ele><time>2026-04-22T16:59:37.019Z</time></trkpt><trkpt lat="44.688504" lon="10.6120605"><ele>62.5</ele><time>2026-04-22T16:59:39.019Z</time></trkpt><trkpt lat="44.6884895" lon="10.6119438"><ele>63.0</ele><time>2026-04-22T16:59:41.019Z</time></trkpt><trkpt lat="44.6884599" lon="10.6118215"><ele>63.0</ele><time>2026-04-22T16:59:43.019Z</time></trkpt><trkpt lat="44.6884358" lon="10.6117033"><ele>63.0</ele><time>2026-04-22T16:59:45.019Z</time></trkpt><trkpt lat="44.6883944" lon="10.6115872"><ele>63.0</ele><time>2026-04-22T16:59:47.019Z</time></trkpt><trkpt lat="44.6883572" lon="10.6114612"><ele>63.0</ele><time>2026-04-22T16:59:49.019Z</time></trkpt><trkpt lat="44.6883327" lon="10.6113279"><ele>63.0</ele><time>2026-04-22T16:59:51.019Z</time></trkpt><trkpt lat="44.6883238" lon="10.6111906"><ele>62.833333333333336</ele><time>2026-04-22T16:59:53.019Z</time></trkpt><trkpt lat="44.6883019" lon="10.6110583"><ele>62.66666666666667</ele><time>2026-04-22T16:59:55.019Z</time></trkpt><trkpt lat="44.6882767" lon="10.6109275"><ele>62.5</ele><time>2026-04-22T16:59:57.019Z</time></trkpt><trkpt lat="44.6882498" lon="10.6108131"><ele>62.333333333333336</ele><time>2026-04-22T16:59:59.02Z</time></trkpt><trkpt lat="44.6882265" lon="10.6106873"><ele>62.16666666666667</ele><time>2026-04-22T17:00:01.019Z</time></trkpt><trkpt lat="44.6882042" lon="10.6105867"><ele>62.0</ele><time>2026-04-22T17:00:03.02Z</time></trkpt><trkpt lat="44.6881798" lon="10.6104791"><ele>62.00000000000001</ele><time>2026-04-22T17:00:05.02Z</time></trkpt><trkpt lat="44.6881534" lon="10.610363"><ele>62.0</ele><time>2026-04-22T17:00:07.02Z</time></trkpt><trkpt lat="44.6881287" lon="10.6102626"><ele>62.0</ele><time>2026-04-22T17:00:09.02Z</time></trkpt><trkpt lat="44.6881085" lon="10.610161"><ele>62.0</ele><time>2026-04-22T17:00:11.02Z</time></trkpt><trkpt lat="44.6880754" lon="10.6100564"><ele>62.00000000000001</ele><time>2026-04-22T17:00:13.019Z</time></trkpt><trkpt lat="44.6880473" lon="10.6099359"><ele>62.0</ele><time>2026-04-22T17:00:15.019Z</time></trkpt><trkpt lat="44.6880126" lon="10.6097948"><ele>62.0</ele><time>2026-04-22T17:00:17.02Z</time></trkpt><trkpt lat="44.6879754" lon="10.60964"><ele>62.0</ele><time>2026-04-22T17:00:19.02Z</time></trkpt><trkpt lat="44.6879448" lon="10.6094876"><ele>62.0</ele><time>2026-04-22T17:00:21.02Z</time></trkpt><trkpt lat="44.6879145" lon="10.6093367"><ele>62.0</ele><time>2026-04-22T17:00:23.019Z</time></trkpt><trkpt lat="44.6878821" lon="10.6091826"><ele>62.0</ele><time>2026-04-22T17:00:25.02Z</time></trkpt><trkpt lat="44.6878485" lon="10.6090404"><ele>62.0</ele><time>2026-04-22T17:00:27.019Z</time></trkpt><trkpt lat="44.6878122" lon="10.6088958"><ele>62.0</ele><time>2026-04-22T17:00:29.019Z</time></trkpt><trkpt lat="44.6877735" lon="10.6087605"><ele>62.0</ele><time>2026-04-22T17:00:31.02Z</time></trkpt><trkpt lat="44.6877294" lon="10.6086488"><ele>62.0</ele><time>2026-04-22T17:00:33.019Z</time></trkpt><trkpt lat="44.6876891" lon="10.608479"><ele>61.8</ele><time>2026-04-22T17:00:35.02Z</time></trkpt><trkpt lat="44.6876439" lon="10.6083313"><ele>61.6</ele><time>2026-04-22T17:00:37.019Z</time></trkpt><trkpt lat="44.6875998" lon="10.6081921"><ele>61.39999999999999</ele><time>2026-04-22T17:00:39.02Z</time></trkpt><trkpt lat="44.6875903" lon="10.6080563"><ele>61.199999999999996</ele><time>2026-04-22T17:00:41.019Z</time></trkpt><trkpt lat="44.6875664" lon="10.6079131"><ele>61.0</ele><time>2026-04-22T17:00:43.02Z</time></trkpt><trkpt lat="44.6875388" lon="10.6077642"><ele>61.0</ele><time>2026-04-22T17:00:45.019Z</time></trkpt><trkpt lat="44.6875022" lon="10.6076297"><ele>60.99999999999999</ele><time>2026-04-22T17:00:47.02Z</time></trkpt><trkpt lat="44.6874706" lon="10.6074693"><ele>60.99999999999999</ele><time>2026-04-22T17:00:49.019Z</time></trkpt><trkpt lat="44.6874349" lon="10.6073242"><ele>61.0</ele><time>2026-04-22T17:00:51.02Z</time></trkpt><trkpt lat="44.6873936" lon="10.6071739"><ele>61.0</ele><time>2026-04-22T17:00:53.02Z</time></trkpt><trkpt lat="44.6873548" lon="10.6070281"><ele>61.199999999999996</ele><time>2026-04-22T17:00:55.019Z</time></trkpt><trkpt lat="44.6873313" lon="10.6068851"><ele>61.39999999999999</ele><time>2026-04-22T17:00:57.019Z</time></trkpt><trkpt lat="44.6872958" lon="10.606743"><ele>61.6</ele><time>2026-04-22T17:00:59.019Z</time></trkpt><trkpt lat="44.68724" lon="10.6066221"><ele>61.8</ele><time>2026-04-22T17:01:01.02Z</time></trkpt><trkpt lat="44.6871549" lon="10.6065492"><ele>62.0</ele><time>2026-04-22T17:01:03.019Z</time></trkpt><trkpt lat="44.6870544" lon="10.6065073"><ele>62.0</ele><time>2026-04-22T17:01:05.019Z</time></trkpt><trkpt lat="44.6869476" lon="10.6064443"><ele>62.0</ele><time>2026-04-22T17:01:07.019Z</time></trkpt><trkpt lat="44.6868527" lon="10.6063882"><ele>62.0</ele><time>2026-04-22T17:01:09.019Z</time></trkpt><trkpt lat="44.6867678" lon="10.6063387"><ele>62.0</ele><time>2026-04-22T17:01:11.019Z</time></trkpt><trkpt lat="44.6866684" lon="10.6062867"><ele>62.0</ele><time>2026-04-22T17:01:13.02Z</time></trkpt><trkpt lat="44.6865716" lon="10.6062539"><ele>62.2</ele><time>2026-04-22T17:01:15.02Z</time></trkpt><trkpt lat="44.6864787" lon="10.6062088"><ele>62.400000000000006</ele><time>2026-04-22T17:01:17.019Z</time></trkpt><trkpt lat="44.6863816" lon="10.6061593"><ele>62.599999999999994</ele><time>2026-04-22T17:01:19.019Z</time></trkpt><trkpt lat="44.6862792" lon="10.6060978"><ele>62.8</ele><time>2026-04-22T17:01:21.019Z</time></trkpt><trkpt lat="44.686191" lon="10.6060336"><ele>63.0</ele><time>2026-04-22T17:01:23.02Z</time></trkpt><trkpt lat="44.6861035" lon="10.6059717"><ele>63.599999999999994</ele><time>2026-04-22T17:01:25.019Z</time></trkpt><trkpt lat="44.6860251" lon="10.6059171"><ele>64.19999999999999</ele><time>2026-04-22T17:01:27.019Z</time></trkpt><trkpt lat="44.6859685" lon="10.6059917"><ele>64.8</ele><time>2026-04-22T17:01:29.02Z</time></trkpt><trkpt lat="44.6859429" lon="10.6061364"><ele>65.39999999999999</ele><time>2026-04-22T17:01:31.02Z</time></trkpt><trkpt lat="44.6859114" lon="10.6062652"><ele>66.0</ele><time>2026-04-22T17:01:33.019Z</time></trkpt><trkpt lat="44.6858828" lon="10.6063853"><ele>66.0</ele><time>2026-04-22T17:01:35.019Z</time></trkpt><trkpt lat="44.6858481" lon="10.6064941"><ele>66.0</ele><time>2026-04-22T17:01:37.02Z</time></trkpt><trkpt lat="44.6857857" lon="10.6065674"><ele>66.0</ele><time>2026-04-22T17:01:39.019Z</time></trkpt><trkpt lat="44.6856936" lon="10.6065408"><ele>66.0</ele><time>2026-04-22T17:01:41.019Z</time></trkpt><trkpt lat="44.6856113" lon="10.6064711"><ele>66.0</ele><time>2026-04-22T17:01:43.019Z</time></trkpt><trkpt lat="44.6855168" lon="10.6064249"><ele>66.0</ele><time>2026-04-22T17:01:45.019Z</time></trkpt><trkpt lat="44.6854172" lon="10.6063665"><ele>66.0</ele><time>2026-04-22T17:01:47.019Z</time></trkpt><trkpt lat="44.6853185" lon="10.606324"><ele>66.0</ele><time>2026-04-22T17:01:49.019Z</time></trkpt><trkpt lat="44.68523" lon="10.6062681"><ele>66.0</ele><time>2026-04-22T17:01:51.02Z</time></trkpt><trkpt lat="44.6851286" lon="10.6062057"><ele>66.0</ele><time>2026-04-22T17:01:53.02Z</time></trkpt><trkpt lat="44.6850461" lon="10.606158"><ele>66.2</ele><time>2026-04-22T17:01:55.019Z</time></trkpt><trkpt lat="44.6849522" lon="10.6061002"><ele>66.39999999999999</ele><time>2026-04-22T17:01:57.019Z</time></trkpt><trkpt lat="44.6848666" lon="10.6060511"><ele>66.6</ele><time>2026-04-22T17:01:59.02Z</time></trkpt><trkpt lat="44.684783" lon="10.6059957"><ele>66.8</ele><time>2026-04-22T17:02:01.019Z</time></trkpt><trkpt lat="44.6846888" lon="10.6059477"><ele>67.0</ele><time>2026-04-22T17:02:03.02Z</time></trkpt><trkpt lat="44.6845939" lon="10.605898"><ele>67.0</ele><time>2026-04-22T17:02:05.02Z</time></trkpt><trkpt lat="44.6845003" lon="10.6058375"><ele>67.0</ele><time>2026-04-22T17:02:07.019Z</time></trkpt><trkpt lat="44.6844104" lon="10.6057788"><ele>67.0</ele><time>2026-04-22T17:02:09.02Z</time></trkpt><trkpt lat="44.6843233" lon="10.6057424"><ele>67.0</ele><time>2026-04-22T17:02:11.019Z</time></trkpt><trkpt lat="44.684238" lon="10.6057059"><ele>67.0</ele><time>2026-04-22T17:02:13.02Z</time></trkpt><trkpt lat="44.6841703" lon="10.6056439"><ele>67.0</ele><time>2026-04-22T17:02:15.019Z</time></trkpt><trkpt lat="44.6841702" lon="10.6055354"><ele>67.0</ele><time>2026-04-22T17:02:17.019Z</time></trkpt><trkpt lat="44.6842059" lon="10.6053959"><ele>67.0</ele><time>2026-04-22T17:02:19.02Z</time></trkpt><trkpt lat="44.6842415" lon="10.6052606"><ele>67.0</ele><time>2026-04-22T17:02:21.019Z</time></trkpt><trkpt lat="44.684276" lon="10.6051268"><ele>67.0</ele><time>2026-04-22T17:02:23.02Z</time></trkpt><trkpt lat="44.6843083" lon="10.6049835"><ele>67.0</ele><time>2026-04-22T17:02:25.02Z</time></trkpt><trkpt lat="44.6843419" lon="10.6048462"><ele>67.0</ele><time>2026-04-22T17:02:27.02Z</time></trkpt><trkpt lat="44.6843827" lon="10.604708"><ele>67.0</ele><time>2026-04-22T17:02:29.021Z</time></trkpt><trkpt lat="44.6844265" lon="10.6045658"><ele>67.0</ele><time>2026-04-22T17:02:31.02Z</time></trkpt><trkpt lat="44.6844698" lon="10.6044263"><ele>67.0</ele><time>2026-04-22T17:02:33.021Z</time></trkpt><trkpt lat="44.6845065" lon="10.6042842"><ele>67.0</ele><time>2026-04-22T17:02:35.021Z</time></trkpt><trkpt lat="44.6845365" lon="10.6041302"><ele>67.0</ele><time>2026-04-22T17:02:37.02Z</time></trkpt><trkpt lat="44.6845663" lon="10.6039793"><ele>67.0</ele><time>2026-04-22T17:02:39.021Z</time></trkpt><trkpt lat="44.6845858" lon="10.6038162"><ele>67.0</ele><time>2026-04-22T17:02:41.02Z</time></trkpt><trkpt lat="44.684602" lon="10.6036505"><ele>67.25</ele><time>2026-04-22T17:02:43.02Z</time></trkpt><trkpt lat="44.6846173" lon="10.6034967"><ele>67.5</ele><time>2026-04-22T17:02:45.02Z</time></trkpt><trkpt lat="44.6846415" lon="10.6033416"><ele>67.75</ele><time>2026-04-22T17:02:47.02Z</time></trkpt><trkpt lat="44.6846487" lon="10.6031759"><ele>68.0</ele><time>2026-04-22T17:02:49.021Z</time></trkpt><trkpt lat="44.6846531" lon="10.6030093"><ele>68.0</ele><time>2026-04-22T17:02:51.02Z</time></trkpt><trkpt lat="44.6846612" lon="10.602849"><ele>68.0</ele><time>2026-04-22T17:02:53.02Z</time></trkpt><trkpt lat="44.6846525" lon="10.6026813"><ele>68.0</ele><time>2026-04-22T17:02:55.021Z</time></trkpt><trkpt lat="44.684647" lon="10.6025136"><ele>68.0</ele><time>2026-04-22T17:02:57.021Z</time></trkpt><trkpt lat="44.6846371" lon="10.6023411"><ele>67.8</ele><time>2026-04-22T17:02:59.021Z</time></trkpt><trkpt lat="44.6846269" lon="10.6021744"><ele>67.6</ele><time>2026-04-22T17:03:01.021Z</time></trkpt><trkpt lat="44.6846321" lon="10.6020125"><ele>67.4</ele><time>2026-04-22T17:03:03.02Z</time></trkpt><trkpt lat="44.6846266" lon="10.6018685"><ele>67.2</ele><time>2026-04-22T17:03:05.02Z</time></trkpt><trkpt lat="44.6845927" lon="10.6017521"><ele>67.0</ele><time>2026-04-22T17:03:07.021Z</time></trkpt><trkpt lat="44.6845547" lon="10.6016331"><ele>66.83333333333333</ele><time>2026-04-22T17:03:09.021Z</time></trkpt><trkpt lat="44.6845233" lon="10.6014939"><ele>66.66666666666666</ele><time>2026-04-22T17:03:11.021Z</time></trkpt><trkpt lat="44.6844992" lon="10.6013734"><ele>66.5</ele><time>2026-04-22T17:03:13.02Z</time></trkpt><trkpt lat="44.6845679" lon="10.6012759"><ele>66.33333333333333</ele><time>2026-04-22T17:03:16.02Z</time></trkpt><trkpt lat="44.684574" lon="10.6011795"><ele>66.16666666666667</ele><time>2026-04-22T17:03:18.021Z</time></trkpt><trkpt lat="44.6844978" lon="10.6011312"><ele>66.0</ele><time>2026-04-22T17:03:20.02Z</time></trkpt><trkpt lat="44.6844062" lon="10.6010576"><ele>66.0</ele><time>2026-04-22T17:03:22.02Z</time></trkpt><trkpt lat="44.6843234" lon="10.6009735"><ele>66.0</ele><time>2026-04-22T17:03:24.02Z</time></trkpt><trkpt lat="44.6842415" lon="10.6008868"><ele>66.0</ele><time>2026-04-22T17:03:26.02Z</time></trkpt><trkpt lat="44.6841549" lon="10.6008074"><ele>66.0</ele><time>2026-04-22T17:03:28.02Z</time></trkpt><trkpt lat="44.684076" lon="10.6007131"><ele>66.0</ele><time>2026-04-22T17:03:30.021Z</time></trkpt><trkpt lat="44.6839893" lon="10.6006157"><ele>66.0</ele><time>2026-04-22T17:03:32.02Z</time></trkpt><trkpt lat="44.6839076" lon="10.6005277"><ele>66.0</ele><time>2026-04-22T17:03:34.02Z</time></trkpt><trkpt lat="44.6838223" lon="10.6004343"><ele>66.0</ele><time>2026-04-22T17:03:36.021Z</time></trkpt><trkpt lat="44.6837443" lon="10.6003429"><ele>66.0</ele><time>2026-04-22T17:03:38.021Z</time></trkpt><trkpt lat="44.6836729" lon="10.6002372"><ele>66.0</ele><time>2026-04-22T17:03:40.02Z</time></trkpt><trkpt lat="44.683602" lon="10.6001041"><ele>66.0</ele><time>2026-04-22T17:03:42.021Z</time></trkpt><trkpt lat="44.6835326" lon="10.5999787"><ele>66.0</ele><time>2026-04-22T17:03:44.021Z</time></trkpt><trkpt lat="44.683445" lon="10.5998624"><ele>66.0</ele><time>2026-04-22T17:03:46.021Z</time></trkpt><trkpt lat="44.6833626" lon="10.5997502"><ele>66.0</ele><time>2026-04-22T17:03:48.021Z</time></trkpt><trkpt lat="44.6832734" lon="10.5996431"><ele>66.0</ele><time>2026-04-22T17:03:50.02Z</time></trkpt><trkpt lat="44.6831891" lon="10.599551"><ele>66.0</ele><time>2026-04-22T17:03:52.021Z</time></trkpt><trkpt lat="44.6830979" lon="10.5994569"><ele>66.0</ele><time>2026-04-22T17:03:54.021Z</time></trkpt><trkpt lat="44.6830117" lon="10.5993588"><ele>66.0</ele><time>2026-04-22T17:03:56.02Z</time></trkpt><trkpt lat="44.6829373" lon="10.5992476"><ele>66.0</ele><time>2026-04-22T17:03:58.02Z</time></trkpt><trkpt lat="44.6829354" lon="10.5991161"><ele>66.16666666666667</ele><time>2026-04-22T17:04:00.02Z</time></trkpt><trkpt lat="44.6829258" lon="10.5990082"><ele>66.33333333333333</ele><time>2026-04-22T17:04:02.02Z</time></trkpt><trkpt lat="44.6828716" lon="10.5989121"><ele>66.5</ele><time>2026-04-22T17:04:04.02Z</time></trkpt><trkpt lat="44.6827953" lon="10.5988264"><ele>66.66666666666666</ele><time>2026-04-22T17:04:06.02Z</time></trkpt><trkpt lat="44.6827069" lon="10.5987811"><ele>66.83333333333333</ele><time>2026-04-22T17:04:08.02Z</time></trkpt><trkpt lat="44.6826207" lon="10.5987836"><ele>67.0</ele><time>2026-04-22T17:04:10.02Z</time></trkpt><trkpt lat="44.682524" lon="10.5988079"><ele>67.2</ele><time>2026-04-22T17:04:12.021Z</time></trkpt><trkpt lat="44.6824356" lon="10.59876"><ele>67.4</ele><time>2026-04-22T17:04:14.021Z</time></trkpt><trkpt lat="44.6823513" lon="10.5986857"><ele>67.6</ele><time>2026-04-22T17:04:16.021Z</time></trkpt><trkpt lat="44.6822915" lon="10.5985753"><ele>67.8</ele><time>2026-04-22T17:04:18.02Z</time></trkpt><trkpt lat="44.6822108" lon="10.5984978"><ele>68.0</ele><time>2026-04-22T17:04:20.021Z</time></trkpt><trkpt lat="44.68215" lon="10.598402"><ele>68.2</ele><time>2026-04-22T17:04:22.02Z</time></trkpt><trkpt lat="44.6820845" lon="10.5982797"><ele>68.4</ele><time>2026-04-22T17:04:24.02Z</time></trkpt><trkpt lat="44.6820412" lon="10.5981548"><ele>68.60000000000001</ele><time>2026-04-22T17:04:26.021Z</time></trkpt><trkpt lat="44.6819667" lon="10.5980667"><ele>68.8</ele><time>2026-04-22T17:04:28.02Z</time></trkpt><trkpt lat="44.6818769" lon="10.5980017"><ele>69.0</ele><time>2026-04-22T17:04:30.02Z</time></trkpt><trkpt lat="44.681787" lon="10.5979128"><ele>69.0</ele><time>2026-04-22T17:04:32.021Z</time></trkpt><trkpt lat="44.6816888" lon="10.5978309"><ele>69.0</ele><time>2026-04-22T17:04:34.02Z</time></trkpt><trkpt lat="44.6815997" lon="10.5977467"><ele>69.0</ele><time>2026-04-22T17:04:36.02Z</time></trkpt><trkpt lat="44.681508" lon="10.5976642"><ele>69.0</ele><time>2026-04-22T17:04:38.021Z</time></trkpt><trkpt lat="44.6814293" lon="10.597581"><ele>69.0</ele><time>2026-04-22T17:04:40.021Z</time></trkpt><trkpt lat="44.6813527" lon="10.597494"><ele>69.0</ele><time>2026-04-22T17:04:42.02Z</time></trkpt><trkpt lat="44.6812825" lon="10.5974129"><ele>69.0</ele><time>2026-04-22T17:04:44.021Z</time></trkpt><trkpt lat="44.6811974" lon="10.5973217"><ele>69.0</ele><time>2026-04-22T17:04:46.021Z</time></trkpt><trkpt lat="44.6811148" lon="10.597217"><ele>69.0</ele><time>2026-04-22T17:04:48.02Z</time></trkpt><trkpt lat="44.6810382" lon="10.5971291"><ele>69.0</ele><time>2026-04-22T17:04:50.021Z</time></trkpt><trkpt lat="44.6809661" lon="10.5970554"><ele>69.16666666666667</ele><time>2026-04-22T17:04:52.021Z</time></trkpt><trkpt lat="44.6809016" lon="10.5969771"><ele>69.33333333333333</ele><time>2026-04-22T17:04:54.021Z</time></trkpt><trkpt lat="44.6808318" lon="10.5968979"><ele>69.5</ele><time>2026-04-22T17:04:56.02Z</time></trkpt><trkpt lat="44.6807589" lon="10.5968023"><ele>69.66666666666666</ele><time>2026-04-22T17:04:58.021Z</time></trkpt><trkpt lat="44.6807102" lon="10.5967276"><ele>69.83333333333333</ele><time>2026-04-22T17:05:00.02Z</time></trkpt><trkpt lat="44.6807058" lon="10.5966094"><ele>70.0</ele><time>2026-04-22T17:05:04.021Z</time></trkpt><trkpt lat="44.6807411" lon="10.5965003"><ele>70.0</ele><time>2026-04-22T17:05:06.02Z</time></trkpt><trkpt lat="44.6807835" lon="10.5963866"><ele>70.0</ele><time>2026-04-22T17:05:08.021Z</time></trkpt><trkpt lat="44.6808252" lon="10.5962727"><ele>70.0</ele><time>2026-04-22T17:05:10.02Z</time></trkpt><trkpt lat="44.680876" lon="10.5961551"><ele>70.0</ele><time>2026-04-22T17:05:12.02Z</time></trkpt><trkpt lat="44.6809202" lon="10.5960276"><ele>70.0</ele><time>2026-04-22T17:05:14.02Z</time></trkpt><trkpt lat="44.6809647" lon="10.5959142"><ele>70.0</ele><time>2026-04-22T17:05:16.02Z</time></trkpt><trkpt lat="44.6810169" lon="10.5958079"><ele>70.0</ele><time>2026-04-22T17:05:18.02Z</time></trkpt><trkpt lat="44.681062" lon="10.5956967"><ele>70.0</ele><time>2026-04-22T17:05:20.021Z</time></trkpt><trkpt lat="44.6811055" lon="10.5955889"><ele>70.0</ele><time>2026-04-22T17:05:22.02Z</time></trkpt><trkpt lat="44.6811546" lon="10.5954829"><ele>70.0</ele><time>2026-04-22T17:05:24.021Z</time></trkpt><trkpt lat="44.6812063" lon="10.5953883"><ele>70.0</ele><time>2026-04-22T17:05:26.02Z</time></trkpt><trkpt lat="44.6812346" lon="10.5952693"><ele>70.0</ele><time>2026-04-22T17:05:28.021Z</time></trkpt><trkpt lat="44.6812198" lon="10.5951637"><ele>70.0</ele><time>2026-04-22T17:05:30.02Z</time></trkpt><trkpt lat="44.6811623" lon="10.595071"><ele>70.0</ele><time>2026-04-22T17:05:32.021Z</time></trkpt><trkpt lat="44.6811002" lon="10.5949898"><ele>70.0</ele><time>2026-04-22T17:05:34.02Z</time></trkpt><trkpt lat="44.68103" lon="10.5949008"><ele>70.0</ele><time>2026-04-22T17:05:36.021Z</time></trkpt><trkpt lat="44.6809522" lon="10.5948108"><ele>70.0</ele><time>2026-04-22T17:05:38.02Z</time></trkpt><trkpt lat="44.6808786" lon="10.594721"><ele>70.0</ele><time>2026-04-22T17:05:40.021Z</time></trkpt><trkpt lat="44.6808058" lon="10.5946421"><ele>70.0</ele><time>2026-04-22T17:05:42.02Z</time></trkpt><trkpt lat="44.6807368" lon="10.5945656"><ele>70.0</ele><time>2026-04-22T17:05:44.02Z</time></trkpt><trkpt lat="44.6806681" lon="10.5944948"><ele>70.0</ele><time>2026-04-22T17:05:46.021Z</time></trkpt><trkpt lat="44.6806542" lon="10.5943819"><ele>70.0</ele><time>2026-04-22T17:05:50.021Z</time></trkpt><trkpt lat="44.6806977" lon="10.5942823"><ele>70.0</ele><time>2026-04-22T17:05:52.021Z</time></trkpt><trkpt lat="44.6807349" lon="10.5941604"><ele>69.6</ele><time>2026-04-22T17:05:54.02Z</time></trkpt><trkpt lat="44.6807768" lon="10.5940287"><ele>69.2</ele><time>2026-04-22T17:05:56.02Z</time></trkpt><trkpt lat="44.6808139" lon="10.5938961"><ele>68.8</ele><time>2026-04-22T17:05:58.021Z</time></trkpt><trkpt lat="44.6808616" lon="10.5937676"><ele>68.4</ele><time>2026-04-22T17:06:00.02Z</time></trkpt><trkpt lat="44.6809065" lon="10.5936391"><ele>68.0</ele><time>2026-04-22T17:06:02.02Z</time></trkpt><trkpt lat="44.6809497" lon="10.5935115"><ele>68.0</ele><time>2026-04-22T17:06:04.02Z</time></trkpt><trkpt lat="44.6809985" lon="10.5933889"><ele>68.0</ele><time>2026-04-22T17:06:06.021Z</time></trkpt><trkpt lat="44.681053" lon="10.5932753"><ele>68.0</ele><time>2026-04-22T17:06:08.021Z</time></trkpt><trkpt lat="44.6811066" lon="10.5931605"><ele>68.0</ele><time>2026-04-22T17:06:10.021Z</time></trkpt><trkpt lat="44.6811421" lon="10.5930383"><ele>68.0</ele><time>2026-04-22T17:06:12.021Z</time></trkpt><trkpt lat="44.6811708" lon="10.5928927"><ele>68.0</ele><time>2026-04-22T17:06:14.021Z</time></trkpt><trkpt lat="44.6812102" lon="10.5927433"><ele>68.0</ele><time>2026-04-22T17:06:16.02Z</time></trkpt><trkpt lat="44.681256" lon="10.5925977"><ele>68.0</ele><time>2026-04-22T17:06:18.021Z</time></trkpt><trkpt lat="44.6813082" lon="10.5924677"><ele>68.0</ele><time>2026-04-22T17:06:20.02Z</time></trkpt><trkpt lat="44.6813526" lon="10.5923379"><ele>68.0</ele><time>2026-04-22T17:06:22.021Z</time></trkpt><trkpt lat="44.6813984" lon="10.5922177"><ele>68.0</ele><time>2026-04-22T17:06:24.021Z</time></trkpt><trkpt lat="44.681447" lon="10.5920984"><ele>68.0</ele><time>2026-04-22T17:06:26.02Z</time></trkpt><trkpt lat="44.6814928" lon="10.5919791"><ele>68.0</ele><time>2026-04-22T17:06:28.02Z</time></trkpt><trkpt lat="44.68153" lon="10.5918378"><ele>68.0</ele><time>2026-04-22T17:06:30.021Z</time></trkpt><trkpt lat="44.6815593" lon="10.5916962"><ele>68.0</ele><time>2026-04-22T17:06:32.02Z</time></trkpt><trkpt lat="44.6815893" lon="10.5915562"><ele>68.0</ele><time>2026-04-22T17:06:34.021Z</time></trkpt><trkpt lat="44.6816293" lon="10.591435"><ele>68.0</ele><time>2026-04-22T17:06:36.02Z</time></trkpt><trkpt lat="44.6816604" lon="10.5913211"><ele>68.0</ele><time>2026-04-22T17:06:38.02Z</time></trkpt><trkpt lat="44.6816756" lon="10.5912005"><ele>68.0</ele><time>2026-04-22T17:06:40.02Z</time></trkpt><trkpt lat="44.6816585" lon="10.5910876"><ele>68.0</ele><time>2026-04-22T17:06:42.02Z</time></trkpt><trkpt lat="44.6816122" lon="10.5910147"><ele>68.0</ele><time>2026-04-22T17:06:44.021Z</time></trkpt><trkpt lat="44.6815279" lon="10.5909896"><ele>68.0</ele><time>2026-04-22T17:06:46.021Z</time></trkpt><trkpt lat="44.6814344" lon="10.5909618"><ele>68.0</ele><time>2026-04-22T17:06:48.02Z</time></trkpt><trkpt lat="44.6813497" lon="10.5909295"><ele>68.0</ele><time>2026-04-22T17:06:50.02Z</time></trkpt><trkpt lat="44.6812608" lon="10.5908858"><ele>68.0</ele><time>2026-04-22T17:06:52.02Z</time></trkpt><trkpt lat="44.6811783" lon="10.5908414"><ele>68.0</ele><time>2026-04-22T17:06:54.021Z</time></trkpt><trkpt lat="44.6811043" lon="10.5907989"><ele>68.0</ele><time>2026-04-22T17:06:56.021Z</time></trkpt><trkpt lat="44.6810257" lon="10.5907428"><ele>68.5</ele><time>2026-04-22T17:06:58.02Z</time></trkpt><trkpt lat="44.6809358" lon="10.5906849"><ele>69.0</ele><time>2026-04-22T17:07:00.02Z</time></trkpt><trkpt lat="44.6808569" lon="10.5906214"><ele>69.5</ele><time>2026-04-22T17:07:02.02Z</time></trkpt><trkpt lat="44.6807901" lon="10.5905499"><ele>70.0</ele><time>2026-04-22T17:07:04.02Z</time></trkpt><trkpt lat="44.6807379" lon="10.5904659"><ele>70.5</ele><time>2026-04-22T17:07:06.02Z</time></trkpt><trkpt lat="44.6806787" lon="10.5903883"><ele>71.0</ele><time>2026-04-22T17:07:08.02Z</time></trkpt><trkpt lat="44.6806203" lon="10.5903378"><ele>71.0</ele><time>2026-04-22T17:07:11.02Z</time></trkpt><trkpt lat="44.6805878" lon="10.5902372"><ele>71.0</ele><time>2026-04-22T17:07:14.021Z</time></trkpt><trkpt lat="44.6806145" lon="10.5901208"><ele>71.0</ele><time>2026-04-22T17:07:16.021Z</time></trkpt><trkpt lat="44.6806619" lon="10.5900354"><ele>71.0</ele><time>2026-04-22T17:07:18.02Z</time></trkpt><trkpt lat="44.6807096" lon="10.5899279"><ele>71.0</ele><time>2026-04-22T17:07:20.02Z</time></trkpt><trkpt lat="44.6807566" lon="10.5898086"><ele>71.0</ele><time>2026-04-22T17:07:22.02Z</time></trkpt><trkpt lat="44.6808047" lon="10.5897059"><ele>71.0</ele><time>2026-04-22T17:07:24.02Z</time></trkpt><trkpt lat="44.6808516" lon="10.5895977"><ele>71.0</ele><time>2026-04-22T17:07:26.021Z</time></trkpt><trkpt lat="44.6808965" lon="10.5894835"><ele>71.0</ele><time>2026-04-22T17:07:28.02Z</time></trkpt><trkpt lat="44.6809303" lon="10.5893686"><ele>71.0</ele><time>2026-04-22T17:07:30.02Z</time></trkpt><trkpt lat="44.6809781" lon="10.5892589"><ele>71.0</ele><time>2026-04-22T17:07:32.02Z</time></trkpt><trkpt lat="44.6810202" lon="10.5891452"><ele>71.0</ele><time>2026-04-22T17:07:34.021Z</time></trkpt><trkpt lat="44.6810683" lon="10.5890232"><ele>71.0</ele><time>2026-04-22T17:07:36.02Z</time></trkpt><trkpt lat="44.6811179" lon="10.5889025"><ele>71.0</ele><time>2026-04-22T17:07:38.02Z</time></trkpt><trkpt lat="44.6811692" lon="10.5887879"><ele>71.0</ele><time>2026-04-22T17:07:40.021Z</time></trkpt><trkpt lat="44.6812183" lon="10.5886858"><ele>71.0</ele><time>2026-04-22T17:07:42.021Z</time></trkpt><trkpt lat="44.6812571" lon="10.5885693"><ele>71.0</ele><time>2026-04-22T17:07:44.02Z</time></trkpt><trkpt lat="44.6812581" lon="10.5884432"><ele>71.0</ele><time>2026-04-22T17:07:46.02Z</time></trkpt><trkpt lat="44.6812148" lon="10.5883387"><ele>71.0</ele><time>2026-04-22T17:07:48.02Z</time></trkpt><trkpt lat="44.6811323" lon="10.5882727"><ele>71.0</ele><time>2026-04-22T17:07:50.02Z</time></trkpt><trkpt lat="44.6810349" lon="10.5882306"><ele>71.0</ele><time>2026-04-22T17:07:52.02Z</time></trkpt><trkpt lat="44.6809447" lon="10.5881771"><ele>71.0</ele><time>2026-04-22T17:07:54.021Z</time></trkpt><trkpt lat="44.6808647" lon="10.5881339"><ele>71.0</ele><time>2026-04-22T17:07:56.02Z</time></trkpt><trkpt lat="44.6807887" lon="10.5880791"><ele>71.0</ele><time>2026-04-22T17:07:58.021Z</time></trkpt><trkpt lat="44.6807024" lon="10.5880316"><ele>71.0</ele><time>2026-04-22T17:08:00.02Z</time></trkpt><trkpt lat="44.6806072" lon="10.5879819"><ele>71.0</ele><time>2026-04-22T17:08:02.021Z</time></trkpt><trkpt lat="44.6805183" lon="10.5879292"><ele>71.0</ele><time>2026-04-22T17:08:04.021Z</time></trkpt><trkpt lat="44.6804362" lon="10.5878821"><ele>71.0</ele><time>2026-04-22T17:08:06.02Z</time></trkpt><trkpt lat="44.6803547" lon="10.5878356"><ele>71.0</ele><time>2026-04-22T17:08:08.02Z</time></trkpt><trkpt lat="44.6802648" lon="10.5877858"><ele>71.0</ele><time>2026-04-22T17:08:10.021Z</time></trkpt><trkpt lat="44.6801754" lon="10.5877429"><ele>71.0</ele><time>2026-04-22T17:08:12.021Z</time></trkpt><trkpt lat="44.6800896" lon="10.5876912"><ele>71.39999999999999</ele><time>2026-04-22T17:08:14.021Z</time></trkpt><trkpt lat="44.6800081" lon="10.5876368"><ele>71.8</ele><time>2026-04-22T17:08:16.02Z</time></trkpt><trkpt lat="44.6799215" lon="10.5875841"><ele>72.19999999999999</ele><time>2026-04-22T17:08:18.021Z</time></trkpt><trkpt lat="44.6798365" lon="10.587533"><ele>72.6</ele><time>2026-04-22T17:08:20.021Z</time></trkpt><trkpt lat="44.6797549" lon="10.5874861"><ele>73.0</ele><time>2026-04-22T17:08:22.021Z</time></trkpt><trkpt lat="44.6796635" lon="10.5874379"><ele>73.0</ele><time>2026-04-22T17:08:24.02Z</time></trkpt><trkpt lat="44.6795813" lon="10.5873784"><ele>73.0</ele><time>2026-04-22T17:08:26.02Z</time></trkpt><trkpt lat="44.6794894" lon="10.5873286"><ele>73.0</ele><time>2026-04-22T17:08:28.02Z</time></trkpt><trkpt lat="44.6793997" lon="10.5872971"><ele>73.0</ele><time>2026-04-22T17:08:30.02Z</time></trkpt><trkpt lat="44.6793055" lon="10.587251"><ele>73.0</ele><time>2026-04-22T17:08:32.02Z</time></trkpt><trkpt lat="44.6792083" lon="10.5871984"><ele>73.0</ele><time>2026-04-22T17:08:34.02Z</time></trkpt><trkpt lat="44.6791195" lon="10.5871471"><ele>73.0</ele><time>2026-04-22T17:08:36.02Z</time></trkpt><trkpt lat="44.6790376" lon="10.5870981"><ele>73.0</ele><time>2026-04-22T17:08:38.02Z</time></trkpt><trkpt lat="44.6789499" lon="10.5870529"><ele>73.0</ele><time>2026-04-22T17:08:40.02Z</time></trkpt><trkpt lat="44.6788584" lon="10.5869989"><ele>73.0</ele><time>2026-04-22T17:08:42.02Z</time></trkpt><trkpt lat="44.6787777" lon="10.5869537"><ele>73.0</ele><time>2026-04-22T17:08:44.021Z</time></trkpt><trkpt lat="44.6786964" lon="10.5868974"><ele>73.0</ele><time>2026-04-22T17:08:46.02Z</time></trkpt><trkpt lat="44.6786153" lon="10.5868495"><ele>73.0</ele><time>2026-04-22T17:08:48.021Z</time></trkpt><trkpt lat="44.6785272" lon="10.5867985"><ele>73.0</ele><time>2026-04-22T17:08:50.021Z</time></trkpt><trkpt lat="44.6784419" lon="10.5867428"><ele>73.0</ele><time>2026-04-22T17:08:52.02Z</time></trkpt><trkpt lat="44.67836" lon="10.5866991"><ele>73.0</ele><time>2026-04-22T17:08:54.02Z</time></trkpt><trkpt lat="44.6782749" lon="10.5866483"><ele>73.0</ele><time>2026-04-22T17:08:56.021Z</time></trkpt><trkpt lat="44.6781902" lon="10.586602"><ele>73.0</ele><time>2026-04-22T17:08:58.02Z</time></trkpt><trkpt lat="44.6781019" lon="10.5865529"><ele>73.0</ele><time>2026-04-22T17:09:00.02Z</time></trkpt><trkpt lat="44.6780135" lon="10.586507"><ele>73.0</ele><time>2026-04-22T17:09:02.02Z</time></trkpt><trkpt lat="44.6779248" lon="10.5864588"><ele>73.0</ele><time>2026-04-22T17:09:04.02Z</time></trkpt><trkpt lat="44.6778371" lon="10.5864097"><ele>73.0</ele><time>2026-04-22T17:09:06.02Z</time></trkpt><trkpt lat="44.6777502" lon="10.5863551"><ele>73.0</ele><time>2026-04-22T17:09:08.02Z</time></trkpt><trkpt lat="44.6776648" lon="10.5863143"><ele>73.0</ele><time>2026-04-22T17:09:10.02Z</time></trkpt><trkpt lat="44.677577" lon="10.5862632"><ele>73.0</ele><time>2026-04-22T17:09:12.02Z</time></trkpt><trkpt lat="44.6774884" lon="10.5862124"><ele>73.2</ele><time>2026-04-22T17:09:14.02Z</time></trkpt><trkpt lat="44.6774036" lon="10.5861603"><ele>73.4</ele><time>2026-04-22T17:09:16.021Z</time></trkpt><trkpt lat="44.6773227" lon="10.5861126"><ele>73.60000000000001</ele><time>2026-04-22T17:09:18.021Z</time></trkpt><trkpt lat="44.6772402" lon="10.5860602"><ele>73.8</ele><time>2026-04-22T17:09:20.021Z</time></trkpt><trkpt lat="44.6771533" lon="10.5860168"><ele>74.0</ele><time>2026-04-22T17:09:22.02Z</time></trkpt><trkpt lat="44.6770666" lon="10.5859686"><ele>74.0</ele><time>2026-04-22T17:09:24.02Z</time></trkpt><trkpt lat="44.676976" lon="10.5859204"><ele>74.0</ele><time>2026-04-22T17:09:26.02Z</time></trkpt><trkpt lat="44.6768932" lon="10.5858777"><ele>74.0</ele><time>2026-04-22T17:09:28.02Z</time></trkpt><trkpt lat="44.6768001" lon="10.5858459"><ele>74.0</ele><time>2026-04-22T17:09:30.02Z</time></trkpt><trkpt lat="44.6767138" lon="10.585784"><ele>74.0</ele><time>2026-04-22T17:09:32.021Z</time></trkpt><trkpt lat="44.6766314" lon="10.5857283"><ele>73.8</ele><time>2026-04-22T17:09:34.02Z</time></trkpt><trkpt lat="44.6765433" lon="10.585681"><ele>73.60000000000001</ele><time>2026-04-22T17:09:36.02Z</time></trkpt><trkpt lat="44.6764521" lon="10.5856332"><ele>73.4</ele><time>2026-04-22T17:09:38.021Z</time></trkpt><trkpt lat="44.6763666" lon="10.5855852"><ele>73.2</ele><time>2026-04-22T17:09:40.02Z</time></trkpt><trkpt lat="44.6762846" lon="10.5855359"><ele>73.0</ele><time>2026-04-22T17:09:42.02Z</time></trkpt><trkpt lat="44.6761954" lon="10.5854729"><ele>73.0</ele><time>2026-04-22T17:09:44.021Z</time></trkpt><trkpt lat="44.6761084" lon="10.5854078"><ele>73.0</ele><time>2026-04-22T17:09:46.02Z</time></trkpt><trkpt lat="44.6760264" lon="10.5853527"><ele>73.0</ele><time>2026-04-22T17:09:48.02Z</time></trkpt><trkpt lat="44.6759461" lon="10.5853"><ele>73.0</ele><time>2026-04-22T17:09:50.02Z</time></trkpt><trkpt lat="44.6758711" lon="10.5852508"><ele>73.0</ele><time>2026-04-22T17:09:52.022Z</time></trkpt><trkpt lat="44.6757897" lon="10.585211"><ele>73.0</ele><time>2026-04-22T17:09:54.021Z</time></trkpt><trkpt lat="44.6757083" lon="10.5851934"><ele>73.5</ele><time>2026-04-22T17:09:56.022Z</time></trkpt><trkpt lat="44.6756364" lon="10.5852312"><ele>74.0</ele><time>2026-04-22T17:09:58.021Z</time></trkpt><trkpt lat="44.6756124" lon="10.5853362"><ele>74.5</ele><time>2026-04-22T17:10:00.021Z</time></trkpt><trkpt lat="44.6755912" lon="10.5854454"><ele>75.0</ele><time>2026-04-22T17:10:02.021Z</time></trkpt><trkpt lat="44.6755668" lon="10.5855599"><ele>75.5</ele><time>2026-04-22T17:10:04.022Z</time></trkpt><trkpt lat="44.6755346" lon="10.5856734"><ele>76.0</ele><time>2026-04-22T17:10:06.021Z</time></trkpt><trkpt lat="44.6755033" lon="10.5857835"><ele>76.0</ele><time>2026-04-22T17:10:08.021Z</time></trkpt><trkpt lat="44.6754392" lon="10.5858524"><ele>76.0</ele><time>2026-04-22T17:10:10.021Z</time></trkpt><trkpt lat="44.6753534" lon="10.5858234"><ele>76.0</ele><time>2026-04-22T17:10:12.021Z</time></trkpt><trkpt lat="44.6752672" lon="10.5857537"><ele>76.0</ele><time>2026-04-22T17:10:14.021Z</time></trkpt><trkpt lat="44.6751804" lon="10.585704"><ele>76.0</ele><time>2026-04-22T17:10:16.021Z</time></trkpt><trkpt lat="44.6750905" lon="10.585659"><ele>77.0</ele><time>2026-04-22T17:10:18.022Z</time></trkpt><trkpt lat="44.6750062" lon="10.5856176"><ele>78.0</ele><time>2026-04-22T17:10:20.021Z</time></trkpt><trkpt lat="44.6749215" lon="10.5855683"><ele>79.0</ele><time>2026-04-22T17:10:22.022Z</time></trkpt><trkpt lat="44.674835" lon="10.5855166"><ele>80.0</ele><time>2026-04-22T17:10:24.022Z</time></trkpt><trkpt lat="44.6747437" lon="10.5854588"><ele>81.0</ele><time>2026-04-22T17:10:26.022Z</time></trkpt><trkpt lat="44.6746608" lon="10.5854145"><ele>81.0</ele><time>2026-04-22T17:10:28.022Z</time></trkpt><trkpt lat="44.6745779" lon="10.5853697"><ele>81.0</ele><time>2026-04-22T17:10:30.021Z</time></trkpt><trkpt lat="44.674492" lon="10.5853232"><ele>81.0</ele><time>2026-04-22T17:10:32.021Z</time></trkpt><trkpt lat="44.6744021" lon="10.5852595"><ele>81.0</ele><time>2026-04-22T17:10:34.021Z</time></trkpt><trkpt lat="44.6743164" lon="10.5852189"><ele>81.0</ele><time>2026-04-22T17:10:36.022Z</time></trkpt><trkpt lat="44.6742285" lon="10.5851824"><ele>81.0</ele><time>2026-04-22T17:10:38.022Z</time></trkpt><trkpt lat="44.6741398" lon="10.5851702"><ele>81.0</ele><time>2026-04-22T17:10:40.022Z</time></trkpt><trkpt lat="44.674069" lon="10.585207"><ele>81.0</ele><time>2026-04-22T17:10:42.022Z</time></trkpt><trkpt lat="44.6740213" lon="10.5852904"><ele>81.0</ele><time>2026-04-22T17:10:44.021Z</time></trkpt><trkpt lat="44.6739897" lon="10.5854061"><ele>81.0</ele><time>2026-04-22T17:10:46.021Z</time></trkpt><trkpt lat="44.6739784" lon="10.5855277"><ele>81.0</ele><time>2026-04-22T17:10:48.022Z</time></trkpt><trkpt lat="44.6739688" lon="10.5856432"><ele>80.66666666666667</ele><time>2026-04-22T17:10:50.022Z</time></trkpt><trkpt lat="44.6739558" lon="10.5857661"><ele>80.33333333333333</ele><time>2026-04-22T17:10:52.022Z</time></trkpt><trkpt lat="44.6739311" lon="10.5858863"><ele>80.0</ele><time>2026-04-22T17:10:54.021Z</time></trkpt><trkpt lat="44.6738803" lon="10.585945"><ele>79.66666666666666</ele><time>2026-04-22T17:10:56.021Z</time></trkpt><trkpt lat="44.6738049" lon="10.5859601"><ele>79.33333333333333</ele><time>2026-04-22T17:10:58.022Z</time></trkpt><trkpt lat="44.6737378" lon="10.5859889"><ele>79.0</ele><time>2026-04-22T17:11:02.022Z</time></trkpt><trkpt lat="44.6736829" lon="10.5860756"><ele>78.83333333333333</ele><time>2026-04-22T17:11:05.022Z</time></trkpt><trkpt lat="44.6736818" lon="10.5861925"><ele>78.66666666666666</ele><time>2026-04-22T17:11:07.022Z</time></trkpt><trkpt lat="44.6736229" lon="10.5862796"><ele>78.5</ele><time>2026-04-22T17:11:09.022Z</time></trkpt><trkpt lat="44.6735328" lon="10.5862917"><ele>78.33333333333333</ele><time>2026-04-22T17:11:11.022Z</time></trkpt><trkpt lat="44.6734457" lon="10.5862607"><ele>78.16666666666667</ele><time>2026-04-22T17:11:13.022Z</time></trkpt><trkpt lat="44.6733671" lon="10.5862301"><ele>78.0</ele><time>2026-04-22T17:11:15.021Z</time></trkpt><trkpt lat="44.67329" lon="10.5862087"><ele>78.0</ele><time>2026-04-22T17:11:17.021Z</time></trkpt><trkpt lat="44.6732065" lon="10.5861911"><ele>78.0</ele><time>2026-04-22T17:11:19.022Z</time></trkpt><trkpt lat="44.6731268" lon="10.5861795"><ele>78.0</ele><time>2026-04-22T17:11:21.021Z</time></trkpt><trkpt lat="44.6730452" lon="10.5861665"><ele>78.0</ele><time>2026-04-22T17:11:23.021Z</time></trkpt><trkpt lat="44.6729619" lon="10.5861519"><ele>78.0</ele><time>2026-04-22T17:11:25.021Z</time></trkpt><trkpt lat="44.6728782" lon="10.5861397"><ele>78.0</ele><time>2026-04-22T17:11:27.022Z</time></trkpt><trkpt lat="44.6727965" lon="10.5861226"><ele>78.33333333333333</ele><time>2026-04-22T17:11:29.022Z</time></trkpt><trkpt lat="44.672712" lon="10.5861016"><ele>78.66666666666667</ele><time>2026-04-22T17:11:31.021Z</time></trkpt><trkpt lat="44.6726255" lon="10.5860879"><ele>79.0</ele><time>2026-04-22T17:11:33.021Z</time></trkpt><trkpt lat="44.6725416" lon="10.5860725"><ele>79.33333333333334</ele><time>2026-04-22T17:11:35.022Z</time></trkpt><trkpt lat="44.6724567" lon="10.5860524"><ele>79.66666666666667</ele><time>2026-04-22T17:11:37.022Z</time></trkpt><trkpt lat="44.6723654" lon="10.58604"><ele>80.0</ele><time>2026-04-22T17:11:39.021Z</time></trkpt><trkpt lat="44.6722834" lon="10.5860189"><ele>80.0</ele><time>2026-04-22T17:11:41.022Z</time></trkpt><trkpt lat="44.6722014" lon="10.5860048"><ele>80.0</ele><time>2026-04-22T17:11:43.022Z</time></trkpt><trkpt lat="44.6721215" lon="10.5859946"><ele>80.0</ele><time>2026-04-22T17:11:45.022Z</time></trkpt><trkpt lat="44.6720429" lon="10.5859801"><ele>80.0</ele><time>2026-04-22T17:11:47.022Z</time></trkpt><trkpt lat="44.671962" lon="10.5859555"><ele>80.0</ele><time>2026-04-22T17:11:49.022Z</time></trkpt><trkpt lat="44.6718812" lon="10.5859392"><ele>80.0</ele><time>2026-04-22T17:11:51.021Z</time></trkpt><trkpt lat="44.6718059" lon="10.5859311"><ele>80.14285714285714</ele><time>2026-04-22T17:11:53.021Z</time></trkpt><trkpt lat="44.6717329" lon="10.5859187"><ele>80.28571428571429</ele><time>2026-04-22T17:11:55.021Z</time></trkpt><trkpt lat="44.671657" lon="10.5858986"><ele>80.42857142857143</ele><time>2026-04-22T17:11:57.021Z</time></trkpt><trkpt lat="44.6715815" lon="10.5858788"><ele>80.57142857142857</ele><time>2026-04-22T17:11:59.022Z</time></trkpt><trkpt lat="44.6715111" lon="10.5858724"><ele>80.71428571428571</ele><time>2026-04-22T17:12:01.022Z</time></trkpt><trkpt lat="44.6714366" lon="10.5858619"><ele>80.85714285714286</ele><time>2026-04-22T17:12:03.021Z</time></trkpt><trkpt lat="44.6713633" lon="10.5858339"><ele>81.0</ele><time>2026-04-22T17:12:05.021Z</time></trkpt><trkpt lat="44.6712869" lon="10.5858483"><ele>81.0</ele><time>2026-04-22T17:12:07.022Z</time></trkpt><trkpt lat="44.6712226" lon="10.5858688"><ele>81.0</ele><time>2026-04-22T17:12:09.022Z</time></trkpt><trkpt lat="44.6711616" lon="10.5858233"><ele>81.0</ele><time>2026-04-22T17:12:11.021Z</time></trkpt><trkpt lat="44.6710873" lon="10.5857848"><ele>81.0</ele><time>2026-04-22T17:12:13.021Z</time></trkpt><trkpt lat="44.6710082" lon="10.5857638"><ele>81.0</ele><time>2026-04-22T17:12:15.022Z</time></trkpt><trkpt lat="44.6709234" lon="10.5857506"><ele>81.0</ele><time>2026-04-22T17:12:17.022Z</time></trkpt><trkpt lat="44.6708434" lon="10.585732"><ele>81.33333333333333</ele><time>2026-04-22T17:12:19.021Z</time></trkpt><trkpt lat="44.6707621" lon="10.5857139"><ele>81.66666666666667</ele><time>2026-04-22T17:12:21.021Z</time></trkpt><trkpt lat="44.6706861" lon="10.5856925"><ele>82.0</ele><time>2026-04-22T17:12:23.022Z</time></trkpt><trkpt lat="44.6706095" lon="10.5856707"><ele>82.33333333333334</ele><time>2026-04-22T17:12:25.022Z</time></trkpt><trkpt lat="44.6705268" lon="10.585661"><ele>82.66666666666667</ele><time>2026-04-22T17:12:27.022Z</time></trkpt><trkpt lat="44.6704488" lon="10.5856401"><ele>83.0</ele><time>2026-04-22T17:12:29.022Z</time></trkpt><trkpt lat="44.6703728" lon="10.585625"><ele>83.0</ele><time>2026-04-22T17:12:31.022Z</time></trkpt><trkpt lat="44.670306" lon="10.5856141"><ele>83.0</ele><time>2026-04-22T17:12:33.021Z</time></trkpt><trkpt lat="44.6702409" lon="10.5856498"><ele>83.0</ele><time>2026-04-22T17:12:35.021Z</time></trkpt><trkpt lat="44.6702061" lon="10.5857288"><ele>83.0</ele><time>2026-04-22T17:12:37.021Z</time></trkpt><trkpt lat="44.6701901" lon="10.5858368"><ele>83.0</ele><time>2026-04-22T17:12:39.022Z</time></trkpt><trkpt lat="44.6701739" lon="10.5859437"><ele>83.0</ele><time>2026-04-22T17:12:41.022Z</time></trkpt><trkpt lat="44.6701638" lon="10.586055"><ele>83.0</ele><time>2026-04-22T17:12:43.022Z</time></trkpt><trkpt lat="44.670153" lon="10.5861724"><ele>83.16666666666667</ele><time>2026-04-22T17:12:45.022Z</time></trkpt><trkpt lat="44.6701462" lon="10.5862867"><ele>83.33333333333334</ele><time>2026-04-22T17:12:47.022Z</time></trkpt><trkpt lat="44.6701348" lon="10.5864078"><ele>83.5</ele><time>2026-04-22T17:12:49.021Z</time></trkpt><trkpt lat="44.6701169" lon="10.5865219"><ele>83.66666666666667</ele><time>2026-04-22T17:12:51.021Z</time></trkpt><trkpt lat="44.6700991" lon="10.5866346"><ele>83.83333333333333</ele><time>2026-04-22T17:12:53.022Z</time></trkpt><trkpt lat="44.6700851" lon="10.586728"><ele>84.0</ele><time>2026-04-22T17:12:55.022Z</time></trkpt><trkpt lat="44.670074" lon="10.5868242"><ele>84.0</ele><time>2026-04-22T17:12:57.022Z</time></trkpt><trkpt lat="44.6700693" lon="10.5869174"><ele>84.0</ele><time>2026-04-22T17:12:59.021Z</time></trkpt><trkpt lat="44.6700618" lon="10.5870189"><ele>84.0</ele><time>2026-04-22T17:13:01.021Z</time></trkpt><trkpt lat="44.6700487" lon="10.5871207"><ele>84.0</ele><time>2026-04-22T17:13:03.022Z</time></trkpt><trkpt lat="44.6700275" lon="10.5872061"><ele>84.0</ele><time>2026-04-22T17:13:05.022Z</time></trkpt><trkpt lat="44.6700169" lon="10.5873286"><ele>84.0</ele><time>2026-04-22T17:13:08.021Z</time></trkpt><trkpt lat="44.6700112" lon="10.5874253"><ele>84.0</ele><time>2026-04-22T17:13:11.021Z</time></trkpt><trkpt lat="44.670013" lon="10.5875632"><ele>84.0</ele><time>2026-04-22T17:13:14.021Z</time></trkpt><trkpt lat="44.6699644" lon="10.5876593"><ele>84.0</ele><time>2026-04-22T17:13:16.022Z</time></trkpt><trkpt lat="44.6698961" lon="10.5877562"><ele>84.0</ele><time>2026-04-22T17:13:19.021Z</time></trkpt><trkpt lat="44.6698246" lon="10.587816"><ele>84.0</ele><time>2026-04-22T17:13:21.021Z</time></trkpt><trkpt lat="44.6697543" lon="10.5878781"><ele>84.0</ele><time>2026-04-22T17:13:23.022Z</time></trkpt><trkpt lat="44.669671" lon="10.5879394"><ele>84.0</ele><time>2026-04-22T17:13:25.022Z</time></trkpt><trkpt lat="44.6695922" lon="10.5880125"><ele>83.4</ele><time>2026-04-22T17:13:27.022Z</time></trkpt><trkpt lat="44.6694988" lon="10.5880745"><ele>82.80000000000001</ele><time>2026-04-22T17:13:29.022Z</time></trkpt><trkpt lat="44.6694054" lon="10.5881311"><ele>82.19999999999999</ele><time>2026-04-22T17:13:31.022Z</time></trkpt><trkpt lat="44.6693181" lon="10.5881755"><ele>81.6</ele><time>2026-04-22T17:13:33.021Z</time></trkpt><trkpt lat="44.6692348" lon="10.5881904"><ele>81.0</ele><time>2026-04-22T17:13:35.021Z</time></trkpt><trkpt lat="44.6691504" lon="10.588199"><ele>81.0</ele><time>2026-04-22T17:13:37.021Z</time></trkpt><trkpt lat="44.6690525" lon="10.5882268"><ele>81.0</ele><time>2026-04-22T17:13:39.022Z</time></trkpt><trkpt lat="44.6689667" lon="10.5882589"><ele>81.0</ele><time>2026-04-22T17:13:41.021Z</time></trkpt><trkpt lat="44.6688924" lon="10.5882697"><ele>81.0</ele><time>2026-04-22T17:13:43.022Z</time></trkpt><trkpt lat="44.66882" lon="10.5882693"><ele>81.0</ele><time>2026-04-22T17:13:45.021Z</time></trkpt><trkpt lat="44.6687357" lon="10.5882746"><ele>81.0</ele><time>2026-04-22T17:13:47.021Z</time></trkpt><trkpt lat="44.6686505" lon="10.5882679"><ele>81.5</ele><time>2026-04-22T17:13:49.021Z</time></trkpt><trkpt lat="44.6685782" lon="10.5882432"><ele>82.0</ele><time>2026-04-22T17:13:51.022Z</time></trkpt><trkpt lat="44.6684985" lon="10.5882253"><ele>82.5</ele><time>2026-04-22T17:13:53.021Z</time></trkpt><trkpt lat="44.6684186" lon="10.5882095"><ele>83.0</ele><time>2026-04-22T17:13:55.021Z</time></trkpt><trkpt lat="44.6683341" lon="10.588169"><ele>83.5</ele><time>2026-04-22T17:13:57.022Z</time></trkpt><trkpt lat="44.6682554" lon="10.5881134"><ele>84.0</ele><time>2026-04-22T17:13:59.021Z</time></trkpt><trkpt lat="44.6681794" lon="10.5880536"><ele>84.0</ele><time>2026-04-22T17:14:01.021Z</time></trkpt><trkpt lat="44.6681051" lon="10.5879996"><ele>84.0</ele><time>2026-04-22T17:14:03.022Z</time></trkpt><trkpt lat="44.6680402" lon="10.5879354"><ele>84.0</ele><time>2026-04-22T17:14:05.022Z</time></trkpt><trkpt lat="44.6679813" lon="10.5878871"><ele>84.0</ele><time>2026-04-22T17:14:07.022Z</time></trkpt><trkpt lat="44.6679167" lon="10.5878417"><ele>84.0</ele><time>2026-04-22T17:14:09.022Z</time></trkpt><trkpt lat="44.6678566" lon="10.5878019"><ele>84.0</ele><time>2026-04-22T17:14:11.022Z</time></trkpt><trkpt lat="44.6677929" lon="10.5877462"><ele>84.0</ele><time>2026-04-22T17:14:13.022Z</time></trkpt><trkpt lat="44.6677275" lon="10.5877035"><ele>84.5</ele><time>2026-04-22T17:14:15.021Z</time></trkpt><trkpt lat="44.6676528" lon="10.5876504"><ele>85.0</ele><time>2026-04-22T17:14:17.021Z</time></trkpt><trkpt lat="44.667583" lon="10.5875941"><ele>85.5</ele><time>2026-04-22T17:14:19.022Z</time></trkpt><trkpt lat="44.6675047" lon="10.5875433"><ele>86.0</ele><time>2026-04-22T17:14:21.022Z</time></trkpt><trkpt lat="44.6674325" lon="10.5874935"><ele>86.5</ele><time>2026-04-22T17:14:23.021Z</time></trkpt><trkpt lat="44.6673626" lon="10.5874429"><ele>87.0</ele><time>2026-04-22T17:14:25.021Z</time></trkpt><trkpt lat="44.6672958" lon="10.587403"><ele>87.0</ele><time>2026-04-22T17:14:27.021Z</time></trkpt><trkpt lat="44.667225" lon="10.5873846"><ele>87.0</ele><time>2026-04-22T17:14:29.021Z</time></trkpt><trkpt lat="44.6671527" lon="10.587359"><ele>87.0</ele><time>2026-04-22T17:14:31.022Z</time></trkpt><trkpt lat="44.6670676" lon="10.5873095"><ele>87.0</ele><time>2026-04-22T17:14:33.021Z</time></trkpt><trkpt lat="44.6669672" lon="10.5872858"><ele>87.0</ele><time>2026-04-22T17:14:35.021Z</time></trkpt><trkpt lat="44.6668924" lon="10.5872655"><ele>87.0</ele><time>2026-04-22T17:14:37.022Z</time></trkpt><trkpt lat="44.6668233" lon="10.5872364"><ele>86.83333333333333</ele><time>2026-04-22T17:14:39.021Z</time></trkpt><trkpt lat="44.6667471" lon="10.5871995"><ele>86.66666666666667</ele><time>2026-04-22T17:14:41.022Z</time></trkpt><trkpt lat="44.6666705" lon="10.5871544"><ele>86.5</ele><time>2026-04-22T17:14:43.021Z</time></trkpt><trkpt lat="44.6665888" lon="10.5871089"><ele>86.33333333333334</ele><time>2026-04-22T17:14:45.021Z</time></trkpt><trkpt lat="44.6665122" lon="10.5870687"><ele>86.16666666666667</ele><time>2026-04-22T17:14:47.022Z</time></trkpt><trkpt lat="44.6664392" lon="10.5870336"><ele>86.0</ele><time>2026-04-22T17:14:49.021Z</time></trkpt><trkpt lat="44.6663665" lon="10.5869942"><ele>86.33333333333334</ele><time>2026-04-22T17:14:51.021Z</time></trkpt><trkpt lat="44.6662949" lon="10.5869585"><ele>86.66666666666667</ele><time>2026-04-22T17:14:53.021Z</time></trkpt><trkpt lat="44.6662215" lon="10.586927"><ele>87.0</ele><time>2026-04-22T17:14:55.021Z</time></trkpt><trkpt lat="44.6661401" lon="10.5868951"><ele>87.33333333333333</ele><time>2026-04-22T17:14:57.021Z</time></trkpt><trkpt lat="44.6660618" lon="10.5868597"><ele>87.66666666666666</ele><time>2026-04-22T17:14:59.021Z</time></trkpt><trkpt lat="44.6659849" lon="10.5868272"><ele>88.0</ele><time>2026-04-22T17:15:01.022Z</time></trkpt><trkpt lat="44.6659115" lon="10.5867923"><ele>88.16666666666666</ele><time>2026-04-22T17:15:03.021Z</time></trkpt><trkpt lat="44.6658333" lon="10.5867569"><ele>88.33333333333333</ele><time>2026-04-22T17:15:05.022Z</time></trkpt><trkpt lat="44.6657521" lon="10.5867199"><ele>88.5</ele><time>2026-04-22T17:15:07.021Z</time></trkpt><trkpt lat="44.6656701" lon="10.5866804"><ele>88.66666666666667</ele><time>2026-04-22T17:15:09.022Z</time></trkpt><trkpt lat="44.6655915" lon="10.5866517"><ele>88.83333333333334</ele><time>2026-04-22T17:15:11.022Z</time></trkpt><trkpt lat="44.6655106" lon="10.5866217"><ele>89.0</ele><time>2026-04-22T17:15:13.022Z</time></trkpt><trkpt lat="44.665425" lon="10.5865851"><ele>89.0</ele><time>2026-04-22T17:15:15.022Z</time></trkpt><trkpt lat="44.6653135" lon="10.5865564"><ele>89.0</ele><time>2026-04-22T17:15:17.021Z</time></trkpt><trkpt lat="44.6651997" lon="10.5865339"><ele>89.0</ele><time>2026-04-22T17:15:19.022Z</time></trkpt><trkpt lat="44.6651045" lon="10.5864916"><ele>89.0</ele><time>2026-04-22T17:15:21.022Z</time></trkpt><trkpt lat="44.6650166" lon="10.5864616"><ele>89.0</ele><time>2026-04-22T17:15:23.021Z</time></trkpt><trkpt lat="44.6649335" lon="10.5864342"><ele>88.57142857142857</ele><time>2026-04-22T17:15:25.022Z</time></trkpt><trkpt lat="44.6648577" lon="10.586404"><ele>88.14285714285714</ele><time>2026-04-22T17:15:27.021Z</time></trkpt><trkpt lat="44.6647879" lon="10.5863827"><ele>87.71428571428572</ele><time>2026-04-22T17:15:29.022Z</time></trkpt><trkpt lat="44.6647202" lon="10.5863515"><ele>87.28571428571428</ele><time>2026-04-22T17:15:31.021Z</time></trkpt><trkpt lat="44.6646503" lon="10.5863232"><ele>86.85714285714286</ele><time>2026-04-22T17:15:33.022Z</time></trkpt><trkpt lat="44.6645782" lon="10.5862845"><ele>86.42857142857143</ele><time>2026-04-22T17:15:35.022Z</time></trkpt><trkpt lat="44.6645101" lon="10.5862529"><ele>86.0</ele><time>2026-04-22T17:15:37.022Z</time></trkpt><trkpt lat="44.6644413" lon="10.5862264"><ele>85.85714285714286</ele><time>2026-04-22T17:15:39.021Z</time></trkpt><trkpt lat="44.6643729" lon="10.5861938"><ele>85.71428571428572</ele><time>2026-04-22T17:15:41.021Z</time></trkpt><trkpt lat="44.6643111" lon="10.5861605"><ele>85.57142857142858</ele><time>2026-04-22T17:15:43.021Z</time></trkpt><trkpt lat="44.664245" lon="10.5861285"><ele>85.42857142857143</ele><time>2026-04-22T17:15:45.021Z</time></trkpt><trkpt lat="44.6641777" lon="10.5861101"><ele>85.28571428571428</ele><time>2026-04-22T17:15:47.022Z</time></trkpt><trkpt lat="44.6641066" lon="10.586082"><ele>85.14285714285715</ele><time>2026-04-22T17:15:49.022Z</time></trkpt><trkpt lat="44.6640349" lon="10.5860555"><ele>85.0</ele><time>2026-04-22T17:15:51.022Z</time></trkpt><trkpt lat="44.6639666" lon="10.5860297"><ele>85.42857142857143</ele><time>2026-04-22T17:15:53.021Z</time></trkpt><trkpt lat="44.6638923" lon="10.5860059"><ele>85.85714285714285</ele><time>2026-04-22T17:15:55.021Z</time></trkpt><trkpt lat="44.6638205" lon="10.5859845"><ele>86.28571428571428</ele><time>2026-04-22T17:15:57.022Z</time></trkpt><trkpt lat="44.6637482" lon="10.5859606"><ele>86.71428571428572</ele><time>2026-04-22T17:15:59.021Z</time></trkpt><trkpt lat="44.6636735" lon="10.5859352"><ele>87.14285714285714</ele><time>2026-04-22T17:16:01.021Z</time></trkpt><trkpt lat="44.6636029" lon="10.5859158"><ele>87.57142857142857</ele><time>2026-04-22T17:16:03.022Z</time></trkpt><trkpt lat="44.6635328" lon="10.5858953"><ele>88.0</ele><time>2026-04-22T17:16:05.021Z</time></trkpt><trkpt lat="44.6634619" lon="10.5858687"><ele>88.71428571428572</ele><time>2026-04-22T17:16:07.021Z</time></trkpt><trkpt lat="44.6633983" lon="10.5858475"><ele>89.42857142857143</ele><time>2026-04-22T17:16:09.021Z</time></trkpt><trkpt lat="44.6633007" lon="10.5858352"><ele>90.14285714285714</ele><time>2026-04-22T17:16:12.021Z</time></trkpt><trkpt lat="44.6632286" lon="10.5858181"><ele>90.85714285714286</ele><time>2026-04-22T17:16:14.022Z</time></trkpt><trkpt lat="44.663161" lon="10.5858064"><ele>91.57142857142857</ele><time>2026-04-22T17:16:16.022Z</time></trkpt><trkpt lat="44.6630965" lon="10.585805"><ele>92.28571428571429</ele><time>2026-04-22T17:16:18.021Z</time></trkpt><trkpt lat="44.6630265" lon="10.58582"><ele>93.0</ele><time>2026-04-22T17:16:20.022Z</time></trkpt><trkpt lat="44.6629496" lon="10.5858869"><ele>93.0</ele><time>2026-04-22T17:16:23.023Z</time></trkpt><trkpt lat="44.6629049" lon="10.5859575"><ele>93.0</ele><time>2026-04-22T17:16:25.022Z</time></trkpt><trkpt lat="44.6628697" lon="10.5860448"><ele>93.0</ele><time>2026-04-22T17:16:27.022Z</time></trkpt><trkpt lat="44.6628287" lon="10.5861288"><ele>93.0</ele><time>2026-04-22T17:16:29.023Z</time></trkpt><trkpt lat="44.6627557" lon="10.5861662"><ele>93.0</ele><time>2026-04-22T17:16:31.023Z</time></trkpt><trkpt lat="44.6626781" lon="10.5861386"><ele>93.0</ele><time>2026-04-22T17:16:33.023Z</time></trkpt><trkpt lat="44.6626074" lon="10.5860818"><ele>93.0</ele><time>2026-04-22T17:16:35.022Z</time></trkpt><trkpt lat="44.6625285" lon="10.5860258"><ele>93.0</ele><time>2026-04-22T17:16:37.023Z</time></trkpt><trkpt lat="44.6624517" lon="10.5859769"><ele>93.0</ele><time>2026-04-22T17:16:39.023Z</time></trkpt><trkpt lat="44.6623725" lon="10.5859269"><ele>93.0</ele><time>2026-04-22T17:16:41.022Z</time></trkpt><trkpt lat="44.6622916" lon="10.5858784"><ele>93.0</ele><time>2026-04-22T17:16:43.022Z</time></trkpt><trkpt lat="44.6622173" lon="10.58583"><ele>93.0</ele><time>2026-04-22T17:16:45.023Z</time></trkpt><trkpt lat="44.6621706" lon="10.5857443"><ele>93.00000000000001</ele><time>2026-04-22T17:16:47.023Z</time></trkpt><trkpt lat="44.6621797" lon="10.585644"><ele>93.0</ele><time>2026-04-22T17:16:49.023Z</time></trkpt><trkpt lat="44.6622062" lon="10.585561"><ele>93.0</ele><time>2026-04-22T17:16:51.022Z</time></trkpt><trkpt lat="44.6622419" lon="10.5854761"><ele>93.0</ele><time>2026-04-22T17:16:53.023Z</time></trkpt><trkpt lat="44.6622784" lon="10.5853903"><ele>93.0</ele><time>2026-04-22T17:16:55.023Z</time></trkpt><trkpt lat="44.662294" lon="10.585287"><ele>93.00000000000001</ele><time>2026-04-22T17:16:57.023Z</time></trkpt><trkpt lat="44.6622707" lon="10.5851921"><ele>93.0</ele><time>2026-04-22T17:16:59.022Z</time></trkpt><trkpt lat="44.6622129" lon="10.5851498"><ele>93.42857142857143</ele><time>2026-04-22T17:17:01.023Z</time></trkpt><trkpt lat="44.6621436" lon="10.585131"><ele>93.85714285714286</ele><time>2026-04-22T17:17:03.022Z</time></trkpt><trkpt lat="44.6620815" lon="10.5850945"><ele>94.28571428571428</ele><time>2026-04-22T17:17:05.022Z</time></trkpt><trkpt lat="44.6620233" lon="10.5850503"><ele>94.71428571428572</ele><time>2026-04-22T17:17:07.023Z</time></trkpt><trkpt lat="44.6619689" lon="10.5849902"><ele>95.14285714285714</ele><time>2026-04-22T17:17:09.022Z</time></trkpt><trkpt lat="44.661912" lon="10.584929"><ele>95.57142857142857</ele><time>2026-04-22T17:17:11.022Z</time></trkpt><trkpt lat="44.6618431" lon="10.5849418"><ele>96.0</ele><time>2026-04-22T17:17:13.022Z</time></trkpt><trkpt lat="44.6617955" lon="10.5850029"><ele>96.16666666666667</ele><time>2026-04-22T17:17:15.022Z</time></trkpt><trkpt lat="44.6617596" lon="10.585099"><ele>96.33333333333334</ele><time>2026-04-22T17:17:18.023Z</time></trkpt><trkpt lat="44.6617261" lon="10.5851971"><ele>96.5</ele><time>2026-04-22T17:17:21.022Z</time></trkpt><trkpt lat="44.661686" lon="10.5852941"><ele>96.66666666666667</ele><time>2026-04-22T17:17:24.022Z</time></trkpt><trkpt lat="44.6616467" lon="10.585392"><ele>96.83333333333334</ele><time>2026-04-22T17:17:27.023Z</time></trkpt><trkpt lat="44.6616069" lon="10.5854915"><ele>97.0</ele><time>2026-04-22T17:17:30.022Z</time></trkpt><trkpt lat="44.6615639" lon="10.5855932"><ele>96.66666666666667</ele><time>2026-04-22T17:17:33.022Z</time></trkpt><trkpt lat="44.6615309" lon="10.5856848"><ele>96.33333333333334</ele><time>2026-04-22T17:17:36.022Z</time></trkpt><trkpt lat="44.6614907" lon="10.585785"><ele>96.0</ele><time>2026-04-22T17:17:39.023Z</time></trkpt><trkpt lat="44.6614182" lon="10.5858454"><ele>95.66666666666667</ele><time>2026-04-22T17:17:42.022Z</time></trkpt><trkpt lat="44.6613349" lon="10.5858563"><ele>95.33333333333334</ele><time>2026-04-22T17:17:45.023Z</time></trkpt><trkpt lat="44.6612502" lon="10.5858618"><ele>95.0</ele><time>2026-04-22T17:17:48.022Z</time></trkpt><trkpt lat="44.6611634" lon="10.5858571"><ele>95.16666666666667</ele><time>2026-04-22T17:17:51.022Z</time></trkpt><trkpt lat="44.661069" lon="10.5858579"><ele>95.33333333333334</ele><time>2026-04-22T17:17:54.022Z</time></trkpt><trkpt lat="44.6610052" lon="10.5858645"><ele>95.5</ele><time>2026-04-22T17:17:56.023Z</time></trkpt><trkpt lat="44.6609115" lon="10.5858665"><ele>95.66666666666667</ele><time>2026-04-22T17:17:59.023Z</time></trkpt><trkpt lat="44.6608438" lon="10.5858701"><ele>95.83333333333333</ele><time>2026-04-22T17:18:01.022Z</time></trkpt><trkpt lat="44.6607736" lon="10.5858811"><ele>96.0</ele><time>2026-04-22T17:18:03.022Z</time></trkpt><trkpt lat="44.6607019" lon="10.5858821"><ele>95.99999999999999</ele><time>2026-04-22T17:18:05.022Z</time></trkpt><trkpt lat="44.6606275" lon="10.5858893"><ele>96.0</ele><time>2026-04-22T17:18:07.022Z</time></trkpt><trkpt lat="44.6605518" lon="10.5858874"><ele>96.0</ele><time>2026-04-22T17:18:09.023Z</time></trkpt><trkpt lat="44.6604834" lon="10.5858806"><ele>96.0</ele><time>2026-04-22T17:18:11.023Z</time></trkpt><trkpt lat="44.6604198" lon="10.5858755"><ele>96.0</ele><time>2026-04-22T17:18:13.023Z</time></trkpt><trkpt lat="44.6603541" lon="10.5858854"><ele>95.99999999999999</ele><time>2026-04-22T17:18:15.023Z</time></trkpt><trkpt lat="44.6602895" lon="10.5859112"><ele>96.0</ele><time>2026-04-22T17:18:17.022Z</time></trkpt><trkpt lat="44.6602116" lon="10.5859617"><ele>96.5</ele><time>2026-04-22T17:18:20.022Z</time></trkpt><trkpt lat="44.6601446" lon="10.5859605"><ele>97.0</ele><time>2026-04-22T17:18:22.023Z</time></trkpt><trkpt lat="44.6600674" lon="10.5859481"><ele>97.5</ele><time>2026-04-22T17:18:24.022Z</time></trkpt><trkpt lat="44.6599934" lon="10.5859057"><ele>98.0</ele><time>2026-04-22T17:18:26.022Z</time></trkpt><trkpt lat="44.6599262" lon="10.5858744"><ele>98.5</ele><time>2026-04-22T17:18:28.023Z</time></trkpt><trkpt lat="44.6598418" lon="10.5858489"><ele>99.0</ele><time>2026-04-22T17:18:31.023Z</time></trkpt><trkpt lat="44.659767" lon="10.5858426"><ele>99.0</ele><time>2026-04-22T17:18:34.023Z</time></trkpt><trkpt lat="44.6596867" lon="10.5858243"><ele>99.0</ele><time>2026-04-22T17:18:37.022Z</time></trkpt><trkpt lat="44.6595996" lon="10.585865"><ele>99.0</ele><time>2026-04-22T17:18:44.022Z</time></trkpt><trkpt lat="44.6595551" lon="10.5859508"><ele>99.0</ele><time>2026-04-22T17:18:46.022Z</time></trkpt><trkpt lat="44.6595275" lon="10.5860738"><ele>99.0</ele><time>2026-04-22T17:18:48.022Z</time></trkpt><trkpt lat="44.6595071" lon="10.5862256"><ele>98.75</ele><time>2026-04-22T17:18:50.022Z</time></trkpt><trkpt lat="44.659462" lon="10.586378"><ele>98.5</ele><time>2026-04-22T17:18:52.023Z</time></trkpt><trkpt lat="44.6594196" lon="10.5865383"><ele>98.25</ele><time>2026-04-22T17:18:54.022Z</time></trkpt><trkpt lat="44.6593659" lon="10.5867062"><ele>98.0</ele><time>2026-04-22T17:18:56.022Z</time></trkpt><trkpt lat="44.6593199" lon="10.5868553"><ele>98.0</ele><time>2026-04-22T17:18:58.022Z</time></trkpt><trkpt lat="44.6592981" lon="10.5869411"><ele>98.0</ele><time>2026-04-22T17:18:59.023Z</time></trkpt><trkpt lat="44.6592531" lon="10.5870924"><ele>98.0</ele><time>2026-04-22T17:19:01.022Z</time></trkpt><trkpt lat="44.6592169" lon="10.5872545"><ele>98.0</ele><time>2026-04-22T17:19:03.022Z</time></trkpt><trkpt lat="44.6591683" lon="10.5874073"><ele>98.0</ele><time>2026-04-22T17:19:05.022Z</time></trkpt><trkpt lat="44.6591473" lon="10.5874908"><ele>97.80000000000001</ele><time>2026-04-22T17:19:06.023Z</time></trkpt><trkpt lat="44.6591068" lon="10.5876469"><ele>97.6</ele><time>2026-04-22T17:19:08.023Z</time></trkpt><trkpt lat="44.6590565" lon="10.5877602"><ele>97.4</ele><time>2026-04-22T17:19:10.022Z</time></trkpt><trkpt lat="44.6589598" lon="10.5877731"><ele>97.19999999999999</ele><time>2026-04-22T17:19:12.023Z</time></trkpt><trkpt lat="44.6588489" lon="10.5877396"><ele>97.0</ele><time>2026-04-22T17:19:14.023Z</time></trkpt><trkpt lat="44.6587316" lon="10.5877183"><ele>97.0</ele><time>2026-04-22T17:19:16.023Z</time></trkpt><trkpt lat="44.658611" lon="10.5876912"><ele>97.0</ele><time>2026-04-22T17:19:18.023Z</time></trkpt><trkpt lat="44.6584956" lon="10.5876481"><ele>97.0</ele><time>2026-04-22T17:19:20.022Z</time></trkpt><trkpt lat="44.6583666" lon="10.5875967"><ele>97.0</ele><time>2026-04-22T17:19:22.023Z</time></trkpt><trkpt lat="44.6583053" lon="10.5875613"><ele>97.0</ele><time>2026-04-22T17:19:23.022Z</time></trkpt><trkpt lat="44.6582378" lon="10.5875503"><ele>97.00000000000001</ele><time>2026-04-22T17:19:24.023Z</time></trkpt><trkpt lat="44.6581437" lon="10.5875682"><ele>97.0</ele><time>2026-04-22T17:19:26.023Z</time></trkpt><trkpt lat="44.6580839" lon="10.5876446"><ele>97.0</ele><time>2026-04-22T17:19:29.022Z</time></trkpt><trkpt lat="44.6580207" lon="10.5876112"><ele>97.0</ele><time>2026-04-22T17:19:31.023Z</time></trkpt><trkpt lat="44.6579456" lon="10.5875614"><ele>97.00000000000001</ele><time>2026-04-22T17:19:33.022Z</time></trkpt><trkpt lat="44.657859" lon="10.5875144"><ele>97.0</ele><time>2026-04-22T17:19:35.022Z</time></trkpt><trkpt lat="44.6577916" lon="10.5874663"><ele>96.6</ele><time>2026-04-22T17:19:37.023Z</time></trkpt><trkpt lat="44.657715" lon="10.5873672"><ele>96.19999999999999</ele><time>2026-04-22T17:19:39.023Z</time></trkpt><trkpt lat="44.6576883" lon="10.5872419"><ele>95.8</ele><time>2026-04-22T17:19:41.022Z</time></trkpt><trkpt lat="44.6576916" lon="10.5871169"><ele>95.4</ele><time>2026-04-22T17:19:43.022Z</time></trkpt><trkpt lat="44.6576393" lon="10.5870042"><ele>95.0</ele><time>2026-04-22T17:19:45.022Z</time></trkpt><trkpt lat="44.657543" lon="10.586959"><ele>95.0</ele><time>2026-04-22T17:19:47.022Z</time></trkpt><trkpt lat="44.6574477" lon="10.5869011"><ele>95.0</ele><time>2026-04-22T17:19:49.022Z</time></trkpt><trkpt lat="44.6573579" lon="10.5868347"><ele>95.0</ele><time>2026-04-22T17:19:51.023Z</time></trkpt><trkpt lat="44.657267" lon="10.5867579"><ele>95.0</ele><time>2026-04-22T17:19:53.022Z</time></trkpt><trkpt lat="44.6571796" lon="10.5866589"><ele>95.0</ele><time>2026-04-22T17:19:55.022Z</time></trkpt><trkpt lat="44.6571005" lon="10.5865608"><ele>95.0</ele><time>2026-04-22T17:19:57.023Z</time></trkpt><trkpt lat="44.6570389" lon="10.5864438"><ele>95.0</ele><time>2026-04-22T17:19:59.023Z</time></trkpt><trkpt lat="44.6569796" lon="10.5863414"><ele>95.0</ele><time>2026-04-22T17:20:01.023Z</time></trkpt><trkpt lat="44.6569058" lon="10.5862252"><ele>95.0</ele><time>2026-04-22T17:20:03.023Z</time></trkpt><trkpt lat="44.6568263" lon="10.5860983"><ele>95.0</ele><time>2026-04-22T17:20:05.022Z</time></trkpt><trkpt lat="44.6567431" lon="10.5859767"><ele>95.6</ele><time>2026-04-22T17:20:07.022Z</time></trkpt><trkpt lat="44.6566761" lon="10.585866"><ele>96.2</ele><time>2026-04-22T17:20:09.023Z</time></trkpt><trkpt lat="44.6566154" lon="10.5857601"><ele>96.80000000000001</ele><time>2026-04-22T17:20:11.022Z</time></trkpt><trkpt lat="44.6565356" lon="10.5856759"><ele>97.4</ele><time>2026-04-22T17:20:13.022Z</time></trkpt><trkpt lat="44.656449" lon="10.5855922"><ele>98.0</ele><time>2026-04-22T17:20:15.022Z</time></trkpt><trkpt lat="44.6563562" lon="10.5854844"><ele>98.0</ele><time>2026-04-22T17:20:17.022Z</time></trkpt><trkpt lat="44.6562703" lon="10.5853735"><ele>98.0</ele><time>2026-04-22T17:20:19.023Z</time></trkpt><trkpt lat="44.6561884" lon="10.5852787"><ele>98.0</ele><time>2026-04-22T17:20:21.023Z</time></trkpt><trkpt lat="44.6561067" lon="10.5852061"><ele>98.0</ele><time>2026-04-22T17:20:23.023Z</time></trkpt><trkpt lat="44.6560364" lon="10.585126"><ele>98.0</ele><time>2026-04-22T17:20:25.023Z</time></trkpt><trkpt lat="44.6559732" lon="10.5850394"><ele>98.60000000000001</ele><time>2026-04-22T17:20:27.022Z</time></trkpt><trkpt lat="44.655911" lon="10.5849373"><ele>99.2</ele><time>2026-04-22T17:20:29.022Z</time></trkpt><trkpt lat="44.6558331" lon="10.5848613"><ele>99.8</ele><time>2026-04-22T17:20:31.023Z</time></trkpt><trkpt lat="44.6557498" lon="10.5847812"><ele>100.4</ele><time>2026-04-22T17:20:33.023Z</time></trkpt><trkpt lat="44.6556779" lon="10.5846903"><ele>101.0</ele><time>2026-04-22T17:20:35.023Z</time></trkpt><trkpt lat="44.6556034" lon="10.584598"><ele>101.16666666666666</ele><time>2026-04-22T17:20:37.023Z</time></trkpt><trkpt lat="44.6555332" lon="10.5845075"><ele>101.33333333333333</ele><time>2026-04-22T17:20:39.022Z</time></trkpt><trkpt lat="44.6554627" lon="10.5844313"><ele>101.5</ele><time>2026-04-22T17:20:41.022Z</time></trkpt><trkpt lat="44.6553959" lon="10.5843663"><ele>101.66666666666666</ele><time>2026-04-22T17:20:43.023Z</time></trkpt><trkpt lat="44.6553365" lon="10.5842941"><ele>101.83333333333333</ele><time>2026-04-22T17:20:45.022Z</time></trkpt><trkpt lat="44.6552571" lon="10.5842296"><ele>102.0</ele><time>2026-04-22T17:20:47.022Z</time></trkpt><trkpt lat="44.6551755" lon="10.5841723"><ele>101.39999999999999</ele><time>2026-04-22T17:20:49.022Z</time></trkpt><trkpt lat="44.6550772" lon="10.5841219"><ele>100.8</ele><time>2026-04-22T17:20:51.022Z</time></trkpt><trkpt lat="44.6549929" lon="10.5840827"><ele>100.2</ele><time>2026-04-22T17:20:53.022Z</time></trkpt><trkpt lat="44.6549156" lon="10.5840497"><ele>99.6</ele><time>2026-04-22T17:20:55.022Z</time></trkpt><trkpt lat="44.6548368" lon="10.5839975"><ele>99.0</ele><time>2026-04-22T17:20:57.023Z</time></trkpt><trkpt lat="44.6547543" lon="10.5839479"><ele>99.0</ele><time>2026-04-22T17:20:59.022Z</time></trkpt><trkpt lat="44.6546629" lon="10.5839003"><ele>99.0</ele><time>2026-04-22T17:21:01.023Z</time></trkpt><trkpt lat="44.654568" lon="10.5838543"><ele>99.0</ele><time>2026-04-22T17:21:03.022Z</time></trkpt><trkpt lat="44.6544863" lon="10.5838052"><ele>99.0</ele><time>2026-04-22T17:21:05.022Z</time></trkpt><trkpt lat="44.6544114" lon="10.5837468"><ele>99.0</ele><time>2026-04-22T17:21:07.022Z</time></trkpt><trkpt lat="44.6543355" lon="10.5837093"><ele>99.16666666666667</ele><time>2026-04-22T17:21:09.023Z</time></trkpt><trkpt lat="44.6542569" lon="10.5836711"><ele>99.33333333333334</ele><time>2026-04-22T17:21:11.023Z</time></trkpt><trkpt lat="44.6541869" lon="10.5836328"><ele>99.5</ele><time>2026-04-22T17:21:13.023Z</time></trkpt><trkpt lat="44.6541113" lon="10.583594"><ele>99.66666666666667</ele><time>2026-04-22T17:21:15.023Z</time></trkpt><trkpt lat="44.654033" lon="10.5835423"><ele>99.83333333333334</ele><time>2026-04-22T17:21:17.022Z</time></trkpt><trkpt lat="44.6539475" lon="10.5834829"><ele>100.0</ele><time>2026-04-22T17:21:19.022Z</time></trkpt><trkpt lat="44.6538542" lon="10.5834365"><ele>100.0</ele><time>2026-04-22T17:21:21.022Z</time></trkpt><trkpt lat="44.65376" lon="10.5833754"><ele>100.0</ele><time>2026-04-22T17:21:23.023Z</time></trkpt><trkpt lat="44.6536668" lon="10.5833244"><ele>100.0</ele><time>2026-04-22T17:21:25.022Z</time></trkpt><trkpt lat="44.6535795" lon="10.5832776"><ele>100.0</ele><time>2026-04-22T17:21:27.022Z</time></trkpt><trkpt lat="44.6535002" lon="10.5832401"><ele>100.0</ele><time>2026-04-22T17:21:29.022Z</time></trkpt><trkpt lat="44.6534255" lon="10.5832136"><ele>100.33333333333334</ele><time>2026-04-22T17:21:31.022Z</time></trkpt><trkpt lat="44.6533527" lon="10.5832042"><ele>100.66666666666667</ele><time>2026-04-22T17:21:33.022Z</time></trkpt><trkpt lat="44.6532781" lon="10.5831908"><ele>101.0</ele><time>2026-04-22T17:21:35.022Z</time></trkpt><trkpt lat="44.6531972" lon="10.5831902"><ele>101.33333333333334</ele><time>2026-04-22T17:21:37.022Z</time></trkpt><trkpt lat="44.6531127" lon="10.5831807"><ele>101.66666666666667</ele><time>2026-04-22T17:21:39.023Z</time></trkpt><trkpt lat="44.6530225" lon="10.5831743"><ele>102.0</ele><time>2026-04-22T17:21:41.023Z</time></trkpt><trkpt lat="44.6529337" lon="10.5831642"><ele>102.0</ele><time>2026-04-22T17:21:43.022Z</time></trkpt><trkpt lat="44.6528467" lon="10.5831755"><ele>102.0</ele><time>2026-04-22T17:21:45.022Z</time></trkpt><trkpt lat="44.6527687" lon="10.5831646"><ele>102.0</ele><time>2026-04-22T17:21:47.022Z</time></trkpt><trkpt lat="44.6526933" lon="10.583152"><ele>102.0</ele><time>2026-04-22T17:21:49.023Z</time></trkpt><trkpt lat="44.6526076" lon="10.5831526"><ele>102.0</ele><time>2026-04-22T17:21:52.023Z</time></trkpt><trkpt lat="44.6525429" lon="10.5831521"><ele>102.0</ele><time>2026-04-22T17:21:54.023Z</time></trkpt><trkpt lat="44.6524694" lon="10.583148"><ele>101.66666666666667</ele><time>2026-04-22T17:21:56.023Z</time></trkpt><trkpt lat="44.6523853" lon="10.5831354"><ele>101.33333333333334</ele><time>2026-04-22T17:21:58.023Z</time></trkpt><trkpt lat="44.6522842" lon="10.5831233"><ele>101.0</ele><time>2026-04-22T17:22:00.022Z</time></trkpt><trkpt lat="44.6521944" lon="10.5831636"><ele>100.66666666666667</ele><time>2026-04-22T17:22:02.022Z</time></trkpt><trkpt lat="44.6521348" lon="10.5831948"><ele>100.33333333333334</ele><time>2026-04-22T17:22:04.022Z</time></trkpt><trkpt lat="44.652058" lon="10.5831826"><ele>100.0</ele><time>2026-04-22T17:22:06.023Z</time></trkpt><trkpt lat="44.6519734" lon="10.5831552"><ele>100.0</ele><time>2026-04-22T17:22:08.022Z</time></trkpt><trkpt lat="44.6518788" lon="10.5831312"><ele>100.0</ele><time>2026-04-22T17:22:10.022Z</time></trkpt><trkpt lat="44.6517851" lon="10.5831288"><ele>100.0</ele><time>2026-04-22T17:22:12.023Z</time></trkpt><trkpt lat="44.6516842" lon="10.5831235"><ele>100.0</ele><time>2026-04-22T17:22:14.023Z</time></trkpt><trkpt lat="44.6516003" lon="10.5831425"><ele>100.0</ele><time>2026-04-22T17:22:16.023Z</time></trkpt><trkpt lat="44.6515136" lon="10.5831457"><ele>100.00000000000001</ele><time>2026-04-22T17:22:19.022Z</time></trkpt><trkpt lat="44.6514421" lon="10.5831402"><ele>100.0</ele><time>2026-04-22T17:22:21.022Z</time></trkpt><trkpt lat="44.6513704" lon="10.5831312"><ele>100.0</ele><time>2026-04-22T17:22:23.023Z</time></trkpt><trkpt lat="44.6512996" lon="10.5831064"><ele>100.0</ele><time>2026-04-22T17:22:25.023Z</time></trkpt><trkpt lat="44.6512245" lon="10.583099"><ele>100.00000000000001</ele><time>2026-04-22T17:22:27.022Z</time></trkpt><trkpt lat="44.6511382" lon="10.5830891"><ele>100.0</ele><time>2026-04-22T17:22:29.024Z</time></trkpt><trkpt lat="44.6510663" lon="10.5830808"><ele>100.6</ele><time>2026-04-22T17:22:31.024Z</time></trkpt><trkpt lat="44.6509783" lon="10.5830753"><ele>101.2</ele><time>2026-04-22T17:22:33.023Z</time></trkpt><trkpt lat="44.6508929" lon="10.583057"><ele>101.80000000000001</ele><time>2026-04-22T17:22:35.023Z</time></trkpt><trkpt lat="44.6507999" lon="10.5830525"><ele>102.4</ele><time>2026-04-22T17:22:37.024Z</time></trkpt><trkpt lat="44.6507087" lon="10.5830379"><ele>103.0</ele><time>2026-04-22T17:22:39.024Z</time></trkpt><trkpt lat="44.6506173" lon="10.5830436"><ele>103.00000000000001</ele><time>2026-04-22T17:22:41.024Z</time></trkpt><trkpt lat="44.6505343" lon="10.5830583"><ele>103.0</ele><time>2026-04-22T17:22:43.023Z</time></trkpt><trkpt lat="44.6504565" lon="10.583087"><ele>103.0</ele><time>2026-04-22T17:22:45.023Z</time></trkpt><trkpt lat="44.6503781" lon="10.583109"><ele>103.0</ele><time>2026-04-22T17:22:47.023Z</time></trkpt><trkpt lat="44.6502949" lon="10.5831292"><ele>103.00000000000001</ele><time>2026-04-22T17:22:49.023Z</time></trkpt><trkpt lat="44.6502201" lon="10.5831631"><ele>103.0</ele><time>2026-04-22T17:22:51.023Z</time></trkpt><trkpt lat="44.6501464" lon="10.5831747"><ele>103.2</ele><time>2026-04-22T17:22:53.023Z</time></trkpt><trkpt lat="44.6500635" lon="10.5831605"><ele>103.4</ele><time>2026-04-22T17:22:55.023Z</time></trkpt><trkpt lat="44.6499383" lon="10.5831225"><ele>103.60000000000001</ele><time>2026-04-22T17:22:57.023Z</time></trkpt><trkpt lat="44.6498704" lon="10.5831225"><ele>103.80000000000001</ele><time>2026-04-22T17:22:58.023Z</time></trkpt><trkpt lat="44.6498023" lon="10.5831241"><ele>104.0</ele><time>2026-04-22T17:22:59.023Z</time></trkpt><trkpt lat="44.6496875" lon="10.5831077"><ele>104.0</ele><time>2026-04-22T17:23:01.024Z</time></trkpt><trkpt lat="44.6495739" lon="10.5830967"><ele>104.0</ele><time>2026-04-22T17:23:03.024Z</time></trkpt><trkpt lat="44.6494664" lon="10.5830612"><ele>104.0</ele><time>2026-04-22T17:23:05.023Z</time></trkpt><trkpt lat="44.649371" lon="10.5830927"><ele>104.0</ele><time>2026-04-22T17:23:07.024Z</time></trkpt><trkpt lat="44.6493275" lon="10.5831959"><ele>104.0</ele><time>2026-04-22T17:23:09.023Z</time></trkpt><trkpt lat="44.6493033" lon="10.5833213"><ele>104.2</ele><time>2026-04-22T17:23:11.023Z</time></trkpt><trkpt lat="44.6492687" lon="10.5834463"><ele>104.4</ele><time>2026-04-22T17:23:13.024Z</time></trkpt><trkpt lat="44.6492287" lon="10.583583"><ele>104.6</ele><time>2026-04-22T17:23:15.024Z</time></trkpt><trkpt lat="44.6491554" lon="10.5836815"><ele>104.8</ele><time>2026-04-22T17:23:17.024Z</time></trkpt><trkpt lat="44.6490639" lon="10.5837342"><ele>105.0</ele><time>2026-04-22T17:23:19.023Z</time></trkpt><trkpt lat="44.6489526" lon="10.5837495"><ele>105.33333333333333</ele><time>2026-04-22T17:23:21.024Z</time></trkpt><trkpt lat="44.6488544" lon="10.5837699"><ele>105.66666666666666</ele><time>2026-04-22T17:23:23.023Z</time></trkpt><trkpt lat="44.6487701" lon="10.5837821"><ele>106.0</ele><time>2026-04-22T17:23:25.023Z</time></trkpt><trkpt lat="44.6486827" lon="10.5837679"><ele>106.33333333333333</ele><time>2026-04-22T17:23:27.024Z</time></trkpt><trkpt lat="44.6486048" lon="10.5837221"><ele>106.66666666666666</ele><time>2026-04-22T17:23:29.023Z</time></trkpt><trkpt lat="44.6485411" lon="10.5836651"><ele>107.0</ele><time>2026-04-22T17:23:31.024Z</time></trkpt><trkpt lat="44.6484736" lon="10.5836081"><ele>106.99999999999999</ele><time>2026-04-22T17:23:33.023Z</time></trkpt><trkpt lat="44.6484056" lon="10.5835636"><ele>107.0</ele><time>2026-04-22T17:23:35.023Z</time></trkpt><trkpt lat="44.6483271" lon="10.5835208"><ele>107.0</ele><time>2026-04-22T17:23:37.023Z</time></trkpt><trkpt lat="44.6482435" lon="10.5835008"><ele>107.0</ele><time>2026-04-22T17:23:39.023Z</time></trkpt><trkpt lat="44.6481569" lon="10.5834964"><ele>106.99999999999999</ele><time>2026-04-22T17:23:41.024Z</time></trkpt><trkpt lat="44.6480838" lon="10.5834961"><ele>107.0</ele><time>2026-04-22T17:23:43.024Z</time></trkpt><trkpt lat="44.6480112" lon="10.583487"><ele>106.99999999999999</ele><time>2026-04-22T17:23:45.023Z</time></trkpt><trkpt lat="44.6479374" lon="10.5834872"><ele>107.0</ele><time>2026-04-22T17:23:47.024Z</time></trkpt><trkpt lat="44.6478713" lon="10.583485"><ele>107.0</ele><time>2026-04-22T17:23:49.023Z</time></trkpt><trkpt lat="44.6477783" lon="10.5834629"><ele>107.0</ele><time>2026-04-22T17:23:52.024Z</time></trkpt><trkpt lat="44.6477033" lon="10.5834634"><ele>106.99999999999999</ele><time>2026-04-22T17:23:54.024Z</time></trkpt><trkpt lat="44.6476122" lon="10.5834541"><ele>107.0</ele><time>2026-04-22T17:23:56.024Z</time></trkpt><trkpt lat="44.647537" lon="10.5834447"><ele>107.49999999999999</ele><time>2026-04-22T17:23:58.024Z</time></trkpt><trkpt lat="44.6474498" lon="10.583447"><ele>108.0</ele><time>2026-04-22T17:24:01.023Z</time></trkpt><trkpt lat="44.6473813" lon="10.5834544"><ele>108.5</ele><time>2026-04-22T17:24:03.024Z</time></trkpt><trkpt lat="44.6473142" lon="10.5834566"><ele>109.0</ele><time>2026-04-22T17:24:05.024Z</time></trkpt><trkpt lat="44.6472448" lon="10.5834552"><ele>109.49999999999999</ele><time>2026-04-22T17:24:07.023Z</time></trkpt><trkpt lat="44.6471632" lon="10.5834402"><ele>110.0</ele><time>2026-04-22T17:24:09.024Z</time></trkpt><trkpt lat="44.6470881" lon="10.583409"><ele>109.99999999999999</ele><time>2026-04-22T17:24:11.023Z</time></trkpt><trkpt lat="44.6470022" lon="10.5833623"><ele>110.0</ele><time>2026-04-22T17:24:13.023Z</time></trkpt><trkpt lat="44.6469227" lon="10.5833115"><ele>110.0</ele><time>2026-04-22T17:24:15.023Z</time></trkpt><trkpt lat="44.6468555" lon="10.5833403"><ele>110.0</ele><time>2026-04-22T17:24:17.023Z</time></trkpt><trkpt lat="44.6468183" lon="10.5834646"><ele>109.99999999999999</ele><time>2026-04-22T17:24:20.024Z</time></trkpt><trkpt lat="44.6467989" lon="10.5835715"><ele>110.0</ele><time>2026-04-22T17:24:22.023Z</time></trkpt><trkpt lat="44.6467704" lon="10.5836841"><ele>110.33333333333333</ele><time>2026-04-22T17:24:24.024Z</time></trkpt><trkpt lat="44.6467355" lon="10.5838191"><ele>110.66666666666666</ele><time>2026-04-22T17:24:26.023Z</time></trkpt><trkpt lat="44.6467051" lon="10.5839398"><ele>111.0</ele><time>2026-04-22T17:24:28.023Z</time></trkpt><trkpt lat="44.6466756" lon="10.5840578"><ele>111.33333333333334</ele><time>2026-04-22T17:24:30.023Z</time></trkpt><trkpt lat="44.6466486" lon="10.5841616"><ele>111.66666666666667</ele><time>2026-04-22T17:24:32.024Z</time></trkpt><trkpt lat="44.6466322" lon="10.5842703"><ele>112.0</ele><time>2026-04-22T17:24:34.023Z</time></trkpt><trkpt lat="44.6466042" lon="10.5843629"><ele>112.00000000000001</ele><time>2026-04-22T17:24:36.023Z</time></trkpt><trkpt lat="44.6465389" lon="10.5844023"><ele>112.0</ele><time>2026-04-22T17:24:39.024Z</time></trkpt><trkpt lat="44.6464495" lon="10.5843982"><ele>112.0</ele><time>2026-04-22T17:24:42.023Z</time></trkpt><trkpt lat="44.6463661" lon="10.5843566"><ele>112.0</ele><time>2026-04-22T17:24:45.024Z</time></trkpt><trkpt lat="44.6462785" lon="10.5843295"><ele>112.00000000000001</ele><time>2026-04-22T17:24:48.023Z</time></trkpt><trkpt lat="44.64619" lon="10.5843155"><ele>112.0</ele><time>2026-04-22T17:24:51.023Z</time></trkpt><trkpt lat="44.6460986" lon="10.5843018"><ele>112.66666666666667</ele><time>2026-04-22T17:24:54.023Z</time></trkpt><trkpt lat="44.6460163" lon="10.5842838"><ele>113.33333333333334</ele><time>2026-04-22T17:24:57.023Z</time></trkpt><trkpt lat="44.6459537" lon="10.584266"><ele>114.0</ele><time>2026-04-22T17:24:59.023Z</time></trkpt><trkpt lat="44.645892" lon="10.584247"><ele>114.66666666666666</ele><time>2026-04-22T17:25:01.024Z</time></trkpt><trkpt lat="44.6458124" lon="10.5842227"><ele>115.33333333333333</ele><time>2026-04-22T17:25:04.023Z</time></trkpt><trkpt lat="44.6457349" lon="10.5841829"><ele>116.0</ele><time>2026-04-22T17:25:07.024Z</time></trkpt><trkpt lat="44.6456553" lon="10.5842133"><ele>115.99999999999999</ele><time>2026-04-22T17:25:10.024Z</time></trkpt><trkpt lat="44.6455701" lon="10.584207"><ele>116.0</ele><time>2026-04-22T17:25:13.023Z</time></trkpt><trkpt lat="44.6454805" lon="10.5841813"><ele>116.0</ele><time>2026-04-22T17:25:16.023Z</time></trkpt><trkpt lat="44.6454136" lon="10.5841672"><ele>116.0</ele><time>2026-04-22T17:25:19.024Z</time></trkpt><trkpt lat="44.6453571" lon="10.5842467"><ele>115.99999999999999</ele><time>2026-04-22T17:25:31.023Z</time></trkpt><trkpt lat="44.6452888" lon="10.5842375"><ele>116.0</ele><time>2026-04-22T17:25:35.024Z</time></trkpt><trkpt lat="44.6452198" lon="10.5842311"><ele>115.99999999999999</ele><time>2026-04-22T17:25:41.023Z</time></trkpt><trkpt lat="44.6451353" lon="10.5842214"><ele>116.0</ele><time>2026-04-22T17:25:44.024Z</time></trkpt><trkpt lat="44.6450691" lon="10.5841803"><ele>116.0</ele><time>2026-04-22T17:25:46.023Z</time></trkpt><trkpt lat="44.6449975" lon="10.5841426"><ele>116.0</ele><time>2026-04-22T17:25:48.023Z</time></trkpt><trkpt lat="44.6449212" lon="10.5841207"><ele>115.99999999999999</ele><time>2026-04-22T17:25:50.024Z</time></trkpt><trkpt lat="44.6448401" lon="10.5840976"><ele>116.0</ele><time>2026-04-22T17:25:52.023Z</time></trkpt><trkpt lat="44.6447634" lon="10.5840657"><ele>115.99999999999999</ele><time>2026-04-22T17:25:54.024Z</time></trkpt><trkpt lat="44.6446849" lon="10.58403"><ele>116.0</ele><time>2026-04-22T17:25:56.023Z</time></trkpt><trkpt lat="44.6446112" lon="10.5839812"><ele>116.0</ele><time>2026-04-22T17:25:58.023Z</time></trkpt><trkpt lat="44.6445424" lon="10.5839488"><ele>116.0</ele><time>2026-04-22T17:26:00.024Z</time></trkpt><trkpt lat="44.644467" lon="10.5839497"><ele>115.99999999999999</ele><time>2026-04-22T17:26:02.023Z</time></trkpt><trkpt lat="44.6443837" lon="10.583981"><ele>116.0</ele><time>2026-04-22T17:26:04.024Z</time></trkpt><trkpt lat="44.6443144" lon="10.5840036"><ele>116.33333333333333</ele><time>2026-04-22T17:26:06.023Z</time></trkpt><trkpt lat="44.6442475" lon="10.5840333"><ele>116.66666666666666</ele><time>2026-04-22T17:26:08.023Z</time></trkpt><trkpt lat="44.6441763" lon="10.5840576"><ele>117.0</ele><time>2026-04-22T17:26:10.024Z</time></trkpt><trkpt lat="44.6441067" lon="10.5840783"><ele>117.33333333333334</ele><time>2026-04-22T17:26:12.024Z</time></trkpt><trkpt lat="44.6440299" lon="10.5840953"><ele>117.66666666666667</ele><time>2026-04-22T17:26:14.023Z</time></trkpt><trkpt lat="44.6439519" lon="10.5841267"><ele>118.0</ele><time>2026-04-22T17:26:16.023Z</time></trkpt><trkpt lat="44.6438717" lon="10.5841399"><ele>118.00000000000001</ele><time>2026-04-22T17:26:18.023Z</time></trkpt><trkpt lat="44.6437888" lon="10.5841581"><ele>118.0</ele><time>2026-04-22T17:26:20.024Z</time></trkpt><trkpt lat="44.6437003" lon="10.5841925"><ele>118.0</ele><time>2026-04-22T17:26:22.023Z</time></trkpt><trkpt lat="44.6436146" lon="10.5842165"><ele>118.0</ele><time>2026-04-22T17:26:24.023Z</time></trkpt><trkpt lat="44.6435473" lon="10.5842396"><ele>118.00000000000001</ele><time>2026-04-22T17:26:26.023Z</time></trkpt><trkpt lat="44.6435153" lon="10.5843339"><ele>118.0</ele><time>2026-04-22T17:26:28.024Z</time></trkpt><trkpt lat="44.6435015" lon="10.5844781"><ele>117.66666666666667</ele><time>2026-04-22T17:26:30.024Z</time></trkpt><trkpt lat="44.6434785" lon="10.5846138"><ele>117.33333333333334</ele><time>2026-04-22T17:26:32.023Z</time></trkpt><trkpt lat="44.643456" lon="10.5847314"><ele>117.0</ele><time>2026-04-22T17:26:34.024Z</time></trkpt><trkpt lat="44.6434368" lon="10.5848505"><ele>116.66666666666666</ele><time>2026-04-22T17:26:36.023Z</time></trkpt><trkpt lat="44.6434107" lon="10.5849758"><ele>116.33333333333333</ele><time>2026-04-22T17:26:38.024Z</time></trkpt><trkpt lat="44.6433775" lon="10.5850794"><ele>116.0</ele><time>2026-04-22T17:26:40.024Z</time></trkpt><trkpt lat="44.6432929" lon="10.5850745"><ele>115.99999999999999</ele><time>2026-04-22T17:26:43.024Z</time></trkpt><trkpt lat="44.6432039" lon="10.5850778"><ele>116.0</ele><time>2026-04-22T17:26:45.024Z</time></trkpt><trkpt lat="44.6430788" lon="10.5850872"><ele>116.0</ele><time>2026-04-22T17:26:47.023Z</time></trkpt><trkpt lat="44.6430047" lon="10.5850836"><ele>116.0</ele><time>2026-04-22T17:26:48.024Z</time></trkpt><trkpt lat="44.6429294" lon="10.5850651"><ele>115.99999999999999</ele><time>2026-04-22T17:26:49.023Z</time></trkpt><trkpt lat="44.6428571" lon="10.585039"><ele>116.0</ele><time>2026-04-22T17:26:50.023Z</time></trkpt><trkpt lat="44.6427884" lon="10.5850159"><ele>115.14285714285715</ele><time>2026-04-22T17:26:51.024Z</time></trkpt><trkpt lat="44.6427162" lon="10.5849955"><ele>114.28571428571429</ele><time>2026-04-22T17:26:52.023Z</time></trkpt><trkpt lat="44.6426438" lon="10.5849704"><ele>113.42857142857143</ele><time>2026-04-22T17:26:53.023Z</time></trkpt><trkpt lat="44.6425736" lon="10.5849413"><ele>112.57142857142858</ele><time>2026-04-22T17:26:54.024Z</time></trkpt><trkpt lat="44.6425005" lon="10.5849122"><ele>111.71428571428572</ele><time>2026-04-22T17:26:55.024Z</time></trkpt><trkpt lat="44.6424267" lon="10.5848872"><ele>110.85714285714285</ele><time>2026-04-22T17:26:56.023Z</time></trkpt><trkpt lat="44.6423543" lon="10.5848586"><ele>110.0</ele><time>2026-04-22T17:26:57.023Z</time></trkpt><trkpt lat="44.6422859" lon="10.5848215"><ele>109.99999999999999</ele><time>2026-04-22T17:26:58.024Z</time></trkpt><trkpt lat="44.6422176" lon="10.5847889"><ele>110.0</ele><time>2026-04-22T17:26:59.023Z</time></trkpt><trkpt lat="44.6421541" lon="10.5847636"><ele>110.0</ele><time>2026-04-22T17:27:00.024Z</time></trkpt><trkpt lat="44.6420923" lon="10.5847358"><ele>110.0</ele><time>2026-04-22T17:27:01.023Z</time></trkpt><trkpt lat="44.641971" lon="10.5847056"><ele>109.99999999999999</ele><time>2026-04-22T17:27:03.023Z</time></trkpt><trkpt lat="44.6419039" lon="10.5846951"><ele>110.0</ele><time>2026-04-22T17:27:04.023Z</time></trkpt><trkpt lat="44.6418424" lon="10.5846672"><ele>109.6</ele><time>2026-04-22T17:27:05.023Z</time></trkpt><trkpt lat="44.6417295" lon="10.5845863"><ele>109.2</ele><time>2026-04-22T17:27:07.023Z</time></trkpt><trkpt lat="44.6416692" lon="10.5845458"><ele>108.80000000000001</ele><time>2026-04-22T17:27:08.023Z</time></trkpt><trkpt lat="44.6415736" lon="10.5844987"><ele>108.4</ele><time>2026-04-22T17:27:10.024Z</time></trkpt><trkpt lat="44.6414753" lon="10.5844716"><ele>108.0</ele><time>2026-04-22T17:27:12.023Z</time></trkpt><trkpt lat="44.6414045" lon="10.5844579"><ele>107.85714285714286</ele><time>2026-04-22T17:27:13.024Z</time></trkpt><trkpt lat="44.6413313" lon="10.5844342"><ele>107.71428571428571</ele><time>2026-04-22T17:27:14.024Z</time></trkpt><trkpt lat="44.6412596" lon="10.5843886"><ele>107.57142857142858</ele><time>2026-04-22T17:27:15.024Z</time></trkpt><trkpt lat="44.6411884" lon="10.5843456"><ele>107.42857142857143</ele><time>2026-04-22T17:27:16.024Z</time></trkpt><trkpt lat="44.6411204" lon="10.5843114"><ele>107.28571428571429</ele><time>2026-04-22T17:27:17.023Z</time></trkpt><trkpt lat="44.6410554" lon="10.5842785"><ele>107.14285714285715</ele><time>2026-04-22T17:27:18.024Z</time></trkpt><trkpt lat="44.6409886" lon="10.5842501"><ele>107.0</ele><time>2026-04-22T17:27:19.023Z</time></trkpt><trkpt lat="44.6408749" lon="10.5841939"><ele>107.0</ele><time>2026-04-22T17:27:21.023Z</time></trkpt><trkpt lat="44.6407609" lon="10.5841271"><ele>106.99999999999999</ele><time>2026-04-22T17:27:23.024Z</time></trkpt><trkpt lat="44.6406616" lon="10.5840688"><ele>106.99999999999999</ele><time>2026-04-22T17:27:25.024Z</time></trkpt><trkpt lat="44.6405545" lon="10.5840025"><ele>107.0</ele><time>2026-04-22T17:27:27.023Z</time></trkpt><trkpt lat="44.6404961" lon="10.5839685"><ele>107.0</ele><time>2026-04-22T17:27:28.024Z</time></trkpt><trkpt lat="44.6403806" lon="10.5839028"><ele>107.0</ele><time>2026-04-22T17:27:30.024Z</time></trkpt><trkpt lat="44.6403183" lon="10.5838598"><ele>106.99999999999999</ele><time>2026-04-22T17:27:31.024Z</time></trkpt><trkpt lat="44.6402085" lon="10.5837947"><ele>106.99999999999999</ele><time>2026-04-22T17:27:33.024Z</time></trkpt><trkpt lat="44.6401505" lon="10.5837602"><ele>107.0</ele><time>2026-04-22T17:27:34.024Z</time></trkpt><trkpt lat="44.6400506" lon="10.5837122"><ele>107.0</ele><time>2026-04-22T17:27:36.024Z</time></trkpt><trkpt lat="44.6399483" lon="10.5836661"><ele>108.19999999999999</ele><time>2026-04-22T17:27:38.023Z</time></trkpt><trkpt lat="44.6398545" lon="10.5835998"><ele>109.39999999999999</ele><time>2026-04-22T17:27:40.023Z</time></trkpt><trkpt lat="44.6398085" lon="10.5834794"><ele>110.60000000000001</ele><time>2026-04-22T17:27:42.024Z</time></trkpt><trkpt lat="44.6398026" lon="10.5833601"><ele>111.80000000000001</ele><time>2026-04-22T17:27:44.024Z</time></trkpt><trkpt lat="44.6397347" lon="10.5832998"><ele>113.0</ele><time>2026-04-22T17:27:46.024Z</time></trkpt><trkpt lat="44.639646" lon="10.5832897"><ele>113.0</ele><time>2026-04-22T17:27:48.023Z</time></trkpt><trkpt lat="44.6395569" lon="10.5833638"><ele>113.00000000000001</ele><time>2026-04-22T17:27:50.024Z</time></trkpt><trkpt lat="44.6394476" lon="10.5833802"><ele>113.00000000000001</ele><time>2026-04-22T17:27:52.023Z</time></trkpt><trkpt lat="44.6393468" lon="10.5833127"><ele>113.0</ele><time>2026-04-22T17:27:54.023Z</time></trkpt><trkpt lat="44.6392522" lon="10.5832413"><ele>113.0</ele><time>2026-04-22T17:27:56.023Z</time></trkpt><trkpt lat="44.6391554" lon="10.5831796"><ele>112.60000000000001</ele><time>2026-04-22T17:27:58.023Z</time></trkpt><trkpt lat="44.6390563" lon="10.5831318"><ele>112.20000000000002</ele><time>2026-04-22T17:28:00.023Z</time></trkpt><trkpt lat="44.6389686" lon="10.5830939"><ele>111.8</ele><time>2026-04-22T17:28:02.023Z</time></trkpt><trkpt lat="44.6388798" lon="10.5830536"><ele>111.4</ele><time>2026-04-22T17:28:04.024Z</time></trkpt><trkpt lat="44.6387811" lon="10.5829962"><ele>111.0</ele><time>2026-04-22T17:28:06.024Z</time></trkpt><trkpt lat="44.6386889" lon="10.582933"><ele>110.6</ele><time>2026-04-22T17:28:08.023Z</time></trkpt><trkpt lat="44.6385965" lon="10.5828731"><ele>110.19999999999999</ele><time>2026-04-22T17:28:10.023Z</time></trkpt><trkpt lat="44.6385047" lon="10.5828299"><ele>109.80000000000001</ele><time>2026-04-22T17:28:12.023Z</time></trkpt><trkpt lat="44.638412" lon="10.5827788"><ele>109.4</ele><time>2026-04-22T17:28:14.023Z</time></trkpt><trkpt lat="44.6383163" lon="10.5827295"><ele>109.0</ele><time>2026-04-22T17:28:16.023Z</time></trkpt><trkpt lat="44.6382255" lon="10.5826882"><ele>109.66666666666667</ele><time>2026-04-22T17:28:18.023Z</time></trkpt><trkpt lat="44.6381235" lon="10.582633"><ele>110.33333333333334</ele><time>2026-04-22T17:28:20.025Z</time></trkpt><trkpt lat="44.6380353" lon="10.5825801"><ele>111.0</ele><time>2026-04-22T17:28:22.025Z</time></trkpt><trkpt lat="44.6379595" lon="10.5825401"><ele>111.66666666666666</ele><time>2026-04-22T17:28:24.025Z</time></trkpt><trkpt lat="44.6378824" lon="10.5824902"><ele>112.33333333333333</ele><time>2026-04-22T17:28:26.024Z</time></trkpt><trkpt lat="44.6378088" lon="10.5824559"><ele>113.0</ele><time>2026-04-22T17:28:28.024Z</time></trkpt><trkpt lat="44.637733" lon="10.5824178"><ele>112.99999999999999</ele><time>2026-04-22T17:28:30.025Z</time></trkpt><trkpt lat="44.6376577" lon="10.5823685"><ele>113.0</ele><time>2026-04-22T17:28:32.025Z</time></trkpt><trkpt lat="44.6375824" lon="10.5823362"><ele>113.0</ele><time>2026-04-22T17:28:34.024Z</time></trkpt><trkpt lat="44.6375087" lon="10.5823223"><ele>113.0</ele><time>2026-04-22T17:28:36.025Z</time></trkpt><trkpt lat="44.6374332" lon="10.5823221"><ele>112.99999999999999</ele><time>2026-04-22T17:28:38.025Z</time></trkpt><trkpt lat="44.637367" lon="10.5824011"><ele>113.0</ele><time>2026-04-22T17:28:40.025Z</time></trkpt><trkpt lat="44.6373386" lon="10.582527"><ele>113.0</ele><time>2026-04-22T17:28:42.025Z</time></trkpt><trkpt lat="44.6373108" lon="10.5826661"><ele>113.00000000000001</ele><time>2026-04-22T17:28:44.025Z</time></trkpt><trkpt lat="44.6372774" lon="10.582797"><ele>113.00000000000001</ele><time>2026-04-22T17:28:46.024Z</time></trkpt><trkpt lat="44.6372458" lon="10.582928"><ele>113.0</ele><time>2026-04-22T17:28:48.024Z</time></trkpt><trkpt lat="44.6372167" lon="10.5830588"><ele>113.0</ele><time>2026-04-22T17:28:50.024Z</time></trkpt><trkpt lat="44.6371947" lon="10.5832057"><ele>112.60000000000001</ele><time>2026-04-22T17:28:52.025Z</time></trkpt><trkpt lat="44.6371695" lon="10.5833431"><ele>112.20000000000002</ele><time>2026-04-22T17:28:54.024Z</time></trkpt><trkpt lat="44.6371306" lon="10.5834659"><ele>111.8</ele><time>2026-04-22T17:28:56.025Z</time></trkpt><trkpt lat="44.6370931" lon="10.5835769"><ele>111.4</ele><time>2026-04-22T17:28:58.025Z</time></trkpt><trkpt lat="44.6370645" lon="10.5837014"><ele>111.0</ele><time>2026-04-22T17:29:00.025Z</time></trkpt><trkpt lat="44.6370487" lon="10.583813"><ele>110.6</ele><time>2026-04-22T17:29:02.025Z</time></trkpt><trkpt lat="44.6370347" lon="10.5839372"><ele>110.19999999999999</ele><time>2026-04-22T17:29:04.024Z</time></trkpt><trkpt lat="44.6370142" lon="10.584066"><ele>109.80000000000001</ele><time>2026-04-22T17:29:06.024Z</time></trkpt><trkpt lat="44.636982" lon="10.5841902"><ele>109.4</ele><time>2026-04-22T17:29:08.025Z</time></trkpt><trkpt lat="44.6368975" lon="10.584228"><ele>109.0</ele><time>2026-04-22T17:29:10.025Z</time></trkpt><trkpt lat="44.6368114" lon="10.5841901"><ele>108.83333333333334</ele><time>2026-04-22T17:29:12.024Z</time></trkpt><trkpt lat="44.6367282" lon="10.5841387"><ele>108.66666666666667</ele><time>2026-04-22T17:29:14.024Z</time></trkpt><trkpt lat="44.6366493" lon="10.5840993"><ele>108.5</ele><time>2026-04-22T17:29:16.024Z</time></trkpt><trkpt lat="44.6365731" lon="10.5840535"><ele>108.33333333333334</ele><time>2026-04-22T17:29:18.024Z</time></trkpt><trkpt lat="44.6364988" lon="10.5840175"><ele>108.16666666666667</ele><time>2026-04-22T17:29:20.025Z</time></trkpt><trkpt lat="44.6364262" lon="10.5839851"><ele>108.0</ele><time>2026-04-22T17:29:22.024Z</time></trkpt><trkpt lat="44.6363521" lon="10.5839523"><ele>108.0</ele><time>2026-04-22T17:29:24.025Z</time></trkpt><trkpt lat="44.6362591" lon="10.5839376"><ele>108.00000000000001</ele><time>2026-04-22T17:29:26.025Z</time></trkpt><trkpt lat="44.6361702" lon="10.5839186"><ele>108.00000000000001</ele><time>2026-04-22T17:29:28.024Z</time></trkpt><trkpt lat="44.6360762" lon="10.5838935"><ele>108.0</ele><time>2026-04-22T17:29:30.025Z</time></trkpt><trkpt lat="44.6359694" lon="10.583864"><ele>108.0</ele><time>2026-04-22T17:29:32.024Z</time></trkpt><trkpt lat="44.6358641" lon="10.5838414"><ele>108.2</ele><time>2026-04-22T17:29:34.025Z</time></trkpt><trkpt lat="44.6357608" lon="10.583783"><ele>108.4</ele><time>2026-04-22T17:29:36.024Z</time></trkpt><trkpt lat="44.63568" lon="10.5836919"><ele>108.60000000000001</ele><time>2026-04-22T17:29:38.025Z</time></trkpt><trkpt lat="44.6356237" lon="10.5835681"><ele>108.80000000000001</ele><time>2026-04-22T17:29:40.025Z</time></trkpt><trkpt lat="44.6355734" lon="10.5834355"><ele>109.0</ele><time>2026-04-22T17:29:42.025Z</time></trkpt><trkpt lat="44.6355203" lon="10.5833197"><ele>109.0</ele><time>2026-04-22T17:29:44.024Z</time></trkpt><trkpt lat="44.6354604" lon="10.5832208"><ele>109.0</ele><time>2026-04-22T17:29:46.025Z</time></trkpt><trkpt lat="44.6353856" lon="10.5831277"><ele>109.0</ele><time>2026-04-22T17:29:48.024Z</time></trkpt><trkpt lat="44.635309" lon="10.5830584"><ele>109.0</ele><time>2026-04-22T17:29:50.025Z</time></trkpt><trkpt lat="44.635235" lon="10.5829925"><ele>109.0</ele><time>2026-04-22T17:29:52.025Z</time></trkpt><trkpt lat="44.6351553" lon="10.5829179"><ele>109.6</ele><time>2026-04-22T17:29:54.025Z</time></trkpt><trkpt lat="44.6350838" lon="10.5828292"><ele>110.2</ele><time>2026-04-22T17:29:56.025Z</time></trkpt><trkpt lat="44.635004" lon="10.5827378"><ele>110.79999999999998</ele><time>2026-04-22T17:29:58.025Z</time></trkpt><trkpt lat="44.6349228" lon="10.5826458"><ele>111.39999999999999</ele><time>2026-04-22T17:30:00.025Z</time></trkpt><trkpt lat="44.6348502" lon="10.5825495"><ele>112.0</ele><time>2026-04-22T17:30:02.025Z</time></trkpt><trkpt lat="44.6347844" lon="10.5824385"><ele>112.0</ele><time>2026-04-22T17:30:04.024Z</time></trkpt><trkpt lat="44.6347136" lon="10.5823417"><ele>111.99999999999999</ele><time>2026-04-22T17:30:06.025Z</time></trkpt><trkpt lat="44.6346345" lon="10.5822494"><ele>111.99999999999999</ele><time>2026-04-22T17:30:08.025Z</time></trkpt><trkpt lat="44.6345586" lon="10.5821506"><ele>112.0</ele><time>2026-04-22T17:30:10.025Z</time></trkpt><trkpt lat="44.6344852" lon="10.5820574"><ele>112.0</ele><time>2026-04-22T17:30:12.024Z</time></trkpt><trkpt lat="44.6344133" lon="10.5819652"><ele>112.33333333333334</ele><time>2026-04-22T17:30:14.024Z</time></trkpt><trkpt lat="44.6343286" lon="10.5818816"><ele>112.66666666666667</ele><time>2026-04-22T17:30:16.024Z</time></trkpt><trkpt lat="44.634247" lon="10.581797"><ele>113.0</ele><time>2026-04-22T17:30:18.024Z</time></trkpt><trkpt lat="44.634174" lon="10.5817124"><ele>113.33333333333334</ele><time>2026-04-22T17:30:20.025Z</time></trkpt><trkpt lat="44.6341082" lon="10.5816782"><ele>113.66666666666667</ele><time>2026-04-22T17:30:22.025Z</time></trkpt><trkpt lat="44.634031" lon="10.5816687"><ele>114.0</ele><time>2026-04-22T17:30:24.024Z</time></trkpt><trkpt lat="44.6339333" lon="10.5816412"><ele>114.0</ele><time>2026-04-22T17:30:26.025Z</time></trkpt><trkpt lat="44.6338275" lon="10.5816006"><ele>114.0</ele><time>2026-04-22T17:30:28.024Z</time></trkpt><trkpt lat="44.6337191" lon="10.5815415"><ele>114.0</ele><time>2026-04-22T17:30:30.025Z</time></trkpt><trkpt lat="44.6336173" lon="10.581471"><ele>114.0</ele><time>2026-04-22T17:30:32.024Z</time></trkpt><trkpt lat="44.6335153" lon="10.5814078"><ele>114.0</ele><time>2026-04-22T17:30:34.024Z</time></trkpt><trkpt lat="44.6334168" lon="10.5813573"><ele>114.0</ele><time>2026-04-22T17:30:36.025Z</time></trkpt><trkpt lat="44.63332" lon="10.5812968"><ele>114.0</ele><time>2026-04-22T17:30:38.024Z</time></trkpt><trkpt lat="44.633222" lon="10.5812372"><ele>114.0</ele><time>2026-04-22T17:30:40.024Z</time></trkpt><trkpt lat="44.6331228" lon="10.5811837"><ele>114.0</ele><time>2026-04-22T17:30:42.025Z</time></trkpt><trkpt lat="44.6330216" lon="10.5811437"><ele>113.80000000000001</ele><time>2026-04-22T17:30:44.025Z</time></trkpt><trkpt lat="44.6329326" lon="10.5810841"><ele>113.60000000000001</ele><time>2026-04-22T17:30:46.025Z</time></trkpt><trkpt lat="44.6328439" lon="10.5810197"><ele>113.4</ele><time>2026-04-22T17:30:48.024Z</time></trkpt><trkpt lat="44.6327428" lon="10.5809588"><ele>113.2</ele><time>2026-04-22T17:30:50.025Z</time></trkpt><trkpt lat="44.6326519" lon="10.5809057"><ele>113.0</ele><time>2026-04-22T17:30:52.025Z</time></trkpt><trkpt lat="44.6325635" lon="10.5808578"><ele>112.80000000000001</ele><time>2026-04-22T17:30:54.024Z</time></trkpt><trkpt lat="44.6324771" lon="10.580798"><ele>112.60000000000001</ele><time>2026-04-22T17:30:56.024Z</time></trkpt><trkpt lat="44.6323909" lon="10.5807376"><ele>112.39999999999999</ele><time>2026-04-22T17:30:58.024Z</time></trkpt><trkpt lat="44.6323097" lon="10.5806737"><ele>112.19999999999999</ele><time>2026-04-22T17:31:00.024Z</time></trkpt><trkpt lat="44.6322266" lon="10.5806149"><ele>112.0</ele><time>2026-04-22T17:31:02.024Z</time></trkpt><trkpt lat="44.6321391" lon="10.5805547"><ele>112.0</ele><time>2026-04-22T17:31:04.025Z</time></trkpt><trkpt lat="44.6320488" lon="10.5804921"><ele>111.99999999999999</ele><time>2026-04-22T17:31:06.025Z</time></trkpt><trkpt lat="44.6319621" lon="10.5804207"><ele>111.99999999999999</ele><time>2026-04-22T17:31:08.024Z</time></trkpt><trkpt lat="44.6318734" lon="10.5803525"><ele>112.0</ele><time>2026-04-22T17:31:10.024Z</time></trkpt><trkpt lat="44.6317843" lon="10.5802922"><ele>112.0</ele><time>2026-04-22T17:31:12.025Z</time></trkpt><trkpt lat="44.631699" lon="10.580228"><ele>112.6</ele><time>2026-04-22T17:31:14.024Z</time></trkpt><trkpt lat="44.6315995" lon="10.5801558"><ele>113.19999999999999</ele><time>2026-04-22T17:31:16.025Z</time></trkpt><trkpt lat="44.6315132" lon="10.5800787"><ele>113.8</ele><time>2026-04-22T17:31:18.025Z</time></trkpt><trkpt lat="44.6314249" lon="10.5800053"><ele>114.4</ele><time>2026-04-22T17:31:20.025Z</time></trkpt><trkpt lat="44.6313356" lon="10.579935"><ele>115.0</ele><time>2026-04-22T17:31:22.025Z</time></trkpt><trkpt lat="44.631246" lon="10.5798627"><ele>115.0</ele><time>2026-04-22T17:31:24.024Z</time></trkpt><trkpt lat="44.6311651" lon="10.5798016"><ele>115.0</ele><time>2026-04-22T17:31:26.024Z</time></trkpt><trkpt lat="44.631074" lon="10.5797236"><ele>115.0</ele><time>2026-04-22T17:31:28.025Z</time></trkpt><trkpt lat="44.6309947" lon="10.5796538"><ele>115.0</ele><time>2026-04-22T17:31:30.025Z</time></trkpt><trkpt lat="44.6309264" lon="10.5795652"><ele>115.0</ele><time>2026-04-22T17:31:32.024Z</time></trkpt><trkpt lat="44.6308585" lon="10.5794641"><ele>114.8</ele><time>2026-04-22T17:31:34.024Z</time></trkpt><trkpt lat="44.6307983" lon="10.5793501"><ele>114.6</ele><time>2026-04-22T17:31:36.024Z</time></trkpt><trkpt lat="44.6307238" lon="10.5792304"><ele>114.4</ele><time>2026-04-22T17:31:38.024Z</time></trkpt><trkpt lat="44.6306451" lon="10.5791239"><ele>114.2</ele><time>2026-04-22T17:31:40.025Z</time></trkpt><trkpt lat="44.6305651" lon="10.5790144"><ele>114.0</ele><time>2026-04-22T17:31:42.024Z</time></trkpt><trkpt lat="44.6304783" lon="10.5789103"><ele>114.0</ele><time>2026-04-22T17:31:44.025Z</time></trkpt><trkpt lat="44.6304364" lon="10.5787625"><ele>114.0</ele><time>2026-04-22T17:31:46.025Z</time></trkpt><trkpt lat="44.630473" lon="10.5786097"><ele>114.0</ele><time>2026-04-22T17:31:48.025Z</time></trkpt><trkpt lat="44.6305508" lon="10.5785045"><ele>114.0</ele><time>2026-04-22T17:31:50.025Z</time></trkpt><trkpt lat="44.6305834" lon="10.5783919"><ele>114.0</ele><time>2026-04-22T17:31:52.025Z</time></trkpt><trkpt lat="44.6305299" lon="10.5782851"><ele>114.6</ele><time>2026-04-22T17:31:54.024Z</time></trkpt><trkpt lat="44.6304444" lon="10.578216"><ele>115.2</ele><time>2026-04-22T17:31:56.024Z</time></trkpt><trkpt lat="44.6303555" lon="10.5781415"><ele>115.79999999999998</ele><time>2026-04-22T17:31:58.024Z</time></trkpt><trkpt lat="44.6302719" lon="10.5780582"><ele>116.39999999999999</ele><time>2026-04-22T17:32:00.025Z</time></trkpt><trkpt lat="44.6301943" lon="10.5779763"><ele>117.0</ele><time>2026-04-22T17:32:02.025Z</time></trkpt><trkpt lat="44.6301112" lon="10.5779198"><ele>117.25</ele><time>2026-04-22T17:32:04.024Z</time></trkpt><trkpt lat="44.6300101" lon="10.5778842"><ele>117.5</ele><time>2026-04-22T17:32:06.024Z</time></trkpt><trkpt lat="44.6299034" lon="10.5778241"><ele>117.75</ele><time>2026-04-22T17:32:08.024Z</time></trkpt><trkpt lat="44.6298031" lon="10.5777391"><ele>118.0</ele><time>2026-04-22T17:32:10.025Z</time></trkpt><trkpt lat="44.6297104" lon="10.577643"><ele>118.0</ele><time>2026-04-22T17:32:12.025Z</time></trkpt><trkpt lat="44.6296181" lon="10.5775384"><ele>118.0</ele><time>2026-04-22T17:32:14.025Z</time></trkpt><trkpt lat="44.6295207" lon="10.5774573"><ele>118.0</ele><time>2026-04-22T17:32:16.024Z</time></trkpt><trkpt lat="44.6294173" lon="10.57738"><ele>118.0</ele><time>2026-04-22T17:32:18.024Z</time></trkpt><trkpt lat="44.6293216" lon="10.5773097"><ele>118.0</ele><time>2026-04-22T17:32:20.024Z</time></trkpt><trkpt lat="44.6292148" lon="10.5772645"><ele>118.00000000000001</ele><time>2026-04-22T17:32:22.025Z</time></trkpt><trkpt lat="44.6291088" lon="10.5772139"><ele>118.00000000000001</ele><time>2026-04-22T17:32:24.024Z</time></trkpt><trkpt lat="44.6290002" lon="10.5771602"><ele>118.0</ele><time>2026-04-22T17:32:26.024Z</time></trkpt><trkpt lat="44.6289121" lon="10.5770847"><ele>118.0</ele><time>2026-04-22T17:32:28.025Z</time></trkpt><trkpt lat="44.6288278" lon="10.5769907"><ele>118.4</ele><time>2026-04-22T17:32:30.025Z</time></trkpt><trkpt lat="44.62875" lon="10.5768859"><ele>118.80000000000001</ele><time>2026-04-22T17:32:32.025Z</time></trkpt><trkpt lat="44.6286775" lon="10.5767664"><ele>119.2</ele><time>2026-04-22T17:32:34.024Z</time></trkpt><trkpt lat="44.6286085" lon="10.5766468"><ele>119.6</ele><time>2026-04-22T17:32:36.025Z</time></trkpt><trkpt lat="44.6285351" lon="10.5765395"><ele>120.0</ele><time>2026-04-22T17:32:38.025Z</time></trkpt><trkpt lat="44.6284597" lon="10.5764287"><ele>120.2</ele><time>2026-04-22T17:32:40.024Z</time></trkpt><trkpt lat="44.6283867" lon="10.5763231"><ele>120.4</ele><time>2026-04-22T17:32:42.024Z</time></trkpt><trkpt lat="44.6283194" lon="10.5762168"><ele>120.6</ele><time>2026-04-22T17:32:44.024Z</time></trkpt><trkpt lat="44.6282523" lon="10.576115"><ele>120.8</ele><time>2026-04-22T17:32:46.024Z</time></trkpt><trkpt lat="44.6281836" lon="10.5760066"><ele>121.0</ele><time>2026-04-22T17:32:48.024Z</time></trkpt><trkpt lat="44.628104" lon="10.5758918"><ele>120.8</ele><time>2026-04-22T17:32:50.025Z</time></trkpt><trkpt lat="44.6280363" lon="10.5757707"><ele>120.6</ele><time>2026-04-22T17:32:52.024Z</time></trkpt><trkpt lat="44.6279812" lon="10.575647"><ele>120.4</ele><time>2026-04-22T17:32:54.025Z</time></trkpt><trkpt lat="44.6279331" lon="10.5755109"><ele>120.2</ele><time>2026-04-22T17:32:56.024Z</time></trkpt><trkpt lat="44.6278764" lon="10.5753803"><ele>120.0</ele><time>2026-04-22T17:32:58.025Z</time></trkpt><trkpt lat="44.6278283" lon="10.5752463"><ele>120.4</ele><time>2026-04-22T17:33:00.024Z</time></trkpt><trkpt lat="44.6277783" lon="10.5751048"><ele>120.8</ele><time>2026-04-22T17:33:02.024Z</time></trkpt><trkpt lat="44.6277326" lon="10.574979"><ele>121.19999999999999</ele><time>2026-04-22T17:33:04.024Z</time></trkpt><trkpt lat="44.6276896" lon="10.574842"><ele>121.6</ele><time>2026-04-22T17:33:06.024Z</time></trkpt><trkpt lat="44.6276372" lon="10.5747043"><ele>122.0</ele><time>2026-04-22T17:33:08.024Z</time></trkpt><trkpt lat="44.6275896" lon="10.5745746"><ele>121.8</ele><time>2026-04-22T17:33:10.025Z</time></trkpt><trkpt lat="44.6275414" lon="10.5744419"><ele>121.6</ele><time>2026-04-22T17:33:12.024Z</time></trkpt><trkpt lat="44.6274899" lon="10.5743083"><ele>121.39999999999999</ele><time>2026-04-22T17:33:14.025Z</time></trkpt><trkpt lat="44.6274427" lon="10.5741689"><ele>121.19999999999999</ele><time>2026-04-22T17:33:16.024Z</time></trkpt><trkpt lat="44.6274026" lon="10.5740198"><ele>121.0</ele><time>2026-04-22T17:33:18.024Z</time></trkpt><trkpt lat="44.6273805" lon="10.5738734"><ele>121.0</ele><time>2026-04-22T17:33:20.024Z</time></trkpt><trkpt lat="44.6273465" lon="10.5737453"><ele>121.0</ele><time>2026-04-22T17:33:22.024Z</time></trkpt><trkpt lat="44.6273086" lon="10.5736227"><ele>121.0</ele><time>2026-04-22T17:33:24.025Z</time></trkpt><trkpt lat="44.6272663" lon="10.5735015"><ele>121.0</ele><time>2026-04-22T17:33:26.025Z</time></trkpt><trkpt lat="44.6272311" lon="10.5733739"><ele>121.0</ele><time>2026-04-22T17:33:28.024Z</time></trkpt><trkpt lat="44.627211" lon="10.5732504"><ele>121.33333333333334</ele><time>2026-04-22T17:33:30.024Z</time></trkpt><trkpt lat="44.6272125" lon="10.5731241"><ele>121.66666666666667</ele><time>2026-04-22T17:33:32.024Z</time></trkpt><trkpt lat="44.6272034" lon="10.5730055"><ele>122.0</ele><time>2026-04-22T17:33:34.025Z</time></trkpt><trkpt lat="44.6272067" lon="10.5728884"><ele>122.33333333333334</ele><time>2026-04-22T17:33:36.025Z</time></trkpt><trkpt lat="44.6271982" lon="10.5727774"><ele>122.66666666666667</ele><time>2026-04-22T17:33:38.025Z</time></trkpt><trkpt lat="44.6271892" lon="10.572648"><ele>123.0</ele><time>2026-04-22T17:33:40.025Z</time></trkpt><trkpt lat="44.6271727" lon="10.5725124"><ele>123.4</ele><time>2026-04-22T17:33:42.025Z</time></trkpt><trkpt lat="44.6271621" lon="10.5723722"><ele>123.80000000000001</ele><time>2026-04-22T17:33:44.025Z</time></trkpt><trkpt lat="44.6271524" lon="10.5722335"><ele>124.2</ele><time>2026-04-22T17:33:46.026Z</time></trkpt><trkpt lat="44.6271384" lon="10.5720967"><ele>124.6</ele><time>2026-04-22T17:33:48.025Z</time></trkpt><trkpt lat="44.6271205" lon="10.5719644"><ele>125.0</ele><time>2026-04-22T17:33:50.025Z</time></trkpt><trkpt lat="44.6271029" lon="10.5718298"><ele>125.0</ele><time>2026-04-22T17:33:52.026Z</time></trkpt><trkpt lat="44.6270929" lon="10.5716906"><ele>125.0</ele><time>2026-04-22T17:33:54.026Z</time></trkpt><trkpt lat="44.6270718" lon="10.5715582"><ele>125.0</ele><time>2026-04-22T17:33:56.026Z</time></trkpt><trkpt lat="44.6270565" lon="10.5714133"><ele>125.0</ele><time>2026-04-22T17:33:58.025Z</time></trkpt><trkpt lat="44.6270494" lon="10.571284"><ele>125.0</ele><time>2026-04-22T17:34:00.025Z</time></trkpt><trkpt lat="44.6270484" lon="10.5711574"><ele>125.0</ele><time>2026-04-22T17:34:02.026Z</time></trkpt><trkpt lat="44.6270275" lon="10.5710202"><ele>125.0</ele><time>2026-04-22T17:34:04.025Z</time></trkpt><trkpt lat="44.6269954" lon="10.5708734"><ele>125.0</ele><time>2026-04-22T17:34:06.025Z</time></trkpt><trkpt lat="44.6269402" lon="10.5707399"><ele>125.0</ele><time>2026-04-22T17:34:08.025Z</time></trkpt><trkpt lat="44.6268671" lon="10.570638"><ele>125.0</ele><time>2026-04-22T17:34:10.025Z</time></trkpt><trkpt lat="44.6267966" lon="10.570549"><ele>125.0</ele><time>2026-04-22T17:34:12.026Z</time></trkpt><trkpt lat="44.6267186" lon="10.5704569"><ele>125.0</ele><time>2026-04-22T17:34:14.025Z</time></trkpt><trkpt lat="44.6266404" lon="10.5703648"><ele>125.0</ele><time>2026-04-22T17:34:16.025Z</time></trkpt><trkpt lat="44.6265685" lon="10.5702764"><ele>125.0</ele><time>2026-04-22T17:34:18.025Z</time></trkpt><trkpt lat="44.626497" lon="10.5701727"><ele>125.0</ele><time>2026-04-22T17:34:20.026Z</time></trkpt><trkpt lat="44.6264266" lon="10.5700664"><ele>125.0</ele><time>2026-04-22T17:34:22.025Z</time></trkpt><trkpt lat="44.6263603" lon="10.5699633"><ele>125.0</ele><time>2026-04-22T17:34:24.025Z</time></trkpt><trkpt lat="44.6263017" lon="10.5698522"><ele>125.0</ele><time>2026-04-22T17:34:26.026Z</time></trkpt><trkpt lat="44.6262424" lon="10.5697437"><ele>125.0</ele><time>2026-04-22T17:34:28.025Z</time></trkpt><trkpt lat="44.6261776" lon="10.5696461"><ele>125.0</ele><time>2026-04-22T17:34:30.025Z</time></trkpt><trkpt lat="44.6261085" lon="10.5695478"><ele>125.6</ele><time>2026-04-22T17:34:32.026Z</time></trkpt><trkpt lat="44.6260466" lon="10.5694541"><ele>126.2</ele><time>2026-04-22T17:34:34.026Z</time></trkpt><trkpt lat="44.6259883" lon="10.5693658"><ele>126.80000000000001</ele><time>2026-04-22T17:34:36.026Z</time></trkpt><trkpt lat="44.6259192" lon="10.5692802"><ele>127.4</ele><time>2026-04-22T17:34:38.026Z</time></trkpt><trkpt lat="44.6258482" lon="10.5691979"><ele>128.0</ele><time>2026-04-22T17:34:40.026Z</time></trkpt><trkpt lat="44.625777" lon="10.5691109"><ele>128.0</ele><time>2026-04-22T17:34:42.025Z</time></trkpt><trkpt lat="44.6256952" lon="10.569022"><ele>128.0</ele><time>2026-04-22T17:34:44.026Z</time></trkpt><trkpt lat="44.6256087" lon="10.5689533"><ele>128.0</ele><time>2026-04-22T17:34:46.026Z</time></trkpt><trkpt lat="44.6255184" lon="10.5688835"><ele>128.0</ele><time>2026-04-22T17:34:48.025Z</time></trkpt><trkpt lat="44.625431" lon="10.5688149"><ele>128.0</ele><time>2026-04-22T17:34:50.026Z</time></trkpt><trkpt lat="44.625358" lon="10.5687257"><ele>127.4</ele><time>2026-04-22T17:34:52.025Z</time></trkpt><trkpt lat="44.625286" lon="10.568637"><ele>126.80000000000001</ele><time>2026-04-22T17:34:54.025Z</time></trkpt><trkpt lat="44.6252139" lon="10.5685518"><ele>126.2</ele><time>2026-04-22T17:34:56.025Z</time></trkpt><trkpt lat="44.625136" lon="10.5684699"><ele>125.6</ele><time>2026-04-22T17:34:58.026Z</time></trkpt><trkpt lat="44.6250594" lon="10.5684022"><ele>125.0</ele><time>2026-04-22T17:35:00.025Z</time></trkpt><trkpt lat="44.6249812" lon="10.5683508"><ele>125.0</ele><time>2026-04-22T17:35:02.026Z</time></trkpt><trkpt lat="44.6249001" lon="10.5682708"><ele>125.0</ele><time>2026-04-22T17:35:04.026Z</time></trkpt><trkpt lat="44.6248234" lon="10.5681837"><ele>125.0</ele><time>2026-04-22T17:35:06.025Z</time></trkpt><trkpt lat="44.6247547" lon="10.5680962"><ele>125.0</ele><time>2026-04-22T17:35:08.026Z</time></trkpt><trkpt lat="44.6246853" lon="10.5680088"><ele>125.0</ele><time>2026-04-22T17:35:10.026Z</time></trkpt><trkpt lat="44.6246148" lon="10.5679185"><ele>125.16666666666666</ele><time>2026-04-22T17:35:12.025Z</time></trkpt><trkpt lat="44.6245694" lon="10.5678084"><ele>125.33333333333333</ele><time>2026-04-22T17:35:14.025Z</time></trkpt><trkpt lat="44.6245308" lon="10.5676876"><ele>125.5</ele><time>2026-04-22T17:35:16.026Z</time></trkpt><trkpt lat="44.624504" lon="10.5675738"><ele>125.66666666666666</ele><time>2026-04-22T17:35:18.025Z</time></trkpt><trkpt lat="44.6244881" lon="10.5674521"><ele>125.83333333333333</ele><time>2026-04-22T17:35:21.025Z</time></trkpt><trkpt lat="44.6244713" lon="10.5675463"><ele>126.0</ele><time>2026-04-22T17:36:17.025Z</time></trkpt><trkpt lat="44.6245021" lon="10.5676455"><ele>126.0</ele><time>2026-04-22T17:36:19.026Z</time></trkpt><trkpt lat="44.6245508" lon="10.567772"><ele>126.0</ele><time>2026-04-22T17:36:21.025Z</time></trkpt><trkpt lat="44.6245994" lon="10.567903"><ele>126.0</ele><time>2026-04-22T17:36:23.026Z</time></trkpt><trkpt lat="44.6246808" lon="10.5680233"><ele>126.0</ele><time>2026-04-22T17:36:25.025Z</time></trkpt><trkpt lat="44.6247559" lon="10.5681253"><ele>126.0</ele><time>2026-04-22T17:36:27.026Z</time></trkpt><trkpt lat="44.6248344" lon="10.5682358"><ele>125.75</ele><time>2026-04-22T17:36:29.026Z</time></trkpt><trkpt lat="44.6249317" lon="10.568328"><ele>125.5</ele><time>2026-04-22T17:36:31.026Z</time></trkpt><trkpt lat="44.6250393" lon="10.568423"><ele>125.25</ele><time>2026-04-22T17:36:33.026Z</time></trkpt><trkpt lat="44.6251466" lon="10.5685079"><ele>125.0</ele><time>2026-04-22T17:36:35.026Z</time></trkpt><trkpt lat="44.6252412" lon="10.5685973"><ele>125.6</ele><time>2026-04-22T17:36:37.025Z</time></trkpt><trkpt lat="44.6253202" lon="10.568723"><ele>126.2</ele><time>2026-04-22T17:36:39.026Z</time></trkpt><trkpt lat="44.6253675" lon="10.5687839"><ele>126.80000000000001</ele><time>2026-04-22T17:36:40.026Z</time></trkpt><trkpt lat="44.6254175" lon="10.5688382"><ele>127.4</ele><time>2026-04-22T17:36:41.026Z</time></trkpt><trkpt lat="44.625526" lon="10.5689286"><ele>128.0</ele><time>2026-04-22T17:36:43.026Z</time></trkpt><trkpt lat="44.6256302" lon="10.5690228"><ele>128.0</ele><time>2026-04-22T17:36:45.025Z</time></trkpt><trkpt lat="44.6257295" lon="10.569123"><ele>128.0</ele><time>2026-04-22T17:36:47.025Z</time></trkpt><trkpt lat="44.6258293" lon="10.5692198"><ele>128.0</ele><time>2026-04-22T17:36:49.025Z</time></trkpt><trkpt lat="44.6259264" lon="10.5693164"><ele>128.0</ele><time>2026-04-22T17:36:51.026Z</time></trkpt><trkpt lat="44.6259752" lon="10.5693755"><ele>128.0</ele><time>2026-04-22T17:36:52.025Z</time></trkpt><trkpt lat="44.6260198" lon="10.5694397"><ele>127.99999999999999</ele><time>2026-04-22T17:36:53.026Z</time></trkpt><trkpt lat="44.6261078" lon="10.5695677"><ele>128.0</ele><time>2026-04-22T17:36:55.026Z</time></trkpt><trkpt lat="44.6261508" lon="10.5696386"><ele>128.0</ele><time>2026-04-22T17:36:56.025Z</time></trkpt><trkpt lat="44.6261987" lon="10.5697106"><ele>128.0</ele><time>2026-04-22T17:36:57.026Z</time></trkpt><trkpt lat="44.6262443" lon="10.5697862"><ele>127.99999999999999</ele><time>2026-04-22T17:36:58.025Z</time></trkpt><trkpt lat="44.6262882" lon="10.5698654"><ele>128.0</ele><time>2026-04-22T17:36:59.026Z</time></trkpt><trkpt lat="44.6263355" lon="10.569941"><ele>127.85714285714285</ele><time>2026-04-22T17:37:00.026Z</time></trkpt><trkpt lat="44.6263852" lon="10.5700188"><ele>127.7142857142857</ele><time>2026-04-22T17:37:01.025Z</time></trkpt><trkpt lat="44.6264307" lon="10.5700969"><ele>127.57142857142857</ele><time>2026-04-22T17:37:02.025Z</time></trkpt><trkpt lat="44.6264758" lon="10.570164"><ele>127.42857142857142</ele><time>2026-04-22T17:37:03.025Z</time></trkpt><trkpt lat="44.6265221" lon="10.5702339"><ele>127.28571428571428</ele><time>2026-04-22T17:37:04.026Z</time></trkpt><trkpt lat="44.62657" lon="10.5703058"><ele>127.14285714285714</ele><time>2026-04-22T17:37:05.025Z</time></trkpt><trkpt lat="44.6266192" lon="10.5703711"><ele>127.0</ele><time>2026-04-22T17:37:06.026Z</time></trkpt><trkpt lat="44.6266689" lon="10.5704358"><ele>127.0</ele><time>2026-04-22T17:37:07.025Z</time></trkpt><trkpt lat="44.626719" lon="10.5705"><ele>127.0</ele><time>2026-04-22T17:37:08.026Z</time></trkpt><trkpt lat="44.626769" lon="10.570562"><ele>127.0</ele><time>2026-04-22T17:37:09.025Z</time></trkpt><trkpt lat="44.6268215" lon="10.5706247"><ele>127.0</ele><time>2026-04-22T17:37:10.026Z</time></trkpt><trkpt lat="44.6268698" lon="10.5706891"><ele>127.0</ele><time>2026-04-22T17:37:11.025Z</time></trkpt><trkpt lat="44.6269178" lon="10.5707507"><ele>127.0</ele><time>2026-04-22T17:37:12.025Z</time></trkpt><trkpt lat="44.6269604" lon="10.5708241"><ele>127.0</ele><time>2026-04-22T17:37:13.025Z</time></trkpt><trkpt lat="44.6269934" lon="10.5709099"><ele>126.6</ele><time>2026-04-22T17:37:14.026Z</time></trkpt><trkpt lat="44.6270134" lon="10.5709954"><ele>126.19999999999999</ele><time>2026-04-22T17:37:15.025Z</time></trkpt><trkpt lat="44.6270268" lon="10.5711627"><ele>125.8</ele><time>2026-04-22T17:37:17.026Z</time></trkpt><trkpt lat="44.6270287" lon="10.571256"><ele>125.4</ele><time>2026-04-22T17:37:18.026Z</time></trkpt><trkpt lat="44.6270305" lon="10.5714257"><ele>125.0</ele><time>2026-04-22T17:37:20.025Z</time></trkpt><trkpt lat="44.6270457" lon="10.5715997"><ele>125.0</ele><time>2026-04-22T17:37:22.025Z</time></trkpt><trkpt lat="44.6270704" lon="10.5717679"><ele>125.0</ele><time>2026-04-22T17:37:24.025Z</time></trkpt><trkpt lat="44.6270837" lon="10.5719444"><ele>125.0</ele><time>2026-04-22T17:37:26.026Z</time></trkpt><trkpt lat="44.6271012" lon="10.5721163"><ele>125.0</ele><time>2026-04-22T17:37:28.025Z</time></trkpt><trkpt lat="44.6271214" lon="10.5722841"><ele>125.2</ele><time>2026-04-22T17:37:30.025Z</time></trkpt><trkpt lat="44.6271463" lon="10.5724508"><ele>125.4</ele><time>2026-04-22T17:37:32.025Z</time></trkpt><trkpt lat="44.6271679" lon="10.5726226"><ele>125.6</ele><time>2026-04-22T17:37:34.026Z</time></trkpt><trkpt lat="44.6271852" lon="10.5727929"><ele>125.8</ele><time>2026-04-22T17:37:36.025Z</time></trkpt><trkpt lat="44.6271875" lon="10.5728838"><ele>126.0</ele><time>2026-04-22T17:37:37.025Z</time></trkpt><trkpt lat="44.6271826" lon="10.5729726"><ele>125.57142857142857</ele><time>2026-04-22T17:37:38.026Z</time></trkpt><trkpt lat="44.6271866" lon="10.5730615"><ele>125.14285714285714</ele><time>2026-04-22T17:37:39.026Z</time></trkpt><trkpt lat="44.6271916" lon="10.5731531"><ele>124.71428571428572</ele><time>2026-04-22T17:37:40.026Z</time></trkpt><trkpt lat="44.6271968" lon="10.5732462"><ele>124.28571428571429</ele><time>2026-04-22T17:37:41.026Z</time></trkpt><trkpt lat="44.6272106" lon="10.5733385"><ele>123.85714285714286</ele><time>2026-04-22T17:37:42.025Z</time></trkpt><trkpt lat="44.6272306" lon="10.5734319"><ele>123.42857142857144</ele><time>2026-04-22T17:37:43.025Z</time></trkpt><trkpt lat="44.6272565" lon="10.5735161"><ele>123.00000000000001</ele><time>2026-04-22T17:37:44.026Z</time></trkpt><trkpt lat="44.6272865" lon="10.5736048"><ele>122.71428571428572</ele><time>2026-04-22T17:37:45.026Z</time></trkpt><trkpt lat="44.6273194" lon="10.5736972"><ele>122.42857142857143</ele><time>2026-04-22T17:37:46.025Z</time></trkpt><trkpt lat="44.6273541" lon="10.5737847"><ele>122.14285714285714</ele><time>2026-04-22T17:37:47.025Z</time></trkpt><trkpt lat="44.6273729" lon="10.5738854"><ele>121.85714285714286</ele><time>2026-04-22T17:37:48.025Z</time></trkpt><trkpt lat="44.6273891" lon="10.5739876"><ele>121.57142857142856</ele><time>2026-04-22T17:37:49.025Z</time></trkpt><trkpt lat="44.627411" lon="10.5740928"><ele>121.28571428571428</ele><time>2026-04-22T17:37:50.026Z</time></trkpt><trkpt lat="44.627438" lon="10.5741952"><ele>121.0</ele><time>2026-04-22T17:37:51.026Z</time></trkpt><trkpt lat="44.627474" lon="10.5742888"><ele>121.0</ele><time>2026-04-22T17:37:52.025Z</time></trkpt><trkpt lat="44.6275038" lon="10.5743776"><ele>120.99999999999999</ele><time>2026-04-22T17:37:53.026Z</time></trkpt><trkpt lat="44.6275298" lon="10.5744611"><ele>121.0</ele><time>2026-04-22T17:37:54.025Z</time></trkpt><trkpt lat="44.6275621" lon="10.5745469"><ele>121.0</ele><time>2026-04-22T17:37:55.025Z</time></trkpt><trkpt lat="44.6275904" lon="10.5746307"><ele>120.99999999999999</ele><time>2026-04-22T17:37:56.025Z</time></trkpt><trkpt lat="44.6276248" lon="10.5747117"><ele>121.0</ele><time>2026-04-22T17:37:57.025Z</time></trkpt><trkpt lat="44.6276592" lon="10.574795"><ele>121.0</ele><time>2026-04-22T17:37:58.026Z</time></trkpt><trkpt lat="44.6276903" lon="10.5748753"><ele>121.14285714285714</ele><time>2026-04-22T17:37:59.025Z</time></trkpt><trkpt lat="44.6277189" lon="10.5749594"><ele>121.28571428571428</ele><time>2026-04-22T17:38:00.025Z</time></trkpt><trkpt lat="44.6277474" lon="10.5750458"><ele>121.42857142857142</ele><time>2026-04-22T17:38:01.025Z</time></trkpt><trkpt lat="44.6277757" lon="10.5751295"><ele>121.57142857142856</ele><time>2026-04-22T17:38:02.025Z</time></trkpt><trkpt lat="44.6278009" lon="10.5752118"><ele>121.71428571428571</ele><time>2026-04-22T17:38:03.026Z</time></trkpt><trkpt lat="44.6278303" lon="10.5752921"><ele>121.85714285714283</ele><time>2026-04-22T17:38:04.025Z</time></trkpt><trkpt lat="44.6278598" lon="10.5753705"><ele>121.99999999999999</ele><time>2026-04-22T17:38:05.026Z</time></trkpt><trkpt lat="44.6279144" lon="10.575524"><ele>121.25</ele><time>2026-04-22T17:38:07.025Z</time></trkpt><trkpt lat="44.6279755" lon="10.5756719"><ele>120.5</ele><time>2026-04-22T17:38:09.025Z</time></trkpt><trkpt lat="44.6280428" lon="10.5758183"><ele>119.75</ele><time>2026-04-22T17:38:11.025Z</time></trkpt><trkpt lat="44.6281128" lon="10.5759618"><ele>119.0</ele><time>2026-04-22T17:38:13.026Z</time></trkpt><trkpt lat="44.6281935" lon="10.576087"><ele>119.4</ele><time>2026-04-22T17:38:15.025Z</time></trkpt><trkpt lat="44.6282774" lon="10.5762081"><ele>119.80000000000001</ele><time>2026-04-22T17:38:17.026Z</time></trkpt><trkpt lat="44.6283603" lon="10.5763351"><ele>120.19999999999999</ele><time>2026-04-22T17:38:19.025Z</time></trkpt><trkpt lat="44.6284467" lon="10.5764568"><ele>120.6</ele><time>2026-04-22T17:38:21.026Z</time></trkpt><trkpt lat="44.6284962" lon="10.5765169"><ele>121.0</ele><time>2026-04-22T17:38:22.025Z</time></trkpt><trkpt lat="44.6285434" lon="10.576581"><ele>121.00000000000001</ele><time>2026-04-22T17:38:23.026Z</time></trkpt><trkpt lat="44.6285884" lon="10.5766507"><ele>121.0</ele><time>2026-04-22T17:38:24.026Z</time></trkpt><trkpt lat="44.6286332" lon="10.5767177"><ele>121.0</ele><time>2026-04-22T17:38:25.026Z</time></trkpt><trkpt lat="44.6286755" lon="10.5767833"><ele>121.0</ele><time>2026-04-22T17:38:26.025Z</time></trkpt><trkpt lat="44.6287202" lon="10.5768482"><ele>121.00000000000001</ele><time>2026-04-22T17:38:27.026Z</time></trkpt><trkpt lat="44.6288034" lon="10.5769689"><ele>121.0</ele><time>2026-04-22T17:38:29.025Z</time></trkpt><trkpt lat="44.6288968" lon="10.5770708"><ele>120.4</ele><time>2026-04-22T17:38:31.026Z</time></trkpt><trkpt lat="44.6290003" lon="10.5771702"><ele>119.8</ele><time>2026-04-22T17:38:33.025Z</time></trkpt><trkpt lat="44.6290594" lon="10.5772131"><ele>119.20000000000002</ele><time>2026-04-22T17:38:34.025Z</time></trkpt><trkpt lat="44.6291216" lon="10.5772539"><ele>118.60000000000001</ele><time>2026-04-22T17:38:35.025Z</time></trkpt><trkpt lat="44.6291876" lon="10.5772779"><ele>118.0</ele><time>2026-04-22T17:38:36.025Z</time></trkpt><trkpt lat="44.6293098" lon="10.5773227"><ele>118.00000000000001</ele><time>2026-04-22T17:38:38.025Z</time></trkpt><trkpt lat="44.6293716" lon="10.5773573"><ele>118.0</ele><time>2026-04-22T17:38:39.025Z</time></trkpt><trkpt lat="44.62943" lon="10.577396"><ele>118.0</ele><time>2026-04-22T17:38:40.026Z</time></trkpt><trkpt lat="44.6295399" lon="10.5774848"><ele>118.0</ele><time>2026-04-22T17:38:42.025Z</time></trkpt><trkpt lat="44.629592" lon="10.5775345"><ele>118.00000000000001</ele><time>2026-04-22T17:38:43.025Z</time></trkpt><trkpt lat="44.6296861" lon="10.5776357"><ele>118.0</ele><time>2026-04-22T17:38:45.026Z</time></trkpt><trkpt lat="44.629779" lon="10.5777477"><ele>118.0</ele><time>2026-04-22T17:38:47.026Z</time></trkpt><trkpt lat="44.6298825" lon="10.5778311"><ele>118.0</ele><time>2026-04-22T17:38:49.026Z</time></trkpt><trkpt lat="44.6299918" lon="10.5778951"><ele>118.0</ele><time>2026-04-22T17:38:51.025Z</time></trkpt><trkpt lat="44.6301084" lon="10.5779341"><ele>118.0</ele><time>2026-04-22T17:38:53.026Z</time></trkpt><trkpt lat="44.6302197" lon="10.5780066"><ele>117.75</ele><time>2026-04-22T17:38:55.025Z</time></trkpt><trkpt lat="44.6303202" lon="10.5781083"><ele>117.5</ele><time>2026-04-22T17:38:57.025Z</time></trkpt><trkpt lat="44.6304153" lon="10.5782129"><ele>117.25</ele><time>2026-04-22T17:38:59.026Z</time></trkpt><trkpt lat="44.6305164" lon="10.5783085"><ele>117.0</ele><time>2026-04-22T17:39:01.026Z</time></trkpt><trkpt lat="44.6305786" lon="10.578393"><ele>117.0</ele><time>2026-04-22T17:39:03.025Z</time></trkpt><trkpt lat="44.6305588" lon="10.5784919"><ele>116.99999999999999</ele><time>2026-04-22T17:39:05.025Z</time></trkpt><trkpt lat="44.6304823" lon="10.578605"><ele>116.99999999999999</ele><time>2026-04-22T17:39:07.025Z</time></trkpt><trkpt lat="44.6304383" lon="10.5787293"><ele>117.0</ele><time>2026-04-22T17:39:09.025Z</time></trkpt><trkpt lat="44.6304592" lon="10.5788903"><ele>117.0</ele><time>2026-04-22T17:39:11.025Z</time></trkpt><trkpt lat="44.6305382" lon="10.5790124"><ele>116.6</ele><time>2026-04-22T17:39:13.025Z</time></trkpt><trkpt lat="44.6306205" lon="10.5791246"><ele>116.19999999999999</ele><time>2026-04-22T17:39:15.025Z</time></trkpt><trkpt lat="44.6307059" lon="10.579245"><ele>115.8</ele><time>2026-04-22T17:39:17.024Z</time></trkpt><trkpt lat="44.6307481" lon="10.5793127"><ele>115.4</ele><time>2026-04-22T17:39:18.026Z</time></trkpt><trkpt lat="44.6308288" lon="10.5794449"><ele>115.0</ele><time>2026-04-22T17:39:20.026Z</time></trkpt><trkpt lat="44.6309079" lon="10.5795761"><ele>115.00000000000001</ele><time>2026-04-22T17:39:22.025Z</time></trkpt><trkpt lat="44.6309516" lon="10.5796399"><ele>115.0</ele><time>2026-04-22T17:39:23.026Z</time></trkpt><trkpt lat="44.6310041" lon="10.5796937"><ele>115.0</ele><time>2026-04-22T17:39:24.025Z</time></trkpt><trkpt lat="44.6311095" lon="10.5797877"><ele>115.0</ele><time>2026-04-22T17:39:26.026Z</time></trkpt><trkpt lat="44.6311665" lon="10.5798302"><ele>115.00000000000001</ele><time>2026-04-22T17:39:27.026Z</time></trkpt><trkpt lat="44.6312248" lon="10.5798716"><ele>115.0</ele><time>2026-04-22T17:39:28.025Z</time></trkpt><trkpt lat="44.6313355" lon="10.5799478"><ele>115.00000000000001</ele><time>2026-04-22T17:39:30.025Z</time></trkpt><trkpt lat="44.6314344" lon="10.5800415"><ele>115.0</ele><time>2026-04-22T17:39:32.026Z</time></trkpt><trkpt lat="44.6314893" lon="10.5800917"><ele>115.0</ele><time>2026-04-22T17:39:33.025Z</time></trkpt><trkpt lat="44.6315474" lon="10.5801381"><ele>115.0</ele><time>2026-04-22T17:39:34.025Z</time></trkpt><trkpt lat="44.6316088" lon="10.580179"><ele>115.00000000000001</ele><time>2026-04-22T17:39:35.026Z</time></trkpt><trkpt lat="44.6316691" lon="10.58022"><ele>115.0</ele><time>2026-04-22T17:39:36.025Z</time></trkpt><trkpt lat="44.6317283" lon="10.5802573"><ele>115.0</ele><time>2026-04-22T17:39:37.026Z</time></trkpt><trkpt lat="44.6318479" lon="10.5803253"><ele>115.0</ele><time>2026-04-22T17:39:39.026Z</time></trkpt><trkpt lat="44.6319567" lon="10.5804071"><ele>115.0</ele><time>2026-04-22T17:39:41.025Z</time></trkpt><trkpt lat="44.6320712" lon="10.5804878"><ele>115.0</ele><time>2026-04-22T17:39:43.026Z</time></trkpt><trkpt lat="44.632131" lon="10.5805359"><ele>115.0</ele><time>2026-04-22T17:39:44.026Z</time></trkpt><trkpt lat="44.6321869" lon="10.5805812"><ele>114.4</ele><time>2026-04-22T17:39:45.025Z</time></trkpt><trkpt lat="44.6322434" lon="10.5806229"><ele>113.8</ele><time>2026-04-22T17:39:46.026Z</time></trkpt><trkpt lat="44.6323533" lon="10.5807116"><ele>113.19999999999999</ele><time>2026-04-22T17:39:48.027Z</time></trkpt><trkpt lat="44.6324086" lon="10.5807563"><ele>112.6</ele><time>2026-04-22T17:39:49.027Z</time></trkpt><trkpt lat="44.63252" lon="10.5808268"><ele>112.0</ele><time>2026-04-22T17:39:51.026Z</time></trkpt><trkpt lat="44.6326305" lon="10.5808991"><ele>112.0</ele><time>2026-04-22T17:39:53.027Z</time></trkpt><trkpt lat="44.6326883" lon="10.5809381"><ele>111.99999999999999</ele><time>2026-04-22T17:39:54.026Z</time></trkpt><trkpt lat="44.632748" lon="10.5809704"><ele>111.99999999999999</ele><time>2026-04-22T17:39:55.026Z</time></trkpt><trkpt lat="44.6328635" lon="10.5810308"><ele>112.0</ele><time>2026-04-22T17:39:57.026Z</time></trkpt><trkpt lat="44.6329786" lon="10.5811039"><ele>112.0</ele><time>2026-04-22T17:39:59.026Z</time></trkpt><trkpt lat="44.6330917" lon="10.5811741"><ele>112.39999999999999</ele><time>2026-04-22T17:40:01.027Z</time></trkpt><trkpt lat="44.633202" lon="10.5812422"><ele>112.79999999999998</ele><time>2026-04-22T17:40:03.027Z</time></trkpt><trkpt lat="44.6332588" lon="10.5812805"><ele>113.2</ele><time>2026-04-22T17:40:04.026Z</time></trkpt><trkpt lat="44.6333715" lon="10.5813397"><ele>113.6</ele><time>2026-04-22T17:40:06.026Z</time></trkpt><trkpt lat="44.6334314" lon="10.5813753"><ele>114.0</ele><time>2026-04-22T17:40:07.027Z</time></trkpt><trkpt lat="44.6335495" lon="10.5814338"><ele>114.0</ele><time>2026-04-22T17:40:09.026Z</time></trkpt><trkpt lat="44.6336639" lon="10.5814976"><ele>114.0</ele><time>2026-04-22T17:40:11.026Z</time></trkpt><trkpt lat="44.6337794" lon="10.5815714"><ele>114.0</ele><time>2026-04-22T17:40:13.027Z</time></trkpt><trkpt lat="44.63384" lon="10.5816001"><ele>114.0</ele><time>2026-04-22T17:40:14.027Z</time></trkpt><trkpt lat="44.6339015" lon="10.5816235"><ele>114.0</ele><time>2026-04-22T17:40:15.026Z</time></trkpt><trkpt lat="44.6339649" lon="10.5816418"><ele>114.0</ele><time>2026-04-22T17:40:16.027Z</time></trkpt><trkpt lat="44.6340308" lon="10.5816656"><ele>114.0</ele><time>2026-04-22T17:40:17.026Z</time></trkpt><trkpt lat="44.6341367" lon="10.5816926"><ele>114.0</ele><time>2026-04-22T17:40:19.026Z</time></trkpt><trkpt lat="44.6342367" lon="10.5817659"><ele>114.0</ele><time>2026-04-22T17:40:21.026Z</time></trkpt><trkpt lat="44.6342911" lon="10.5818179"><ele>114.0</ele><time>2026-04-22T17:40:22.027Z</time></trkpt><trkpt lat="44.6343389" lon="10.5818808"><ele>114.0</ele><time>2026-04-22T17:40:23.027Z</time></trkpt><trkpt lat="44.6343867" lon="10.5819448"><ele>114.0</ele><time>2026-04-22T17:40:24.026Z</time></trkpt><trkpt lat="44.634435" lon="10.5820108"><ele>113.71428571428571</ele><time>2026-04-22T17:40:25.027Z</time></trkpt><trkpt lat="44.6344821" lon="10.5820729"><ele>113.42857142857142</ele><time>2026-04-22T17:40:26.026Z</time></trkpt><trkpt lat="44.6345289" lon="10.5821345"><ele>113.14285714285714</ele><time>2026-04-22T17:40:27.027Z</time></trkpt><trkpt lat="44.6346251" lon="10.5822421"><ele>112.85714285714286</ele><time>2026-04-22T17:40:29.027Z</time></trkpt><trkpt lat="44.6346736" lon="10.5822988"><ele>112.57142857142857</ele><time>2026-04-22T17:40:30.026Z</time></trkpt><trkpt lat="44.6347217" lon="10.5823582"><ele>112.28571428571428</ele><time>2026-04-22T17:40:31.026Z</time></trkpt><trkpt lat="44.6347685" lon="10.5824237"><ele>112.0</ele><time>2026-04-22T17:40:32.026Z</time></trkpt><trkpt lat="44.6348163" lon="10.5824845"><ele>112.0</ele><time>2026-04-22T17:40:33.027Z</time></trkpt><trkpt lat="44.6348985" lon="10.582615"><ele>112.0</ele><time>2026-04-22T17:40:35.027Z</time></trkpt><trkpt lat="44.6349944" lon="10.5827256"><ele>112.0</ele><time>2026-04-22T17:40:37.027Z</time></trkpt><trkpt lat="44.6350871" lon="10.5828412"><ele>112.0</ele><time>2026-04-22T17:40:39.027Z</time></trkpt><trkpt lat="44.6351818" lon="10.5829603"><ele>111.8</ele><time>2026-04-22T17:40:41.027Z</time></trkpt><trkpt lat="44.6352375" lon="10.5830039"><ele>111.6</ele><time>2026-04-22T17:40:42.026Z</time></trkpt><trkpt lat="44.6353422" lon="10.583097"><ele>111.39999999999999</ele><time>2026-04-22T17:40:44.027Z</time></trkpt><trkpt lat="44.635436" lon="10.5832203"><ele>111.19999999999999</ele><time>2026-04-22T17:40:46.026Z</time></trkpt><trkpt lat="44.6354945" lon="10.5832939"><ele>111.0</ele><time>2026-04-22T17:40:47.027Z</time></trkpt><trkpt lat="44.6355381" lon="10.5833823"><ele>111.0</ele><time>2026-04-22T17:40:48.027Z</time></trkpt><trkpt lat="44.635574" lon="10.5834734"><ele>111.0</ele><time>2026-04-22T17:40:49.027Z</time></trkpt><trkpt lat="44.6356085" lon="10.5835642"><ele>111.0</ele><time>2026-04-22T17:40:50.027Z</time></trkpt><trkpt lat="44.6356464" lon="10.5836503"><ele>111.0</ele><time>2026-04-22T17:40:51.026Z</time></trkpt><trkpt lat="44.6356877" lon="10.5837239"><ele>111.0</ele><time>2026-04-22T17:40:52.026Z</time></trkpt><trkpt lat="44.635734" lon="10.5837878"><ele>111.0</ele><time>2026-04-22T17:40:53.026Z</time></trkpt><trkpt lat="44.6357913" lon="10.5838374"><ele>111.0</ele><time>2026-04-22T17:40:54.026Z</time></trkpt><trkpt lat="44.6359038" lon="10.5838989"><ele>110.6</ele><time>2026-04-22T17:40:56.026Z</time></trkpt><trkpt lat="44.6359803" lon="10.5838972"><ele>110.19999999999999</ele><time>2026-04-22T17:40:57.027Z</time></trkpt><trkpt lat="44.6360485" lon="10.5839005"><ele>109.80000000000001</ele><time>2026-04-22T17:40:58.026Z</time></trkpt><trkpt lat="44.6361618" lon="10.5839275"><ele>109.4</ele><time>2026-04-22T17:41:00.027Z</time></trkpt><trkpt lat="44.6362797" lon="10.583948"><ele>109.0</ele><time>2026-04-22T17:41:02.026Z</time></trkpt><trkpt lat="44.6364005" lon="10.5839712"><ele>108.75</ele><time>2026-04-22T17:41:04.027Z</time></trkpt><trkpt lat="44.636516" lon="10.5840298"><ele>108.5</ele><time>2026-04-22T17:41:06.026Z</time></trkpt><trkpt lat="44.6366251" lon="10.5841016"><ele>108.25</ele><time>2026-04-22T17:41:08.026Z</time></trkpt><trkpt lat="44.6367333" lon="10.5841683"><ele>108.0</ele><time>2026-04-22T17:41:10.026Z</time></trkpt><trkpt lat="44.6368308" lon="10.5842193"><ele>108.0</ele><time>2026-04-22T17:41:12.027Z</time></trkpt><trkpt lat="44.6369383" lon="10.5842169"><ele>108.00000000000001</ele><time>2026-04-22T17:41:14.026Z</time></trkpt><trkpt lat="44.6370128" lon="10.5841159"><ele>108.00000000000001</ele><time>2026-04-22T17:41:16.027Z</time></trkpt><trkpt lat="44.637028" lon="10.5839889"><ele>108.0</ele><time>2026-04-22T17:41:18.027Z</time></trkpt><trkpt lat="44.6370388" lon="10.5838585"><ele>108.0</ele><time>2026-04-22T17:41:20.027Z</time></trkpt><trkpt lat="44.6370529" lon="10.5837216"><ele>108.60000000000001</ele><time>2026-04-22T17:41:22.027Z</time></trkpt><trkpt lat="44.6370826" lon="10.5835982"><ele>109.20000000000002</ele><time>2026-04-22T17:41:24.027Z</time></trkpt><trkpt lat="44.6371193" lon="10.5834731"><ele>109.8</ele><time>2026-04-22T17:41:26.026Z</time></trkpt><trkpt lat="44.6371475" lon="10.5833464"><ele>110.4</ele><time>2026-04-22T17:41:28.027Z</time></trkpt><trkpt lat="44.6371742" lon="10.5832099"><ele>111.0</ele><time>2026-04-22T17:41:30.027Z</time></trkpt><trkpt lat="44.6372096" lon="10.5830802"><ele>111.0</ele><time>2026-04-22T17:41:32.027Z</time></trkpt><trkpt lat="44.6372512" lon="10.5829615"><ele>111.0</ele><time>2026-04-22T17:41:34.027Z</time></trkpt><trkpt lat="44.6372746" lon="10.5828316"><ele>111.0</ele><time>2026-04-22T17:41:36.027Z</time></trkpt><trkpt lat="44.6373058" lon="10.5827142"><ele>111.0</ele><time>2026-04-22T17:41:38.026Z</time></trkpt><trkpt lat="44.6373344" lon="10.5826038"><ele>111.0</ele><time>2026-04-22T17:41:40.026Z</time></trkpt><trkpt lat="44.6373606" lon="10.5824886"><ele>111.0</ele><time>2026-04-22T17:41:42.027Z</time></trkpt><trkpt lat="44.6373929" lon="10.582374"><ele>111.33333333333333</ele><time>2026-04-22T17:41:44.026Z</time></trkpt><trkpt lat="44.6374572" lon="10.5823049"><ele>111.66666666666666</ele><time>2026-04-22T17:41:46.027Z</time></trkpt><trkpt lat="44.6375203" lon="10.5823143"><ele>112.0</ele><time>2026-04-22T17:41:48.026Z</time></trkpt><trkpt lat="44.6375858" lon="10.5823542"><ele>112.33333333333333</ele><time>2026-04-22T17:41:50.027Z</time></trkpt><trkpt lat="44.6376788" lon="10.5823725"><ele>112.66666666666666</ele><time>2026-04-22T17:41:52.026Z</time></trkpt><trkpt lat="44.6377679" lon="10.5824051"><ele>113.0</ele><time>2026-04-22T17:41:54.026Z</time></trkpt><trkpt lat="44.637858" lon="10.5824551"><ele>113.60000000000001</ele><time>2026-04-22T17:41:56.027Z</time></trkpt><trkpt lat="44.6379572" lon="10.5825048"><ele>114.20000000000002</ele><time>2026-04-22T17:41:58.026Z</time></trkpt><trkpt lat="44.6380708" lon="10.5825755"><ele>114.8</ele><time>2026-04-22T17:42:00.026Z</time></trkpt><trkpt lat="44.6381402" lon="10.5826143"><ele>115.4</ele><time>2026-04-22T17:42:01.027Z</time></trkpt><trkpt lat="44.6382034" lon="10.5826459"><ele>116.0</ele><time>2026-04-22T17:42:02.027Z</time></trkpt><trkpt lat="44.6383218" lon="10.5827093"><ele>116.0</ele><time>2026-04-22T17:42:04.026Z</time></trkpt><trkpt lat="44.6384425" lon="10.5827748"><ele>116.0</ele><time>2026-04-22T17:42:06.026Z</time></trkpt><trkpt lat="44.6385565" lon="10.5828439"><ele>116.0</ele><time>2026-04-22T17:42:08.026Z</time></trkpt><trkpt lat="44.6386172" lon="10.5828804"><ele>116.0</ele><time>2026-04-22T17:42:09.027Z</time></trkpt><trkpt lat="44.6387268" lon="10.582935"><ele>116.0</ele><time>2026-04-22T17:42:11.027Z</time></trkpt><trkpt lat="44.6387887" lon="10.5829588"><ele>115.0</ele><time>2026-04-22T17:42:12.027Z</time></trkpt><trkpt lat="44.6388507" lon="10.5829911"><ele>114.0</ele><time>2026-04-22T17:42:13.027Z</time></trkpt><trkpt lat="44.6389095" lon="10.5830303"><ele>113.0</ele><time>2026-04-22T17:42:14.027Z</time></trkpt><trkpt lat="44.6390233" lon="10.5831021"><ele>112.0</ele><time>2026-04-22T17:42:16.027Z</time></trkpt><trkpt lat="44.6391303" lon="10.5831702"><ele>111.0</ele><time>2026-04-22T17:42:18.026Z</time></trkpt><trkpt lat="44.6392432" lon="10.583247"><ele>111.0</ele><time>2026-04-22T17:42:20.027Z</time></trkpt><trkpt lat="44.6393538" lon="10.5833214"><ele>111.0</ele><time>2026-04-22T17:42:22.026Z</time></trkpt><trkpt lat="44.6394129" lon="10.5833528"><ele>111.0</ele><time>2026-04-22T17:42:23.027Z</time></trkpt><trkpt lat="44.6395301" lon="10.583361"><ele>111.0</ele><time>2026-04-22T17:42:25.026Z</time></trkpt><trkpt lat="44.6395912" lon="10.5833338"><ele>111.0</ele><time>2026-04-22T17:42:26.026Z</time></trkpt><trkpt lat="44.6396924" lon="10.5832845"><ele>111.4</ele><time>2026-04-22T17:42:28.026Z</time></trkpt><trkpt lat="44.6397796" lon="10.5833528"><ele>111.8</ele><time>2026-04-22T17:42:30.027Z</time></trkpt><trkpt lat="44.6398171" lon="10.5834887"><ele>112.20000000000002</ele><time>2026-04-22T17:42:32.027Z</time></trkpt><trkpt lat="44.6398583" lon="10.5836311"><ele>112.60000000000001</ele><time>2026-04-22T17:42:34.027Z</time></trkpt><trkpt lat="44.6399646" lon="10.5836891"><ele>113.0</ele><time>2026-04-22T17:42:36.026Z</time></trkpt><trkpt lat="44.6400811" lon="10.5837378"><ele>111.80000000000001</ele><time>2026-04-22T17:42:38.027Z</time></trkpt><trkpt lat="44.6401439" lon="10.5837628"><ele>110.60000000000001</ele><time>2026-04-22T17:42:39.027Z</time></trkpt><trkpt lat="44.6402612" lon="10.5838253"><ele>109.39999999999999</ele><time>2026-04-22T17:42:41.026Z</time></trkpt><trkpt lat="44.6403779" lon="10.5838896"><ele>108.19999999999999</ele><time>2026-04-22T17:42:43.026Z</time></trkpt><trkpt lat="44.6404899" lon="10.5839589"><ele>107.0</ele><time>2026-04-22T17:42:45.026Z</time></trkpt><trkpt lat="44.6405481" lon="10.583995"><ele>106.99999999999999</ele><time>2026-04-22T17:42:46.026Z</time></trkpt><trkpt lat="44.6406095" lon="10.5840267"><ele>107.0</ele><time>2026-04-22T17:42:47.026Z</time></trkpt><trkpt lat="44.6407303" lon="10.5840968"><ele>107.0</ele><time>2026-04-22T17:42:49.027Z</time></trkpt><trkpt lat="44.6407947" lon="10.5841307"><ele>107.0</ele><time>2026-04-22T17:42:50.026Z</time></trkpt><trkpt lat="44.6408571" lon="10.5841617"><ele>106.99999999999999</ele><time>2026-04-22T17:42:51.027Z</time></trkpt><trkpt lat="44.6409231" lon="10.5841989"><ele>107.0</ele><time>2026-04-22T17:42:52.026Z</time></trkpt><trkpt lat="44.6409886" lon="10.584235"><ele>106.99999999999999</ele><time>2026-04-22T17:42:53.026Z</time></trkpt><trkpt lat="44.6410564" lon="10.5842693"><ele>107.0</ele><time>2026-04-22T17:42:54.027Z</time></trkpt><trkpt lat="44.6411232" lon="10.5843075"><ele>107.0</ele><time>2026-04-22T17:42:55.027Z</time></trkpt><trkpt lat="44.641188" lon="10.5843468"><ele>107.0</ele><time>2026-04-22T17:42:56.026Z</time></trkpt><trkpt lat="44.641258" lon="10.5843924"><ele>106.99999999999999</ele><time>2026-04-22T17:42:57.027Z</time></trkpt><trkpt lat="44.6413248" lon="10.5844246"><ele>107.0</ele><time>2026-04-22T17:42:58.027Z</time></trkpt><trkpt lat="44.6414409" lon="10.584461"><ele>107.16666666666666</ele><time>2026-04-22T17:43:00.027Z</time></trkpt><trkpt lat="44.6415151" lon="10.5844767"><ele>107.33333333333333</ele><time>2026-04-22T17:43:02.026Z</time></trkpt><trkpt lat="44.641592" lon="10.5845081"><ele>107.5</ele><time>2026-04-22T17:43:06.027Z</time></trkpt><trkpt lat="44.6416686" lon="10.5845536"><ele>107.66666666666666</ele><time>2026-04-22T17:43:08.027Z</time></trkpt><trkpt lat="44.6417599" lon="10.5846247"><ele>107.83333333333333</ele><time>2026-04-22T17:43:10.027Z</time></trkpt><trkpt lat="44.6418438" lon="10.5846993"><ele>108.0</ele><time>2026-04-22T17:43:12.027Z</time></trkpt><trkpt lat="44.6419303" lon="10.5847472"><ele>108.33333333333333</ele><time>2026-04-22T17:43:14.027Z</time></trkpt><trkpt lat="44.6420245" lon="10.5847486"><ele>108.66666666666666</ele><time>2026-04-22T17:43:16.027Z</time></trkpt><trkpt lat="44.64211" lon="10.5847741"><ele>109.0</ele><time>2026-04-22T17:43:18.026Z</time></trkpt><trkpt lat="44.6421977" lon="10.5848111"><ele>109.33333333333333</ele><time>2026-04-22T17:43:20.026Z</time></trkpt><trkpt lat="44.6422874" lon="10.5848421"><ele>109.66666666666666</ele><time>2026-04-22T17:43:22.027Z</time></trkpt><trkpt lat="44.6423593" lon="10.584864"><ele>110.0</ele><time>2026-04-22T17:43:24.026Z</time></trkpt><trkpt lat="44.6424222" lon="10.5848836"><ele>109.99999999999999</ele><time>2026-04-22T17:43:26.026Z</time></trkpt><trkpt lat="44.642496" lon="10.5848942"><ele>110.0</ele><time>2026-04-22T17:43:28.026Z</time></trkpt><trkpt lat="44.6425863" lon="10.5849275"><ele>110.0</ele><time>2026-04-22T17:43:31.026Z</time></trkpt><trkpt lat="44.6426745" lon="10.5849431"><ele>110.0</ele><time>2026-04-22T17:43:34.026Z</time></trkpt><trkpt lat="44.6427351" lon="10.5849682"><ele>109.99999999999999</ele><time>2026-04-22T17:43:36.026Z</time></trkpt><trkpt lat="44.6427955" lon="10.584997"><ele>110.0</ele><time>2026-04-22T17:43:38.027Z</time></trkpt><trkpt lat="44.6428683" lon="10.5850153"><ele>110.99999999999999</ele><time>2026-04-22T17:43:40.027Z</time></trkpt><trkpt lat="44.6429566" lon="10.5850582"><ele>112.0</ele><time>2026-04-22T17:43:43.026Z</time></trkpt><trkpt lat="44.6430359" lon="10.5850631"><ele>113.0</ele><time>2026-04-22T17:43:45.027Z</time></trkpt><trkpt lat="44.6431015" lon="10.5850566"><ele>114.0</ele><time>2026-04-22T17:43:47.026Z</time></trkpt><trkpt lat="44.6431673" lon="10.5850552"><ele>114.99999999999999</ele><time>2026-04-22T17:43:50.027Z</time></trkpt><trkpt lat="44.643235" lon="10.5850422"><ele>116.0</ele><time>2026-04-22T17:43:54.027Z</time></trkpt><trkpt lat="44.6433194" lon="10.5850448"><ele>115.99999999999999</ele><time>2026-04-22T17:43:59.027Z</time></trkpt><trkpt lat="44.6433733" lon="10.5850985"><ele>116.0</ele><time>2026-04-22T17:44:02.026Z</time></trkpt><trkpt lat="44.6433437" lon="10.5851774"><ele>116.0</ele><time>2026-04-22T17:44:05.026Z</time></trkpt><trkpt lat="44.6432979" lon="10.5852418"><ele>116.0</ele><time>2026-04-22T17:44:07.027Z</time></trkpt><trkpt lat="44.6432588" lon="10.5853529"><ele>115.99999999999999</ele><time>2026-04-22T17:44:09.026Z</time></trkpt><trkpt lat="44.6432383" lon="10.5854784"><ele>116.0</ele><time>2026-04-22T17:44:11.026Z</time></trkpt><trkpt lat="44.6432265" lon="10.5856085"><ele>115.49999999999999</ele><time>2026-04-22T17:44:13.027Z</time></trkpt><trkpt lat="44.6432342" lon="10.5857293"><ele>115.0</ele><time>2026-04-22T17:44:15.026Z</time></trkpt><trkpt lat="44.6432818" lon="10.5858406"><ele>114.5</ele><time>2026-04-22T17:44:17.027Z</time></trkpt><trkpt lat="44.6433375" lon="10.5859127"><ele>114.0</ele><time>2026-04-22T17:44:19.027Z</time></trkpt><trkpt lat="44.6433941" lon="10.5859824"><ele>113.49999999999999</ele><time>2026-04-22T17:44:21.026Z</time></trkpt><trkpt lat="44.6434624" lon="10.5860565"><ele>113.0</ele><time>2026-04-22T17:44:23.026Z</time></trkpt><trkpt lat="44.6435296" lon="10.5861295"><ele>112.49999999999999</ele><time>2026-04-22T17:44:25.026Z</time></trkpt><trkpt lat="44.6435945" lon="10.5862046"><ele>112.0</ele><time>2026-04-22T17:44:27.027Z</time></trkpt><trkpt lat="44.6436553" lon="10.5862825"><ele>111.5</ele><time>2026-04-22T17:44:29.027Z</time></trkpt><trkpt lat="44.6437088" lon="10.586357"><ele>111.0</ele><time>2026-04-22T17:44:31.026Z</time></trkpt><trkpt lat="44.6437634" lon="10.5864251"><ele>110.49999999999999</ele><time>2026-04-22T17:44:33.027Z</time></trkpt><trkpt lat="44.6438181" lon="10.5865112"><ele>110.0</ele><time>2026-04-22T17:44:35.027Z</time></trkpt><trkpt lat="44.6438694" lon="10.5866065"><ele>109.99999999999999</ele><time>2026-04-22T17:44:37.027Z</time></trkpt><trkpt lat="44.643938" lon="10.5866711"><ele>110.0</ele><time>2026-04-22T17:44:39.027Z</time></trkpt><trkpt lat="44.6440203" lon="10.5866922"><ele>110.0</ele><time>2026-04-22T17:44:41.026Z</time></trkpt><trkpt lat="44.6440819" lon="10.5867561"><ele>110.0</ele><time>2026-04-22T17:44:43.026Z</time></trkpt><trkpt lat="44.6441272" lon="10.5868424"><ele>109.99999999999999</ele><time>2026-04-22T17:44:45.026Z</time></trkpt><trkpt lat="44.644172" lon="10.5869322"><ele>110.0</ele><time>2026-04-22T17:44:47.026Z</time></trkpt><trkpt lat="44.6442259" lon="10.587016"><ele>109.6</ele><time>2026-04-22T17:44:49.026Z</time></trkpt><trkpt lat="44.6442885" lon="10.5871136"><ele>109.2</ele><time>2026-04-22T17:44:51.027Z</time></trkpt><trkpt lat="44.644354" lon="10.5872287"><ele>108.80000000000001</ele><time>2026-04-22T17:44:53.027Z</time></trkpt><trkpt lat="44.6444124" lon="10.5873498"><ele>108.4</ele><time>2026-04-22T17:44:55.026Z</time></trkpt><trkpt lat="44.6445026" lon="10.5874738"><ele>108.0</ele><time>2026-04-22T17:44:57.027Z</time></trkpt><trkpt lat="44.644554" lon="10.5875429"><ele>108.0</ele><time>2026-04-22T17:44:58.027Z</time></trkpt><trkpt lat="44.6446053" lon="10.5876045"><ele>108.0</ele><time>2026-04-22T17:44:59.026Z</time></trkpt><trkpt lat="44.6446688" lon="10.5876583"><ele>108.0</ele><time>2026-04-22T17:45:00.027Z</time></trkpt><trkpt lat="44.6447353" lon="10.5877271"><ele>108.0</ele><time>2026-04-22T17:45:01.026Z</time></trkpt><trkpt lat="44.6448" lon="10.5877978"><ele>108.0</ele><time>2026-04-22T17:45:02.027Z</time></trkpt><trkpt lat="44.6448523" lon="10.5878571"><ele>108.0</ele><time>2026-04-22T17:45:03.027Z</time></trkpt><trkpt lat="44.6449322" lon="10.5879555"><ele>107.60000000000001</ele><time>2026-04-22T17:45:05.027Z</time></trkpt><trkpt lat="44.645003" lon="10.5880717"><ele>107.20000000000002</ele><time>2026-04-22T17:45:07.028Z</time></trkpt><trkpt lat="44.6450976" lon="10.5881691"><ele>106.8</ele><time>2026-04-22T17:45:09.028Z</time></trkpt><trkpt lat="44.6452003" lon="10.5882467"><ele>106.4</ele><time>2026-04-22T17:45:11.028Z</time></trkpt><trkpt lat="44.6452909" lon="10.5883258"><ele>106.0</ele><time>2026-04-22T17:45:13.027Z</time></trkpt><trkpt lat="44.6453956" lon="10.5883973"><ele>106.0</ele><time>2026-04-22T17:45:15.027Z</time></trkpt><trkpt lat="44.6454741" lon="10.5885258"><ele>106.0</ele><time>2026-04-22T17:45:17.028Z</time></trkpt><trkpt lat="44.6455397" lon="10.5886556"><ele>106.0</ele><time>2026-04-22T17:45:19.027Z</time></trkpt><trkpt lat="44.6456054" lon="10.5887906"><ele>106.0</ele><time>2026-04-22T17:45:21.027Z</time></trkpt><trkpt lat="44.6456876" lon="10.5889187"><ele>105.19999999999999</ele><time>2026-04-22T17:45:23.028Z</time></trkpt><trkpt lat="44.6457331" lon="10.5890545"><ele>104.39999999999999</ele><time>2026-04-22T17:45:25.027Z</time></trkpt><trkpt lat="44.6457606" lon="10.5891837"><ele>103.6</ele><time>2026-04-22T17:45:27.027Z</time></trkpt><trkpt lat="44.6457819" lon="10.5893324"><ele>102.8</ele><time>2026-04-22T17:45:29.027Z</time></trkpt><trkpt lat="44.64581" lon="10.5894849"><ele>102.0</ele><time>2026-04-22T17:45:31.028Z</time></trkpt><trkpt lat="44.6458436" lon="10.5896372"><ele>101.25</ele><time>2026-04-22T17:45:33.028Z</time></trkpt><trkpt lat="44.6458768" lon="10.5897889"><ele>100.5</ele><time>2026-04-22T17:45:35.027Z</time></trkpt><trkpt lat="44.6459105" lon="10.5899509"><ele>99.75</ele><time>2026-04-22T17:45:37.027Z</time></trkpt><trkpt lat="44.6459405" lon="10.5901256"><ele>99.0</ele><time>2026-04-22T17:45:39.027Z</time></trkpt><trkpt lat="44.6459598" lon="10.5903019"><ele>98.80000000000001</ele><time>2026-04-22T17:45:41.027Z</time></trkpt><trkpt lat="44.6459879" lon="10.5904678"><ele>98.60000000000001</ele><time>2026-04-22T17:45:43.028Z</time></trkpt><trkpt lat="44.6460169" lon="10.590635"><ele>98.4</ele><time>2026-04-22T17:45:45.027Z</time></trkpt><trkpt lat="44.6460459" lon="10.5907939"><ele>98.2</ele><time>2026-04-22T17:45:47.028Z</time></trkpt><trkpt lat="44.6460597" lon="10.5908807"><ele>98.0</ele><time>2026-04-22T17:45:48.028Z</time></trkpt><trkpt lat="44.6460659" lon="10.5909722"><ele>98.0</ele><time>2026-04-22T17:45:49.027Z</time></trkpt><trkpt lat="44.6460686" lon="10.5910643"><ele>98.0</ele><time>2026-04-22T17:45:50.028Z</time></trkpt><trkpt lat="44.6460747" lon="10.591158"><ele>98.0</ele><time>2026-04-22T17:45:51.027Z</time></trkpt><trkpt lat="44.6460784" lon="10.5912483"><ele>98.0</ele><time>2026-04-22T17:45:52.028Z</time></trkpt><trkpt lat="44.6460806" lon="10.5913399"><ele>98.0</ele><time>2026-04-22T17:45:53.027Z</time></trkpt><trkpt lat="44.6460944" lon="10.5914333"><ele>98.0</ele><time>2026-04-22T17:45:54.028Z</time></trkpt><trkpt lat="44.6461147" lon="10.5915322"><ele>98.0</ele><time>2026-04-22T17:45:55.028Z</time></trkpt><trkpt lat="44.6461442" lon="10.5916178"><ele>97.99999999999999</ele><time>2026-04-22T17:45:56.028Z</time></trkpt><trkpt lat="44.6461808" lon="10.5916898"><ele>98.0</ele><time>2026-04-22T17:45:57.028Z</time></trkpt><trkpt lat="44.6462254" lon="10.5917561"><ele>98.0</ele><time>2026-04-22T17:45:58.028Z</time></trkpt><trkpt lat="44.6462773" lon="10.5918146"><ele>98.0</ele><time>2026-04-22T17:45:59.028Z</time></trkpt><trkpt lat="44.6463341" lon="10.591863"><ele>97.99999999999999</ele><time>2026-04-22T17:46:00.028Z</time></trkpt><trkpt lat="44.6464405" lon="10.5919613"><ele>98.0</ele><time>2026-04-22T17:46:02.028Z</time></trkpt><trkpt lat="44.6464935" lon="10.5920146"><ele>97.99999999999999</ele><time>2026-04-22T17:46:03.027Z</time></trkpt><trkpt lat="44.6465501" lon="10.5920681"><ele>98.0</ele><time>2026-04-22T17:46:04.027Z</time></trkpt><trkpt lat="44.6466035" lon="10.59212"><ele>98.0</ele><time>2026-04-22T17:46:05.028Z</time></trkpt><trkpt lat="44.6466628" lon="10.592164"><ele>98.0</ele><time>2026-04-22T17:46:06.027Z</time></trkpt><trkpt lat="44.6467254" lon="10.5922088"><ele>97.99999999999999</ele><time>2026-04-22T17:46:07.027Z</time></trkpt><trkpt lat="44.6467847" lon="10.5922488"><ele>98.0</ele><time>2026-04-22T17:46:08.027Z</time></trkpt><trkpt lat="44.6468907" lon="10.5923231"><ele>98.0</ele><time>2026-04-22T17:46:10.027Z</time></trkpt><trkpt lat="44.6469745" lon="10.5923853"><ele>98.0</ele><time>2026-04-22T17:46:12.028Z</time></trkpt><trkpt lat="44.6470567" lon="10.5924418"><ele>98.0</ele><time>2026-04-22T17:46:14.027Z</time></trkpt><trkpt lat="44.647127" lon="10.5924828"><ele>98.0</ele><time>2026-04-22T17:46:16.028Z</time></trkpt><trkpt lat="44.6472212" lon="10.5925144"><ele>98.0</ele><time>2026-04-22T17:46:18.028Z</time></trkpt><trkpt lat="44.6473367" lon="10.59254"><ele>97.99999999999999</ele><time>2026-04-22T17:46:20.027Z</time></trkpt><trkpt lat="44.6474583" lon="10.5925716"><ele>98.0</ele><time>2026-04-22T17:46:22.028Z</time></trkpt><trkpt lat="44.6475274" lon="10.592596"><ele>98.0</ele><time>2026-04-22T17:46:23.028Z</time></trkpt><trkpt lat="44.6475971" lon="10.5926162"><ele>98.0</ele><time>2026-04-22T17:46:24.028Z</time></trkpt><trkpt lat="44.6476679" lon="10.5926436"><ele>97.99999999999999</ele><time>2026-04-22T17:46:25.028Z</time></trkpt><trkpt lat="44.6477406" lon="10.5926748"><ele>98.0</ele><time>2026-04-22T17:46:26.027Z</time></trkpt><trkpt lat="44.647811" lon="10.5927044"><ele>97.83333333333333</ele><time>2026-04-22T17:46:27.027Z</time></trkpt><trkpt lat="44.6478786" lon="10.5927323"><ele>97.66666666666666</ele><time>2026-04-22T17:46:28.028Z</time></trkpt><trkpt lat="44.6479371" lon="10.5927716"><ele>97.5</ele><time>2026-04-22T17:46:29.028Z</time></trkpt><trkpt lat="44.6480444" lon="10.5928619"><ele>97.33333333333334</ele><time>2026-04-22T17:46:31.027Z</time></trkpt><trkpt lat="44.6481073" lon="10.5928937"><ele>97.16666666666667</ele><time>2026-04-22T17:46:32.028Z</time></trkpt><trkpt lat="44.6481764" lon="10.5929098"><ele>97.0</ele><time>2026-04-22T17:46:33.028Z</time></trkpt><trkpt lat="44.648242" lon="10.592934"><ele>96.8</ele><time>2026-04-22T17:46:34.028Z</time></trkpt><trkpt lat="44.6483542" lon="10.5929981"><ele>96.6</ele><time>2026-04-22T17:46:36.027Z</time></trkpt><trkpt lat="44.6484635" lon="10.5930588"><ele>96.39999999999999</ele><time>2026-04-22T17:46:38.027Z</time></trkpt><trkpt lat="44.6485659" lon="10.5931133"><ele>96.19999999999999</ele><time>2026-04-22T17:46:40.027Z</time></trkpt><trkpt lat="44.6486318" lon="10.5931393"><ele>96.0</ele><time>2026-04-22T17:46:41.028Z</time></trkpt><trkpt lat="44.6486983" lon="10.5931647"><ele>96.0</ele><time>2026-04-22T17:46:42.027Z</time></trkpt><trkpt lat="44.6487931" lon="10.5932325"><ele>96.0</ele><time>2026-04-22T17:46:44.027Z</time></trkpt><trkpt lat="44.6489047" lon="10.5932786"><ele>96.0</ele><time>2026-04-22T17:46:46.027Z</time></trkpt><trkpt lat="44.6490134" lon="10.5933117"><ele>96.0</ele><time>2026-04-22T17:46:48.028Z</time></trkpt><trkpt lat="44.6491131" lon="10.5933716"><ele>96.0</ele><time>2026-04-22T17:46:50.028Z</time></trkpt><trkpt lat="44.6492169" lon="10.5934336"><ele>96.0</ele><time>2026-04-22T17:46:52.027Z</time></trkpt><trkpt lat="44.649278" lon="10.593458"><ele>96.0</ele><time>2026-04-22T17:46:53.027Z</time></trkpt><trkpt lat="44.6493838" lon="10.5935162"><ele>96.0</ele><time>2026-04-22T17:46:55.027Z</time></trkpt><trkpt lat="44.6494866" lon="10.5935751"><ele>96.0</ele><time>2026-04-22T17:46:57.027Z</time></trkpt><trkpt lat="44.6495912" lon="10.5936192"><ele>96.0</ele><time>2026-04-22T17:46:59.027Z</time></trkpt><trkpt lat="44.6496972" lon="10.5936676"><ele>96.25</ele><time>2026-04-22T17:47:01.027Z</time></trkpt><trkpt lat="44.6498088" lon="10.593711"><ele>96.5</ele><time>2026-04-22T17:47:03.027Z</time></trkpt><trkpt lat="44.6499174" lon="10.5937689"><ele>96.75</ele><time>2026-04-22T17:47:05.027Z</time></trkpt><trkpt lat="44.6500278" lon="10.5938134"><ele>97.0</ele><time>2026-04-22T17:47:07.027Z</time></trkpt><trkpt lat="44.6501412" lon="10.5938581"><ele>97.0</ele><time>2026-04-22T17:47:09.028Z</time></trkpt><trkpt lat="44.6502514" lon="10.5939076"><ele>97.0</ele><time>2026-04-22T17:47:11.028Z</time></trkpt><trkpt lat="44.6503614" lon="10.5939437"><ele>97.0</ele><time>2026-04-22T17:47:13.027Z</time></trkpt><trkpt lat="44.6504652" lon="10.5940019"><ele>97.0</ele><time>2026-04-22T17:47:15.028Z</time></trkpt><trkpt lat="44.6505681" lon="10.5940335"><ele>97.0</ele><time>2026-04-22T17:47:17.028Z</time></trkpt><trkpt lat="44.6506779" lon="10.5940708"><ele>96.6</ele><time>2026-04-22T17:47:19.028Z</time></trkpt><trkpt lat="44.6507946" lon="10.5941072"><ele>96.19999999999999</ele><time>2026-04-22T17:47:21.027Z</time></trkpt><trkpt lat="44.6509038" lon="10.5941401"><ele>95.8</ele><time>2026-04-22T17:47:23.028Z</time></trkpt><trkpt lat="44.6510033" lon="10.5941713"><ele>95.4</ele><time>2026-04-22T17:47:25.028Z</time></trkpt><trkpt lat="44.6510959" lon="10.5942078"><ele>95.0</ele><time>2026-04-22T17:47:27.027Z</time></trkpt><trkpt lat="44.6511703" lon="10.594258"><ele>95.0</ele><time>2026-04-22T17:47:29.028Z</time></trkpt><trkpt lat="44.6512596" lon="10.5943041"><ele>95.0</ele><time>2026-04-22T17:47:31.028Z</time></trkpt><trkpt lat="44.651368" lon="10.5943603"><ele>95.0</ele><time>2026-04-22T17:47:33.028Z</time></trkpt><trkpt lat="44.6514306" lon="10.5943833"><ele>95.0</ele><time>2026-04-22T17:47:34.028Z</time></trkpt><trkpt lat="44.6514934" lon="10.5944138"><ele>95.0</ele><time>2026-04-22T17:47:35.027Z</time></trkpt><trkpt lat="44.6515507" lon="10.5944506"><ele>95.0</ele><time>2026-04-22T17:47:36.027Z</time></trkpt><trkpt lat="44.6516649" lon="10.5945291"><ele>94.83333333333334</ele><time>2026-04-22T17:47:38.028Z</time></trkpt><trkpt lat="44.6517199" lon="10.594573"><ele>94.66666666666667</ele><time>2026-04-22T17:47:39.027Z</time></trkpt><trkpt lat="44.6517759" lon="10.5946186"><ele>94.5</ele><time>2026-04-22T17:47:40.027Z</time></trkpt><trkpt lat="44.6518297" lon="10.5946652"><ele>94.33333333333333</ele><time>2026-04-22T17:47:41.028Z</time></trkpt><trkpt lat="44.6519305" lon="10.5947579"><ele>94.16666666666666</ele><time>2026-04-22T17:47:43.028Z</time></trkpt><trkpt lat="44.6520221" lon="10.5948504"><ele>94.0</ele><time>2026-04-22T17:47:45.027Z</time></trkpt><trkpt lat="44.6521254" lon="10.5949421"><ele>94.0</ele><time>2026-04-22T17:47:47.028Z</time></trkpt><trkpt lat="44.6522232" lon="10.5950316"><ele>94.0</ele><time>2026-04-22T17:47:49.028Z</time></trkpt><trkpt lat="44.652312" lon="10.595123"><ele>94.0</ele><time>2026-04-22T17:47:51.027Z</time></trkpt><trkpt lat="44.6523984" lon="10.5952063"><ele>94.0</ele><time>2026-04-22T17:47:53.027Z</time></trkpt><trkpt lat="44.6524778" lon="10.595304"><ele>94.0</ele><time>2026-04-22T17:47:55.027Z</time></trkpt><trkpt lat="44.6525498" lon="10.595429"><ele>94.0</ele><time>2026-04-22T17:47:57.027Z</time></trkpt><trkpt lat="44.6526276" lon="10.5955484"><ele>94.0</ele><time>2026-04-22T17:47:59.028Z</time></trkpt><trkpt lat="44.6527053" lon="10.5956645"><ele>94.0</ele><time>2026-04-22T17:48:01.028Z</time></trkpt><trkpt lat="44.6528028" lon="10.59576"><ele>94.0</ele><time>2026-04-22T17:48:03.027Z</time></trkpt><trkpt lat="44.652893" lon="10.5958618"><ele>94.0</ele><time>2026-04-22T17:48:05.028Z</time></trkpt><trkpt lat="44.6529845" lon="10.5959682"><ele>94.0</ele><time>2026-04-22T17:48:07.028Z</time></trkpt><trkpt lat="44.6530721" lon="10.5960603"><ele>94.0</ele><time>2026-04-22T17:48:09.028Z</time></trkpt><trkpt lat="44.6531574" lon="10.5961462"><ele>94.0</ele><time>2026-04-22T17:48:11.027Z</time></trkpt><trkpt lat="44.6532519" lon="10.5962253"><ele>94.0</ele><time>2026-04-22T17:48:13.028Z</time></trkpt><trkpt lat="44.6533472" lon="10.5963113"><ele>93.75</ele><time>2026-04-22T17:48:15.028Z</time></trkpt><trkpt lat="44.6534453" lon="10.5964095"><ele>93.5</ele><time>2026-04-22T17:48:17.028Z</time></trkpt><trkpt lat="44.65355" lon="10.5964902"><ele>93.25</ele><time>2026-04-22T17:48:19.028Z</time></trkpt><trkpt lat="44.6536437" lon="10.5965854"><ele>93.0</ele><time>2026-04-22T17:48:21.027Z</time></trkpt><trkpt lat="44.6537478" lon="10.5966704"><ele>92.75</ele><time>2026-04-22T17:48:23.028Z</time></trkpt><trkpt lat="44.6538451" lon="10.5967635"><ele>92.5</ele><time>2026-04-22T17:48:25.028Z</time></trkpt><trkpt lat="44.6539357" lon="10.5968576"><ele>92.25</ele><time>2026-04-22T17:48:27.028Z</time></trkpt><trkpt lat="44.6540275" lon="10.5969515"><ele>92.0</ele><time>2026-04-22T17:48:29.027Z</time></trkpt><trkpt lat="44.6541291" lon="10.5970405"><ele>92.0</ele><time>2026-04-22T17:48:31.027Z</time></trkpt><trkpt lat="44.6542283" lon="10.5971271"><ele>92.0</ele><time>2026-04-22T17:48:33.027Z</time></trkpt><trkpt lat="44.6543236" lon="10.5972179"><ele>92.0</ele><time>2026-04-22T17:48:35.027Z</time></trkpt><trkpt lat="44.6544187" lon="10.5973091"><ele>92.0</ele><time>2026-04-22T17:48:37.027Z</time></trkpt><trkpt lat="44.6545165" lon="10.5974022"><ele>92.0</ele><time>2026-04-22T17:48:39.028Z</time></trkpt><trkpt lat="44.65461" lon="10.5974886"><ele>92.0</ele><time>2026-04-22T17:48:41.027Z</time></trkpt><trkpt lat="44.6547126" lon="10.5975679"><ele>92.0</ele><time>2026-04-22T17:48:43.027Z</time></trkpt><trkpt lat="44.6548133" lon="10.5976566"><ele>92.0</ele><time>2026-04-22T17:48:45.027Z</time></trkpt><trkpt lat="44.654907" lon="10.5977464"><ele>91.25</ele><time>2026-04-22T17:48:47.027Z</time></trkpt><trkpt lat="44.6550017" lon="10.5978441"><ele>90.5</ele><time>2026-04-22T17:48:49.028Z</time></trkpt><trkpt lat="44.6550939" lon="10.5979345"><ele>89.75</ele><time>2026-04-22T17:48:51.028Z</time></trkpt><trkpt lat="44.655199" lon="10.5980233"><ele>89.0</ele><time>2026-04-22T17:48:53.027Z</time></trkpt><trkpt lat="44.6553001" lon="10.5981108"><ele>89.0</ele><time>2026-04-22T17:48:55.028Z</time></trkpt><trkpt lat="44.6553811" lon="10.5981913"><ele>89.0</ele><time>2026-04-22T17:48:57.027Z</time></trkpt><trkpt lat="44.6554677" lon="10.5982768"><ele>89.0</ele><time>2026-04-22T17:48:59.028Z</time></trkpt><trkpt lat="44.6555272" lon="10.5983291"><ele>89.0</ele><time>2026-04-22T17:49:02.027Z</time></trkpt><trkpt lat="44.6555934" lon="10.5983356"><ele>89.0</ele><time>2026-04-22T17:49:05.027Z</time></trkpt><trkpt lat="44.6556297" lon="10.5982335"><ele>89.0</ele><time>2026-04-22T17:49:08.027Z</time></trkpt><trkpt lat="44.6556434" lon="10.598147"><ele>89.0</ele><time>2026-04-22T17:49:10.028Z</time></trkpt><trkpt lat="44.6556621" lon="10.5980574"><ele>89.0</ele><time>2026-04-22T17:49:12.027Z</time></trkpt><trkpt lat="44.6556749" lon="10.5979658"><ele>89.0</ele><time>2026-04-22T17:49:14.027Z</time></trkpt><trkpt lat="44.6557227" lon="10.5978704"><ele>89.0</ele><time>2026-04-22T17:49:17.027Z</time></trkpt><trkpt lat="44.6557902" lon="10.5979277"><ele>89.0</ele><time>2026-04-22T17:49:20.027Z</time></trkpt><trkpt lat="44.6557982" lon="10.5980381"><ele>89.0</ele><time>2026-04-22T17:49:22.028Z</time></trkpt><trkpt lat="44.6557995" lon="10.5981633"><ele>89.0</ele><time>2026-04-22T17:49:24.028Z</time></trkpt><trkpt lat="44.6558272" lon="10.5982982"><ele>89.0</ele><time>2026-04-22T17:49:26.027Z</time></trkpt><trkpt lat="44.6558922" lon="10.5983891"><ele>89.0</ele><time>2026-04-22T17:49:28.028Z</time></trkpt><trkpt lat="44.6559879" lon="10.598427"><ele>89.0</ele><time>2026-04-22T17:49:30.028Z</time></trkpt><trkpt lat="44.6560816" lon="10.5984601"><ele>89.0</ele><time>2026-04-22T17:49:32.027Z</time></trkpt><trkpt lat="44.6561796" lon="10.5985288"><ele>88.80000000000001</ele><time>2026-04-22T17:49:34.027Z</time></trkpt><trkpt lat="44.6562687" lon="10.5985887"><ele>88.60000000000001</ele><time>2026-04-22T17:49:36.027Z</time></trkpt><trkpt lat="44.6563584" lon="10.5986539"><ele>88.4</ele><time>2026-04-22T17:49:38.028Z</time></trkpt><trkpt lat="44.6564529" lon="10.5987215"><ele>88.2</ele><time>2026-04-22T17:49:40.027Z</time></trkpt><trkpt lat="44.6565515" lon="10.5987869"><ele>88.0</ele><time>2026-04-22T17:49:42.027Z</time></trkpt><trkpt lat="44.6566467" lon="10.5988594"><ele>87.75</ele><time>2026-04-22T17:49:44.028Z</time></trkpt><trkpt lat="44.6567434" lon="10.5989362"><ele>87.5</ele><time>2026-04-22T17:49:46.028Z</time></trkpt><trkpt lat="44.6568438" lon="10.5990079"><ele>87.25</ele><time>2026-04-22T17:49:48.028Z</time></trkpt><trkpt lat="44.6569427" lon="10.5990848"><ele>87.0</ele><time>2026-04-22T17:49:50.028Z</time></trkpt><trkpt lat="44.6570527" lon="10.5991558"><ele>87.0</ele><time>2026-04-22T17:49:52.028Z</time></trkpt><trkpt lat="44.6571616" lon="10.5992187"><ele>87.0</ele><time>2026-04-22T17:49:54.029Z</time></trkpt><trkpt lat="44.6572664" lon="10.5992814"><ele>87.0</ele><time>2026-04-22T17:49:56.028Z</time></trkpt><trkpt lat="44.6573718" lon="10.5993439"><ele>87.0</ele><time>2026-04-22T17:49:58.028Z</time></trkpt><trkpt lat="44.6574734" lon="10.5994167"><ele>87.0</ele><time>2026-04-22T17:50:00.028Z</time></trkpt><trkpt lat="44.6575686" lon="10.5995046"><ele>87.0</ele><time>2026-04-22T17:50:02.029Z</time></trkpt><trkpt lat="44.6576544" lon="10.5996157"><ele>87.0</ele><time>2026-04-22T17:50:04.029Z</time></trkpt><trkpt lat="44.6577507" lon="10.5997182"><ele>87.0</ele><time>2026-04-22T17:50:06.029Z</time></trkpt><trkpt lat="44.6578492" lon="10.5998096"><ele>86.75</ele><time>2026-04-22T17:50:08.028Z</time></trkpt><trkpt lat="44.6579499" lon="10.5999054"><ele>86.5</ele><time>2026-04-22T17:50:10.029Z</time></trkpt><trkpt lat="44.6580527" lon="10.599996"><ele>86.25</ele><time>2026-04-22T17:50:12.028Z</time></trkpt><trkpt lat="44.6581547" lon="10.6000703"><ele>86.0</ele><time>2026-04-22T17:50:14.028Z</time></trkpt><trkpt lat="44.6582581" lon="10.6001365"><ele>86.0</ele><time>2026-04-22T17:50:16.028Z</time></trkpt><trkpt lat="44.6583727" lon="10.6002031"><ele>86.0</ele><time>2026-04-22T17:50:18.029Z</time></trkpt><trkpt lat="44.6584326" lon="10.6002358"><ele>86.0</ele><time>2026-04-22T17:50:19.029Z</time></trkpt><trkpt lat="44.6584897" lon="10.6002739"><ele>86.0</ele><time>2026-04-22T17:50:20.029Z</time></trkpt><trkpt lat="44.6586029" lon="10.6003497"><ele>86.0</ele><time>2026-04-22T17:50:22.028Z</time></trkpt><trkpt lat="44.658714" lon="10.6004078"><ele>85.8</ele><time>2026-04-22T17:50:24.028Z</time></trkpt><trkpt lat="44.6588257" lon="10.6004548"><ele>85.6</ele><time>2026-04-22T17:50:26.029Z</time></trkpt><trkpt lat="44.6589384" lon="10.6004968"><ele>85.4</ele><time>2026-04-22T17:50:28.028Z</time></trkpt><trkpt lat="44.6590028" lon="10.6005148"><ele>85.2</ele><time>2026-04-22T17:50:29.029Z</time></trkpt><trkpt lat="44.6591218" lon="10.6005576"><ele>85.0</ele><time>2026-04-22T17:50:31.029Z</time></trkpt><trkpt lat="44.6592396" lon="10.6006203"><ele>85.0</ele><time>2026-04-22T17:50:33.029Z</time></trkpt><trkpt lat="44.659341" lon="10.6007073"><ele>85.0</ele><time>2026-04-22T17:50:35.029Z</time></trkpt><trkpt lat="44.6594223" lon="10.6008355"><ele>85.0</ele><time>2026-04-22T17:50:37.029Z</time></trkpt><trkpt lat="44.6594692" lon="10.6009014"><ele>85.0</ele><time>2026-04-22T17:50:38.029Z</time></trkpt><trkpt lat="44.6595104" lon="10.600974"><ele>85.0</ele><time>2026-04-22T17:50:39.028Z</time></trkpt><trkpt lat="44.6595515" lon="10.6010476"><ele>85.0</ele><time>2026-04-22T17:50:40.028Z</time></trkpt><trkpt lat="44.6595914" lon="10.6011212"><ele>84.83333333333333</ele><time>2026-04-22T17:50:41.028Z</time></trkpt><trkpt lat="44.6596323" lon="10.601195"><ele>84.66666666666666</ele><time>2026-04-22T17:50:42.029Z</time></trkpt><trkpt lat="44.659677" lon="10.6012608"><ele>84.5</ele><time>2026-04-22T17:50:43.028Z</time></trkpt><trkpt lat="44.6597257" lon="10.6013175"><ele>84.33333333333333</ele><time>2026-04-22T17:50:44.028Z</time></trkpt><trkpt lat="44.6598342" lon="10.6013923"><ele>84.16666666666667</ele><time>2026-04-22T17:50:46.029Z</time></trkpt><trkpt lat="44.6599545" lon="10.6014349"><ele>84.0</ele><time>2026-04-22T17:50:48.029Z</time></trkpt><trkpt lat="44.6600725" lon="10.6014805"><ele>84.0</ele><time>2026-04-22T17:50:50.029Z</time></trkpt><trkpt lat="44.6601866" lon="10.6015467"><ele>84.0</ele><time>2026-04-22T17:50:52.029Z</time></trkpt><trkpt lat="44.6602923" lon="10.6016238"><ele>84.0</ele><time>2026-04-22T17:50:54.029Z</time></trkpt><trkpt lat="44.6603804" lon="10.6017193"><ele>84.0</ele><time>2026-04-22T17:50:56.028Z</time></trkpt><trkpt lat="44.6604638" lon="10.6018287"><ele>84.0</ele><time>2026-04-22T17:50:58.028Z</time></trkpt><trkpt lat="44.6605631" lon="10.6019117"><ele>84.0</ele><time>2026-04-22T17:51:00.029Z</time></trkpt><trkpt lat="44.6606869" lon="10.6019439"><ele>84.0</ele><time>2026-04-22T17:51:02.029Z</time></trkpt><trkpt lat="44.6607522" lon="10.6019497"><ele>84.0</ele><time>2026-04-22T17:51:03.028Z</time></trkpt><trkpt lat="44.6608162" lon="10.601962"><ele>84.0</ele><time>2026-04-22T17:51:04.029Z</time></trkpt><trkpt lat="44.6609272" lon="10.6020124"><ele>83.80000000000001</ele><time>2026-04-22T17:51:06.028Z</time></trkpt><trkpt lat="44.6610177" lon="10.6020779"><ele>83.60000000000001</ele><time>2026-04-22T17:51:08.028Z</time></trkpt><trkpt lat="44.6610977" lon="10.6021506"><ele>83.4</ele><time>2026-04-22T17:51:10.029Z</time></trkpt><trkpt lat="44.6611535" lon="10.6022419"><ele>83.2</ele><time>2026-04-22T17:51:12.028Z</time></trkpt><trkpt lat="44.661223" lon="10.6023071"><ele>83.0</ele><time>2026-04-22T17:51:14.028Z</time></trkpt><trkpt lat="44.6613183" lon="10.6023966"><ele>83.0</ele><time>2026-04-22T17:51:16.029Z</time></trkpt><trkpt lat="44.661429" lon="10.6024619"><ele>83.0</ele><time>2026-04-22T17:51:18.028Z</time></trkpt><trkpt lat="44.6615507" lon="10.602458"><ele>83.0</ele><time>2026-04-22T17:51:20.029Z</time></trkpt><trkpt lat="44.6616139" lon="10.6024576"><ele>83.0</ele><time>2026-04-22T17:51:21.029Z</time></trkpt><trkpt lat="44.6617372" lon="10.6025"><ele>83.0</ele><time>2026-04-22T17:51:23.029Z</time></trkpt><trkpt lat="44.6618471" lon="10.6025472"><ele>82.80000000000001</ele><time>2026-04-22T17:51:25.028Z</time></trkpt><trkpt lat="44.6619517" lon="10.6026059"><ele>82.6</ele><time>2026-04-22T17:51:27.029Z</time></trkpt><trkpt lat="44.6620554" lon="10.6026671"><ele>82.4</ele><time>2026-04-22T17:51:29.028Z</time></trkpt><trkpt lat="44.6621493" lon="10.6027498"><ele>82.19999999999999</ele><time>2026-04-22T17:51:31.029Z</time></trkpt><trkpt lat="44.6622263" lon="10.6028637"><ele>82.0</ele><time>2026-04-22T17:51:33.028Z</time></trkpt><trkpt lat="44.6622874" lon="10.6028864"><ele>82.0</ele><time>2026-04-22T17:51:34.029Z</time></trkpt><trkpt lat="44.6623557" lon="10.6028872"><ele>82.0</ele><time>2026-04-22T17:51:35.029Z</time></trkpt><trkpt lat="44.6624212" lon="10.6028737"><ele>82.0</ele><time>2026-04-22T17:51:36.028Z</time></trkpt><trkpt lat="44.6625221" lon="10.6028602"><ele>82.0</ele><time>2026-04-22T17:51:38.028Z</time></trkpt><trkpt lat="44.6625854" lon="10.6028495"><ele>82.0</ele><time>2026-04-22T17:51:39.028Z</time></trkpt><trkpt lat="44.662651" lon="10.6028398"><ele>82.0</ele><time>2026-04-22T17:51:40.028Z</time></trkpt><trkpt lat="44.6627607" lon="10.6028202"><ele>82.0</ele><time>2026-04-22T17:51:42.028Z</time></trkpt><trkpt lat="44.6628745" lon="10.6027984"><ele>82.0</ele><time>2026-04-22T17:51:44.028Z</time></trkpt><trkpt lat="44.6629401" lon="10.6027823"><ele>82.0</ele><time>2026-04-22T17:51:45.028Z</time></trkpt><trkpt lat="44.6630613" lon="10.602749"><ele>82.0</ele><time>2026-04-22T17:51:47.028Z</time></trkpt><trkpt lat="44.6631772" lon="10.6027335"><ele>82.0</ele><time>2026-04-22T17:51:49.028Z</time></trkpt><trkpt lat="44.6632884" lon="10.6027259"><ele>82.0</ele><time>2026-04-22T17:51:51.028Z</time></trkpt><trkpt lat="44.6634036" lon="10.6027082"><ele>82.0</ele><time>2026-04-22T17:51:53.028Z</time></trkpt><trkpt lat="44.6635067" lon="10.6026546"><ele>82.0</ele><time>2026-04-22T17:51:55.028Z</time></trkpt><trkpt lat="44.6635978" lon="10.6026073"><ele>82.0</ele><time>2026-04-22T17:51:57.029Z</time></trkpt><trkpt lat="44.6636889" lon="10.6024929"><ele>82.0</ele><time>2026-04-22T17:51:59.029Z</time></trkpt><trkpt lat="44.6637569" lon="10.6023549"><ele>81.83333333333333</ele><time>2026-04-22T17:52:01.029Z</time></trkpt><trkpt lat="44.663794" lon="10.6022832"><ele>81.66666666666666</ele><time>2026-04-22T17:52:02.028Z</time></trkpt><trkpt lat="44.6638922" lon="10.6022025"><ele>81.5</ele><time>2026-04-22T17:52:04.028Z</time></trkpt><trkpt lat="44.663996" lon="10.6021953"><ele>81.33333333333333</ele><time>2026-04-22T17:52:06.028Z</time></trkpt><trkpt lat="44.6640631" lon="10.6021876"><ele>81.16666666666667</ele><time>2026-04-22T17:52:07.028Z</time></trkpt><trkpt lat="44.6641319" lon="10.6021721"><ele>81.0</ele><time>2026-04-22T17:52:08.029Z</time></trkpt><trkpt lat="44.6641958" lon="10.6021521"><ele>81.0</ele><time>2026-04-22T17:52:09.029Z</time></trkpt><trkpt lat="44.6643074" lon="10.6021215"><ele>81.0</ele><time>2026-04-22T17:52:11.029Z</time></trkpt><trkpt lat="44.6643744" lon="10.6020992"><ele>81.0</ele><time>2026-04-22T17:52:12.029Z</time></trkpt><trkpt lat="44.6644394" lon="10.6020818"><ele>81.0</ele><time>2026-04-22T17:52:13.029Z</time></trkpt><trkpt lat="44.6645569" lon="10.6020447"><ele>81.0</ele><time>2026-04-22T17:52:15.028Z</time></trkpt><trkpt lat="44.664678" lon="10.6020138"><ele>81.16666666666667</ele><time>2026-04-22T17:52:17.029Z</time></trkpt><trkpt lat="44.6647936" lon="10.6019726"><ele>81.33333333333333</ele><time>2026-04-22T17:52:19.028Z</time></trkpt><trkpt lat="44.6649108" lon="10.6019167"><ele>81.5</ele><time>2026-04-22T17:52:21.028Z</time></trkpt><trkpt lat="44.6649707" lon="10.6018758"><ele>81.66666666666666</ele><time>2026-04-22T17:52:22.028Z</time></trkpt><trkpt lat="44.6650289" lon="10.6018362"><ele>81.83333333333333</ele><time>2026-04-22T17:52:23.028Z</time></trkpt><trkpt lat="44.6650873" lon="10.6017906"><ele>82.0</ele><time>2026-04-22T17:52:24.028Z</time></trkpt><trkpt lat="44.6651702" lon="10.6017053"><ele>82.0</ele><time>2026-04-22T17:52:26.029Z</time></trkpt><trkpt lat="44.6652324" lon="10.6016346"><ele>82.0</ele><time>2026-04-22T17:52:28.029Z</time></trkpt><trkpt lat="44.6652792" lon="10.6015707"><ele>82.0</ele><time>2026-04-22T17:52:30.029Z</time></trkpt><trkpt lat="44.6653458" lon="10.6015166"><ele>82.0</ele><time>2026-04-22T17:52:32.029Z</time></trkpt><trkpt lat="44.6654366" lon="10.6014782"><ele>82.0</ele><time>2026-04-22T17:52:34.028Z</time></trkpt><trkpt lat="44.6655314" lon="10.6014447"><ele>82.0</ele><time>2026-04-22T17:52:36.029Z</time></trkpt><trkpt lat="44.6656257" lon="10.6013991"><ele>81.83333333333333</ele><time>2026-04-22T17:52:38.029Z</time></trkpt><trkpt lat="44.6657164" lon="10.6013921"><ele>81.66666666666666</ele><time>2026-04-22T17:52:40.028Z</time></trkpt><trkpt lat="44.6658274" lon="10.6013903"><ele>81.5</ele><time>2026-04-22T17:52:42.028Z</time></trkpt><trkpt lat="44.6658986" lon="10.6013786"><ele>81.33333333333333</ele><time>2026-04-22T17:52:43.029Z</time></trkpt><trkpt lat="44.6659687" lon="10.6013691"><ele>81.16666666666667</ele><time>2026-04-22T17:52:44.029Z</time></trkpt><trkpt lat="44.6660663" lon="10.6013765"><ele>81.0</ele><time>2026-04-22T17:52:46.028Z</time></trkpt><trkpt lat="44.6661585" lon="10.6013948"><ele>81.0</ele><time>2026-04-22T17:52:48.028Z</time></trkpt><trkpt lat="44.6662564" lon="10.6014398"><ele>81.0</ele><time>2026-04-22T17:52:50.028Z</time></trkpt><trkpt lat="44.6663671" lon="10.6014448"><ele>81.0</ele><time>2026-04-22T17:52:52.028Z</time></trkpt><trkpt lat="44.6664287" lon="10.6014232"><ele>81.0</ele><time>2026-04-22T17:52:53.029Z</time></trkpt><trkpt lat="44.6665316" lon="10.6013512"><ele>81.0</ele><time>2026-04-22T17:52:55.028Z</time></trkpt><trkpt lat="44.6666179" lon="10.6012898"><ele>81.0</ele><time>2026-04-22T17:52:57.028Z</time></trkpt><trkpt lat="44.6666804" lon="10.6012447"><ele>81.0</ele><time>2026-04-22T17:52:59.029Z</time></trkpt><trkpt lat="44.6667622" lon="10.601195"><ele>81.0</ele><time>2026-04-22T17:53:02.028Z</time></trkpt><trkpt lat="44.6668466" lon="10.6011452"><ele>81.0</ele><time>2026-04-22T17:53:05.029Z</time></trkpt><trkpt lat="44.6669238" lon="10.601178"><ele>81.0</ele><time>2026-04-22T17:53:08.029Z</time></trkpt><trkpt lat="44.6670012" lon="10.6012166"><ele>81.0</ele><time>2026-04-22T17:53:11.029Z</time></trkpt><trkpt lat="44.6670793" lon="10.6012053"><ele>80.83333333333333</ele><time>2026-04-22T17:53:13.028Z</time></trkpt><trkpt lat="44.6671771" lon="10.6011759"><ele>80.66666666666667</ele><time>2026-04-22T17:53:15.028Z</time></trkpt><trkpt lat="44.6672752" lon="10.6011898"><ele>80.5</ele><time>2026-04-22T17:53:17.029Z</time></trkpt><trkpt lat="44.6673389" lon="10.6012574"><ele>80.33333333333334</ele><time>2026-04-22T17:53:19.029Z</time></trkpt><trkpt lat="44.6673786" lon="10.6013551"><ele>80.16666666666667</ele><time>2026-04-22T17:53:21.028Z</time></trkpt><trkpt lat="44.6674441" lon="10.6014094"><ele>80.0</ele><time>2026-04-22T17:53:23.029Z</time></trkpt><trkpt lat="44.6675377" lon="10.6014067"><ele>80.0</ele><time>2026-04-22T17:53:25.029Z</time></trkpt><trkpt lat="44.6676325" lon="10.6013503"><ele>80.0</ele><time>2026-04-22T17:53:27.029Z</time></trkpt><trkpt lat="44.6677191" lon="10.6013147"><ele>80.0</ele><time>2026-04-22T17:53:29.028Z</time></trkpt><trkpt lat="44.6677984" lon="10.6013196"><ele>80.0</ele><time>2026-04-22T17:53:31.028Z</time></trkpt><trkpt lat="44.6678679" lon="10.6013566"><ele>80.0</ele><time>2026-04-22T17:53:33.029Z</time></trkpt><trkpt lat="44.6679372" lon="10.6014437"><ele>80.0</ele><time>2026-04-22T17:53:35.028Z</time></trkpt><trkpt lat="44.6679849" lon="10.6015661"><ele>79.8</ele><time>2026-04-22T17:53:37.029Z</time></trkpt><trkpt lat="44.6680281" lon="10.6017047"><ele>79.6</ele><time>2026-04-22T17:53:39.029Z</time></trkpt><trkpt lat="44.6680775" lon="10.6018332"><ele>79.4</ele><time>2026-04-22T17:53:41.028Z</time></trkpt><trkpt lat="44.6681209" lon="10.6019447"><ele>79.2</ele><time>2026-04-22T17:53:43.029Z</time></trkpt><trkpt lat="44.6681715" lon="10.6020549"><ele>79.0</ele><time>2026-04-22T17:53:45.028Z</time></trkpt><trkpt lat="44.6682141" lon="10.6021764"><ele>78.4</ele><time>2026-04-22T17:53:47.029Z</time></trkpt><trkpt lat="44.6682688" lon="10.602304"><ele>77.80000000000001</ele><time>2026-04-22T17:53:49.029Z</time></trkpt><trkpt lat="44.6683379" lon="10.6024315"><ele>77.19999999999999</ele><time>2026-04-22T17:53:51.029Z</time></trkpt><trkpt lat="44.6684141" lon="10.602559"><ele>76.6</ele><time>2026-04-22T17:53:53.029Z</time></trkpt><trkpt lat="44.6684672" lon="10.6026946"><ele>76.0</ele><time>2026-04-22T17:53:55.029Z</time></trkpt><trkpt lat="44.6685046" lon="10.6028059"><ele>75.6</ele><time>2026-04-22T17:53:57.028Z</time></trkpt><trkpt lat="44.6685754" lon="10.6029018"><ele>75.19999999999999</ele><time>2026-04-22T17:53:59.029Z</time></trkpt><trkpt lat="44.6686466" lon="10.6029945"><ele>74.80000000000001</ele><time>2026-04-22T17:54:01.029Z</time></trkpt><trkpt lat="44.6687256" lon="10.6031037"><ele>74.4</ele><time>2026-04-22T17:54:03.029Z</time></trkpt><trkpt lat="44.6687935" lon="10.6032522"><ele>74.0</ele><time>2026-04-22T17:54:05.029Z</time></trkpt><trkpt lat="44.6688338" lon="10.6034111"><ele>75.0</ele><time>2026-04-22T17:54:07.029Z</time></trkpt><trkpt lat="44.6688521" lon="10.6035736"><ele>76.0</ele><time>2026-04-22T17:54:09.029Z</time></trkpt><trkpt lat="44.6688534" lon="10.6037375"><ele>77.0</ele><time>2026-04-22T17:54:11.028Z</time></trkpt><trkpt lat="44.6688422" lon="10.6038931"><ele>78.0</ele><time>2026-04-22T17:54:13.029Z</time></trkpt><trkpt lat="44.6688361" lon="10.6040483"><ele>78.2</ele><time>2026-04-22T17:54:15.029Z</time></trkpt><trkpt lat="44.6688374" lon="10.6041856"><ele>78.4</ele><time>2026-04-22T17:54:17.028Z</time></trkpt><trkpt lat="44.6688495" lon="10.6043269"><ele>78.60000000000001</ele><time>2026-04-22T17:54:19.028Z</time></trkpt><trkpt lat="44.6688649" lon="10.6044673"><ele>78.8</ele><time>2026-04-22T17:54:21.028Z</time></trkpt><trkpt lat="44.6688764" lon="10.6046081"><ele>79.0</ele><time>2026-04-22T17:54:23.029Z</time></trkpt><trkpt lat="44.6688791" lon="10.6047672"><ele>78.5</ele><time>2026-04-22T17:54:25.028Z</time></trkpt><trkpt lat="44.6688864" lon="10.6049226"><ele>78.0</ele><time>2026-04-22T17:54:27.029Z</time></trkpt><trkpt lat="44.6688939" lon="10.6050832"><ele>77.5</ele><time>2026-04-22T17:54:29.028Z</time></trkpt><trkpt lat="44.6689027" lon="10.6052392"><ele>77.0</ele><time>2026-04-22T17:54:31.028Z</time></trkpt><trkpt lat="44.6689124" lon="10.6053982"><ele>76.8</ele><time>2026-04-22T17:54:33.028Z</time></trkpt><trkpt lat="44.6689211" lon="10.6054885"><ele>76.6</ele><time>2026-04-22T17:54:34.029Z</time></trkpt><trkpt lat="44.6689494" lon="10.6056394"><ele>76.39999999999999</ele><time>2026-04-22T17:54:36.029Z</time></trkpt><trkpt lat="44.6689719" lon="10.6058009"><ele>76.2</ele><time>2026-04-22T17:54:38.028Z</time></trkpt><trkpt lat="44.668966" lon="10.6059661"><ele>76.0</ele><time>2026-04-22T17:54:40.03Z</time></trkpt><trkpt lat="44.6689798" lon="10.6061172"><ele>75.8</ele><time>2026-04-22T17:54:42.03Z</time></trkpt><trkpt lat="44.6689878" lon="10.6062358"><ele>75.6</ele><time>2026-04-22T17:54:44.03Z</time></trkpt><trkpt lat="44.6689855" lon="10.6063518"><ele>75.4</ele><time>2026-04-22T17:54:46.029Z</time></trkpt><trkpt lat="44.6689875" lon="10.6065007"><ele>75.2</ele><time>2026-04-22T17:54:48.03Z</time></trkpt><trkpt lat="44.6690008" lon="10.6066653"><ele>75.0</ele><time>2026-04-22T17:54:50.029Z</time></trkpt><trkpt lat="44.6690167" lon="10.6068163"><ele>75.0</ele><time>2026-04-22T17:54:52.03Z</time></trkpt><trkpt lat="44.6690432" lon="10.6069761"><ele>75.0</ele><time>2026-04-22T17:54:54.029Z</time></trkpt><trkpt lat="44.6690612" lon="10.6071305"><ele>75.0</ele><time>2026-04-22T17:54:56.029Z</time></trkpt><trkpt lat="44.6690665" lon="10.6073068"><ele>75.0</ele><time>2026-04-22T17:54:58.029Z</time></trkpt><trkpt lat="44.6690821" lon="10.607466"><ele>75.0</ele><time>2026-04-22T17:55:00.03Z</time></trkpt><trkpt lat="44.6690899" lon="10.6076267"><ele>75.0</ele><time>2026-04-22T17:55:02.029Z</time></trkpt><trkpt lat="44.6691025" lon="10.6078025"><ele>75.0</ele><time>2026-04-22T17:55:04.029Z</time></trkpt><trkpt lat="44.6691141" lon="10.6079814"><ele>75.0</ele><time>2026-04-22T17:55:06.03Z</time></trkpt><trkpt lat="44.6691222" lon="10.6080742"><ele>75.0</ele><time>2026-04-22T17:55:07.029Z</time></trkpt><trkpt lat="44.6691269" lon="10.6081733"><ele>75.0</ele><time>2026-04-22T17:55:08.029Z</time></trkpt><trkpt lat="44.669137" lon="10.6082637"><ele>75.0</ele><time>2026-04-22T17:55:09.029Z</time></trkpt><trkpt lat="44.6691446" lon="10.6083551"><ele>75.0</ele><time>2026-04-22T17:55:10.03Z</time></trkpt><trkpt lat="44.6691553" lon="10.6085329"><ele>75.0</ele><time>2026-04-22T17:55:12.029Z</time></trkpt><trkpt lat="44.6691598" lon="10.608626"><ele>75.0</ele><time>2026-04-22T17:55:13.029Z</time></trkpt><trkpt lat="44.6691658" lon="10.608724"><ele>75.0</ele><time>2026-04-22T17:55:14.029Z</time></trkpt><trkpt lat="44.6691686" lon="10.6088268"><ele>74.83333333333333</ele><time>2026-04-22T17:55:15.03Z</time></trkpt><trkpt lat="44.6691837" lon="10.6089286"><ele>74.66666666666667</ele><time>2026-04-22T17:55:16.03Z</time></trkpt><trkpt lat="44.6691939" lon="10.6090334"><ele>74.5</ele><time>2026-04-22T17:55:17.03Z</time></trkpt><trkpt lat="44.669207" lon="10.6091284"><ele>74.33333333333334</ele><time>2026-04-22T17:55:18.029Z</time></trkpt><trkpt lat="44.6692281" lon="10.6092146"><ele>74.16666666666667</ele><time>2026-04-22T17:55:19.029Z</time></trkpt><trkpt lat="44.6692511" lon="10.6093009"><ele>74.0</ele><time>2026-04-22T17:55:20.029Z</time></trkpt><trkpt lat="44.6693012" lon="10.6094573"><ele>74.0</ele><time>2026-04-22T17:55:22.03Z</time></trkpt><trkpt lat="44.6693537" lon="10.6096142"><ele>74.0</ele><time>2026-04-22T17:55:24.03Z</time></trkpt><trkpt lat="44.6693789" lon="10.6097025"><ele>74.0</ele><time>2026-04-22T17:55:25.03Z</time></trkpt><trkpt lat="44.669407" lon="10.6097885"><ele>74.0</ele><time>2026-04-22T17:55:26.03Z</time></trkpt><trkpt lat="44.6694329" lon="10.6098735"><ele>74.0</ele><time>2026-04-22T17:55:27.03Z</time></trkpt><trkpt lat="44.6694644" lon="10.6099544"><ele>74.0</ele><time>2026-04-22T17:55:28.03Z</time></trkpt><trkpt lat="44.6695424" lon="10.6100916"><ele>74.0</ele><time>2026-04-22T17:55:30.029Z</time></trkpt><trkpt lat="44.6695889" lon="10.6101565"><ele>74.0</ele><time>2026-04-22T17:55:31.03Z</time></trkpt><trkpt lat="44.6696732" lon="10.6102702"><ele>74.0</ele><time>2026-04-22T17:55:33.03Z</time></trkpt><trkpt lat="44.6697525" lon="10.6103788"><ele>74.0</ele><time>2026-04-22T17:55:35.029Z</time></trkpt><trkpt lat="44.6698324" lon="10.6104776"><ele>74.0</ele><time>2026-04-22T17:55:37.03Z</time></trkpt><trkpt lat="44.6699171" lon="10.6105897"><ele>73.75</ele><time>2026-04-22T17:55:39.029Z</time></trkpt><trkpt lat="44.6700002" lon="10.6106849"><ele>73.5</ele><time>2026-04-22T17:55:41.03Z</time></trkpt><trkpt lat="44.6700814" lon="10.6107893"><ele>73.25</ele><time>2026-04-22T17:55:43.03Z</time></trkpt><trkpt lat="44.6701717" lon="10.6108919"><ele>73.0</ele><time>2026-04-22T17:55:45.03Z</time></trkpt><trkpt lat="44.6702565" lon="10.6110074"><ele>73.4</ele><time>2026-04-22T17:55:47.03Z</time></trkpt><trkpt lat="44.6703358" lon="10.6111213"><ele>73.8</ele><time>2026-04-22T17:55:49.029Z</time></trkpt><trkpt lat="44.6704144" lon="10.6112146"><ele>74.2</ele><time>2026-04-22T17:55:51.029Z</time></trkpt><trkpt lat="44.6704957" lon="10.6113269"><ele>74.6</ele><time>2026-04-22T17:55:53.029Z</time></trkpt><trkpt lat="44.6705729" lon="10.6114388"><ele>75.0</ele><time>2026-04-22T17:55:55.03Z</time></trkpt><trkpt lat="44.6706239" lon="10.6115039"><ele>74.33333333333333</ele><time>2026-04-22T17:55:56.03Z</time></trkpt><trkpt lat="44.6706756" lon="10.6115597"><ele>73.66666666666667</ele><time>2026-04-22T17:55:57.029Z</time></trkpt><trkpt lat="44.6707493" lon="10.6116536"><ele>73.0</ele><time>2026-04-22T17:55:59.029Z</time></trkpt><trkpt lat="44.670806" lon="10.6116928"><ele>72.33333333333334</ele><time>2026-04-22T17:56:00.03Z</time></trkpt><trkpt lat="44.6709092" lon="10.6118062"><ele>71.66666666666667</ele><time>2026-04-22T17:56:02.03Z</time></trkpt><trkpt lat="44.6709558" lon="10.6118669"><ele>71.0</ele><time>2026-04-22T17:56:03.029Z</time></trkpt><trkpt lat="44.6710527" lon="10.6119598"><ele>71.5</ele><time>2026-04-22T17:56:05.029Z</time></trkpt><trkpt lat="44.6711397" lon="10.6120664"><ele>72.0</ele><time>2026-04-22T17:56:07.029Z</time></trkpt><trkpt lat="44.6712179" lon="10.6121866"><ele>72.5</ele><time>2026-04-22T17:56:09.03Z</time></trkpt><trkpt lat="44.6712866" lon="10.6123237"><ele>73.0</ele><time>2026-04-22T17:56:11.03Z</time></trkpt><trkpt lat="44.6713513" lon="10.6124494"><ele>73.0</ele><time>2026-04-22T17:56:13.03Z</time></trkpt><trkpt lat="44.6714185" lon="10.6125761"><ele>73.0</ele><time>2026-04-22T17:56:15.03Z</time></trkpt><trkpt lat="44.6714873" lon="10.612682"><ele>73.0</ele><time>2026-04-22T17:56:17.029Z</time></trkpt><trkpt lat="44.671555" lon="10.6128294"><ele>73.0</ele><time>2026-04-22T17:56:19.029Z</time></trkpt><trkpt lat="44.6716052" lon="10.6129761"><ele>73.0</ele><time>2026-04-22T17:56:21.03Z</time></trkpt><trkpt lat="44.6716388" lon="10.6130521"><ele>73.0</ele><time>2026-04-22T17:56:22.03Z</time></trkpt><trkpt lat="44.6717085" lon="10.6132024"><ele>73.0</ele><time>2026-04-22T17:56:24.03Z</time></trkpt><trkpt lat="44.6717535" lon="10.613277"><ele>73.0</ele><time>2026-04-22T17:56:25.03Z</time></trkpt><trkpt lat="44.6718044" lon="10.6133392"><ele>73.0</ele><time>2026-04-22T17:56:26.029Z</time></trkpt><trkpt lat="44.6718536" lon="10.6134025"><ele>73.0</ele><time>2026-04-22T17:56:27.03Z</time></trkpt><trkpt lat="44.6719528" lon="10.6135162"><ele>73.0</ele><time>2026-04-22T17:56:29.029Z</time></trkpt><trkpt lat="44.6720107" lon="10.6135843"><ele>73.0</ele><time>2026-04-22T17:56:30.029Z</time></trkpt><trkpt lat="44.6720644" lon="10.6136513"><ele>73.0</ele><time>2026-04-22T17:56:31.03Z</time></trkpt><trkpt lat="44.6721124" lon="10.6137212"><ele>73.0</ele><time>2026-04-22T17:56:32.029Z</time></trkpt><trkpt lat="44.6721783" lon="10.6138626"><ele>73.0</ele><time>2026-04-22T17:56:34.03Z</time></trkpt><trkpt lat="44.6722412" lon="10.6140029"><ele>73.0</ele><time>2026-04-22T17:56:36.029Z</time></trkpt><trkpt lat="44.6723149" lon="10.6141331"><ele>73.0</ele><time>2026-04-22T17:56:38.03Z</time></trkpt><trkpt lat="44.6723923" lon="10.6142658"><ele>73.0</ele><time>2026-04-22T17:56:40.03Z</time></trkpt><trkpt lat="44.6724367" lon="10.6143338"><ele>73.0</ele><time>2026-04-22T17:56:41.03Z</time></trkpt><trkpt lat="44.6724796" lon="10.6143993"><ele>73.0</ele><time>2026-04-22T17:56:42.029Z</time></trkpt><trkpt lat="44.6725212" lon="10.6144666"><ele>73.0</ele><time>2026-04-22T17:56:43.03Z</time></trkpt><trkpt lat="44.6725552" lon="10.6145424"><ele>72.5</ele><time>2026-04-22T17:56:44.029Z</time></trkpt><trkpt lat="44.6726168" lon="10.614701"><ele>72.0</ele><time>2026-04-22T17:56:46.03Z</time></trkpt><trkpt lat="44.6726456" lon="10.6147916"><ele>71.5</ele><time>2026-04-22T17:56:47.03Z</time></trkpt><trkpt lat="44.6726748" lon="10.6148835"><ele>71.0</ele><time>2026-04-22T17:56:48.03Z</time></trkpt><trkpt lat="44.6727065" lon="10.6149655"><ele>70.5</ele><time>2026-04-22T17:56:49.029Z</time></trkpt><trkpt lat="44.6727399" lon="10.6150466"><ele>70.0</ele><time>2026-04-22T17:56:50.03Z</time></trkpt><trkpt lat="44.6727772" lon="10.6151265"><ele>71.0</ele><time>2026-04-22T17:56:51.03Z</time></trkpt><trkpt lat="44.6728134" lon="10.6152036"><ele>72.0</ele><time>2026-04-22T17:56:52.03Z</time></trkpt><trkpt lat="44.6728429" lon="10.6152822"><ele>73.0</ele><time>2026-04-22T17:56:53.029Z</time></trkpt><trkpt lat="44.6728966" lon="10.615437"><ele>74.0</ele><time>2026-04-22T17:56:55.03Z</time></trkpt><trkpt lat="44.6729533" lon="10.6155849"><ele>75.0</ele><time>2026-04-22T17:56:57.029Z</time></trkpt><trkpt lat="44.673004" lon="10.6157361"><ele>75.0</ele><time>2026-04-22T17:56:59.029Z</time></trkpt><trkpt lat="44.6730354" lon="10.6158133"><ele>75.0</ele><time>2026-04-22T17:57:00.028Z</time></trkpt><trkpt lat="44.6730812" lon="10.6159658"><ele>75.0</ele><time>2026-04-22T17:57:02.03Z</time></trkpt><trkpt lat="44.6731101" lon="10.616139"><ele>75.0</ele><time>2026-04-22T17:57:04.029Z</time></trkpt><trkpt lat="44.6731398" lon="10.6163064"><ele>75.0</ele><time>2026-04-22T17:57:06.03Z</time></trkpt><trkpt lat="44.6731818" lon="10.6164591"><ele>74.33333333333333</ele><time>2026-04-22T17:57:08.03Z</time></trkpt><trkpt lat="44.6732299" lon="10.6166165"><ele>73.66666666666667</ele><time>2026-04-22T17:57:10.03Z</time></trkpt><trkpt lat="44.6732534" lon="10.6167008"><ele>73.0</ele><time>2026-04-22T17:57:11.029Z</time></trkpt><trkpt lat="44.6732821" lon="10.6167819"><ele>72.33333333333334</ele><time>2026-04-22T17:57:12.029Z</time></trkpt><trkpt lat="44.6733183" lon="10.6168634"><ele>71.66666666666667</ele><time>2026-04-22T17:57:13.029Z</time></trkpt><trkpt lat="44.6733458" lon="10.6169464"><ele>71.0</ele><time>2026-04-22T17:57:14.029Z</time></trkpt><trkpt lat="44.6733717" lon="10.6170313"><ele>70.6</ele><time>2026-04-22T17:57:15.029Z</time></trkpt><trkpt lat="44.6733901" lon="10.6171176"><ele>70.19999999999999</ele><time>2026-04-22T17:57:16.03Z</time></trkpt><trkpt lat="44.6734219" lon="10.6172893"><ele>69.80000000000001</ele><time>2026-04-22T17:57:18.03Z</time></trkpt><trkpt lat="44.6734425" lon="10.6173806"><ele>69.4</ele><time>2026-04-22T17:57:19.03Z</time></trkpt><trkpt lat="44.6734861" lon="10.6175392"><ele>69.0</ele><time>2026-04-22T17:57:21.029Z</time></trkpt><trkpt lat="44.67352" lon="10.6177049"><ele>69.2</ele><time>2026-04-22T17:57:23.03Z</time></trkpt><trkpt lat="44.6735498" lon="10.6178745"><ele>69.4</ele><time>2026-04-22T17:57:25.03Z</time></trkpt><trkpt lat="44.6735662" lon="10.6179622"><ele>69.6</ele><time>2026-04-22T17:57:26.03Z</time></trkpt><trkpt lat="44.673601" lon="10.618125"><ele>69.8</ele><time>2026-04-22T17:57:28.029Z</time></trkpt><trkpt lat="44.6736399" lon="10.6182727"><ele>70.0</ele><time>2026-04-22T17:57:30.029Z</time></trkpt><trkpt lat="44.6736636" lon="10.6184265"><ele>70.0</ele><time>2026-04-22T17:57:32.03Z</time></trkpt><trkpt lat="44.6736877" lon="10.6185548"><ele>70.0</ele><time>2026-04-22T17:57:34.03Z</time></trkpt><trkpt lat="44.6737167" lon="10.6186513"><ele>70.0</ele><time>2026-04-22T17:57:36.029Z</time></trkpt><trkpt lat="44.6737372" lon="10.6187413"><ele>70.0</ele><time>2026-04-22T17:57:38.029Z</time></trkpt><trkpt lat="44.673717" lon="10.618854"><ele>70.0</ele><time>2026-04-22T17:57:40.03Z</time></trkpt><trkpt lat="44.6736911" lon="10.6189729"><ele>70.0</ele><time>2026-04-22T17:57:42.03Z</time></trkpt><trkpt lat="44.6737018" lon="10.6191187"><ele>70.4</ele><time>2026-04-22T17:57:44.03Z</time></trkpt><trkpt lat="44.6737295" lon="10.6192925"><ele>70.8</ele><time>2026-04-22T17:57:46.029Z</time></trkpt><trkpt lat="44.6737517" lon="10.619462"><ele>71.2</ele><time>2026-04-22T17:57:48.029Z</time></trkpt><trkpt lat="44.673762" lon="10.6195514"><ele>71.6</ele><time>2026-04-22T17:57:49.03Z</time></trkpt><trkpt lat="44.6737818" lon="10.6196517"><ele>72.0</ele><time>2026-04-22T17:57:50.03Z</time></trkpt><trkpt lat="44.6737977" lon="10.6197444"><ele>72.0</ele><time>2026-04-22T17:57:51.029Z</time></trkpt><trkpt lat="44.673826" lon="10.6199055"><ele>72.0</ele><time>2026-04-22T17:57:53.029Z</time></trkpt><trkpt lat="44.6738491" lon="10.6200657"><ele>72.0</ele><time>2026-04-22T17:57:55.029Z</time></trkpt><trkpt lat="44.6738667" lon="10.6202042"><ele>72.0</ele><time>2026-04-22T17:57:57.03Z</time></trkpt><trkpt lat="44.6738934" lon="10.6203218"><ele>72.0</ele><time>2026-04-22T17:57:59.029Z</time></trkpt><trkpt lat="44.6739195" lon="10.6204433"><ele>72.0</ele><time>2026-04-22T17:58:01.03Z</time></trkpt><trkpt lat="44.6739546" lon="10.6205678"><ele>72.0</ele><time>2026-04-22T17:58:03.029Z</time></trkpt><trkpt lat="44.6739845" lon="10.6207158"><ele>72.0</ele><time>2026-04-22T17:58:05.03Z</time></trkpt><trkpt lat="44.6739992" lon="10.6208709"><ele>72.0</ele><time>2026-04-22T17:58:07.029Z</time></trkpt><trkpt lat="44.6740136" lon="10.6210163"><ele>72.0</ele><time>2026-04-22T17:58:09.029Z</time></trkpt><trkpt lat="44.6740346" lon="10.6211797"><ele>71.6</ele><time>2026-04-22T17:58:11.029Z</time></trkpt><trkpt lat="44.674043" lon="10.6213376"><ele>71.2</ele><time>2026-04-22T17:58:13.029Z</time></trkpt><trkpt lat="44.6740556" lon="10.6214892"><ele>70.8</ele><time>2026-04-22T17:58:15.029Z</time></trkpt><trkpt lat="44.6740843" lon="10.6216342"><ele>70.4</ele><time>2026-04-22T17:58:17.03Z</time></trkpt><trkpt lat="44.6740904" lon="10.6217772"><ele>70.0</ele><time>2026-04-22T17:58:19.03Z</time></trkpt><trkpt lat="44.6740925" lon="10.621942"><ele>69.4</ele><time>2026-04-22T17:58:21.03Z</time></trkpt><trkpt lat="44.6741079" lon="10.6220899"><ele>68.8</ele><time>2026-04-22T17:58:23.03Z</time></trkpt><trkpt lat="44.6741168" lon="10.6222308"><ele>68.2</ele><time>2026-04-22T17:58:25.03Z</time></trkpt><trkpt lat="44.674123" lon="10.6223609"><ele>67.6</ele><time>2026-04-22T17:58:27.029Z</time></trkpt><trkpt lat="44.6741052" lon="10.6224789"><ele>67.0</ele><time>2026-04-22T17:58:29.029Z</time></trkpt><trkpt lat="44.6740731" lon="10.6225912"><ele>67.0</ele><time>2026-04-22T17:58:31.03Z</time></trkpt><trkpt lat="44.6740437" lon="10.6226997"><ele>67.0</ele><time>2026-04-22T17:58:33.029Z</time></trkpt><trkpt lat="44.6739879" lon="10.6227697"><ele>67.0</ele><time>2026-04-22T17:58:35.029Z</time></trkpt><trkpt lat="44.6739026" lon="10.6227753"><ele>67.0</ele><time>2026-04-22T17:58:37.029Z</time></trkpt><trkpt lat="44.6738113" lon="10.6227817"><ele>67.0</ele><time>2026-04-22T17:58:39.029Z</time></trkpt><trkpt lat="44.6737299" lon="10.6227867"><ele>67.0</ele><time>2026-04-22T17:58:41.029Z</time></trkpt><trkpt lat="44.6736622" lon="10.6227935"><ele>67.0</ele><time>2026-04-22T17:58:43.029Z</time></trkpt><trkpt lat="44.6735971" lon="10.6228116"><ele>67.0</ele><time>2026-04-22T17:58:45.029Z</time></trkpt><trkpt lat="44.6735697" lon="10.6229213"><ele>67.0</ele><time>2026-04-22T17:58:48.03Z</time></trkpt><trkpt lat="44.6735978" lon="10.6230235"><ele>67.0</ele><time>2026-04-22T17:58:50.029Z</time></trkpt><trkpt lat="44.6736291" lon="10.6231334"><ele>67.0</ele><time>2026-04-22T17:58:52.03Z</time></trkpt><trkpt lat="44.6736557" lon="10.6232468"><ele>67.0</ele><time>2026-04-22T17:58:54.03Z</time></trkpt><trkpt lat="44.6736802" lon="10.6233817"><ele>67.0</ele><time>2026-04-22T17:58:56.03Z</time></trkpt><trkpt lat="44.6736994" lon="10.6235156"><ele>67.0</ele><time>2026-04-22T17:58:58.029Z</time></trkpt><trkpt lat="44.6737183" lon="10.6236352"><ele>67.0</ele><time>2026-04-22T17:59:00.029Z</time></trkpt><trkpt lat="44.673734" lon="10.6237587"><ele>67.0</ele><time>2026-04-22T17:59:02.03Z</time></trkpt><trkpt lat="44.6737287" lon="10.6238781"><ele>67.0</ele><time>2026-04-22T17:59:04.03Z</time></trkpt><trkpt lat="44.6737218" lon="10.6239962"><ele>67.0</ele><time>2026-04-22T17:59:06.029Z</time></trkpt><trkpt lat="44.6737191" lon="10.6241034"><ele>67.0</ele><time>2026-04-22T17:59:08.03Z</time></trkpt><trkpt lat="44.6737206" lon="10.6241949"><ele>67.0</ele><time>2026-04-22T17:59:10.03Z</time></trkpt><trkpt lat="44.6737259" lon="10.6243052"><ele>67.0</ele><time>2026-04-22T17:59:12.029Z</time></trkpt><trkpt lat="44.6737598" lon="10.6243829"><ele>67.0</ele><time>2026-04-22T17:59:14.03Z</time></trkpt><trkpt lat="44.6738127" lon="10.6244513"><ele>67.0</ele><time>2026-04-22T17:59:17.03Z</time></trkpt><trkpt lat="44.6738846" lon="10.6245164"><ele>67.0</ele><time>2026-04-22T17:59:20.029Z</time></trkpt><trkpt lat="44.6739389" lon="10.6245769"><ele>67.0</ele><time>2026-04-22T17:59:22.03Z</time></trkpt><trkpt lat="44.6740142" lon="10.6246475"><ele>67.4</ele><time>2026-04-22T17:59:24.029Z</time></trkpt><trkpt lat="44.6740995" lon="10.6247217"><ele>67.80000000000001</ele><time>2026-04-22T17:59:26.029Z</time></trkpt><trkpt lat="44.6741674" lon="10.6248075"><ele>68.2</ele><time>2026-04-22T17:59:28.031Z</time></trkpt><trkpt lat="44.6742548" lon="10.6248913"><ele>68.60000000000001</ele><time>2026-04-22T17:59:30.031Z</time></trkpt><trkpt lat="44.6743325" lon="10.6250028"><ele>69.0</ele><time>2026-04-22T17:59:32.03Z</time></trkpt><trkpt lat="44.6744032" lon="10.6251323"><ele>69.0</ele><time>2026-04-22T17:59:34.03Z</time></trkpt><trkpt lat="44.6744905" lon="10.6252225"><ele>69.0</ele><time>2026-04-22T17:59:36.03Z</time></trkpt><trkpt lat="44.674592" lon="10.6252923"><ele>69.0</ele><time>2026-04-22T17:59:38.031Z</time></trkpt><trkpt lat="44.6746859" lon="10.6253698"><ele>69.0</ele><time>2026-04-22T17:59:40.03Z</time></trkpt><trkpt lat="44.6747881" lon="10.6254484"><ele>69.0</ele><time>2026-04-22T17:59:42.031Z</time></trkpt><trkpt lat="44.6748943" lon="10.6255286"><ele>69.0</ele><time>2026-04-22T17:59:44.03Z</time></trkpt><trkpt lat="44.6749933" lon="10.6256193"><ele>69.0</ele><time>2026-04-22T17:59:46.031Z</time></trkpt><trkpt lat="44.6751003" lon="10.625717"><ele>69.0</ele><time>2026-04-22T17:59:48.031Z</time></trkpt><trkpt lat="44.6751553" lon="10.6257678"><ele>69.0</ele><time>2026-04-22T17:59:49.03Z</time></trkpt><trkpt lat="44.6752173" lon="10.6258115"><ele>69.0</ele><time>2026-04-22T17:59:50.031Z</time></trkpt><trkpt lat="44.6752797" lon="10.6258511"><ele>69.0</ele><time>2026-04-22T17:59:51.031Z</time></trkpt><trkpt lat="44.6753369" lon="10.6259056"><ele>69.0</ele><time>2026-04-22T17:59:52.03Z</time></trkpt><trkpt lat="44.67539" lon="10.6259625"><ele>69.0</ele><time>2026-04-22T17:59:53.03Z</time></trkpt><trkpt lat="44.6754788" lon="10.6260727"><ele>69.0</ele><time>2026-04-22T17:59:55.03Z</time></trkpt><trkpt lat="44.6755903" lon="10.6261543"><ele>69.0</ele><time>2026-04-22T17:59:57.031Z</time></trkpt><trkpt lat="44.6756983" lon="10.6262355"><ele>69.0</ele><time>2026-04-22T17:59:59.03Z</time></trkpt><trkpt lat="44.675799" lon="10.6263116"><ele>69.0</ele><time>2026-04-22T18:00:01.03Z</time></trkpt><trkpt lat="44.675896" lon="10.6263835"><ele>69.0</ele><time>2026-04-22T18:00:03.031Z</time></trkpt><trkpt lat="44.6760032" lon="10.6264424"><ele>69.0</ele><time>2026-04-22T18:00:05.031Z</time></trkpt><trkpt lat="44.676106" lon="10.6264894"><ele>69.0</ele><time>2026-04-22T18:00:07.031Z</time></trkpt><trkpt lat="44.6762167" lon="10.6265243"><ele>69.0</ele><time>2026-04-22T18:00:09.03Z</time></trkpt><trkpt lat="44.6763314" lon="10.6265336"><ele>69.2</ele><time>2026-04-22T18:00:11.03Z</time></trkpt><trkpt lat="44.6764417" lon="10.6265303"><ele>69.4</ele><time>2026-04-22T18:00:13.03Z</time></trkpt><trkpt lat="44.6765474" lon="10.6265092"><ele>69.6</ele><time>2026-04-22T18:00:15.03Z</time></trkpt><trkpt lat="44.6766567" lon="10.6264854"><ele>69.8</ele><time>2026-04-22T18:00:17.03Z</time></trkpt><trkpt lat="44.6767501" lon="10.6264426"><ele>70.0</ele><time>2026-04-22T18:00:19.03Z</time></trkpt><trkpt lat="44.6768564" lon="10.6263935"><ele>70.0</ele><time>2026-04-22T18:00:21.03Z</time></trkpt><trkpt lat="44.6769626" lon="10.6263393"><ele>70.0</ele><time>2026-04-22T18:00:23.03Z</time></trkpt><trkpt lat="44.6770765" lon="10.6262865"><ele>70.0</ele><time>2026-04-22T18:00:25.03Z</time></trkpt><trkpt lat="44.6771735" lon="10.6262337"><ele>70.0</ele><time>2026-04-22T18:00:27.03Z</time></trkpt><trkpt lat="44.6772696" lon="10.6261771"><ele>70.0</ele><time>2026-04-22T18:00:29.03Z</time></trkpt><trkpt lat="44.6773747" lon="10.6261222"><ele>69.4</ele><time>2026-04-22T18:00:31.03Z</time></trkpt><trkpt lat="44.6774719" lon="10.6260722"><ele>68.8</ele><time>2026-04-22T18:00:33.031Z</time></trkpt><trkpt lat="44.6775682" lon="10.6260278"><ele>68.2</ele><time>2026-04-22T18:00:35.031Z</time></trkpt><trkpt lat="44.677672" lon="10.6259875"><ele>67.6</ele><time>2026-04-22T18:00:37.031Z</time></trkpt><trkpt lat="44.677769" lon="10.6259539"><ele>67.0</ele><time>2026-04-22T18:00:39.031Z</time></trkpt><trkpt lat="44.6778695" lon="10.6259295"><ele>67.0</ele><time>2026-04-22T18:00:41.031Z</time></trkpt><trkpt lat="44.6779735" lon="10.6259141"><ele>67.0</ele><time>2026-04-22T18:00:43.03Z</time></trkpt><trkpt lat="44.6780718" lon="10.6258836"><ele>67.0</ele><time>2026-04-22T18:00:45.03Z</time></trkpt><trkpt lat="44.678181" lon="10.625858"><ele>67.0</ele><time>2026-04-22T18:00:47.031Z</time></trkpt><trkpt lat="44.6782891" lon="10.6258288"><ele>67.0</ele><time>2026-04-22T18:00:49.03Z</time></trkpt><trkpt lat="44.6783897" lon="10.6257909"><ele>67.0</ele><time>2026-04-22T18:00:51.03Z</time></trkpt><trkpt lat="44.6784801" lon="10.6257613"><ele>67.0</ele><time>2026-04-22T18:00:53.031Z</time></trkpt><trkpt lat="44.6785619" lon="10.6257388"><ele>67.0</ele><time>2026-04-22T18:00:55.031Z</time></trkpt><trkpt lat="44.6786375" lon="10.6257097"><ele>67.0</ele><time>2026-04-22T18:00:57.031Z</time></trkpt><trkpt lat="44.6787162" lon="10.6256897"><ele>67.0</ele><time>2026-04-22T18:00:59.03Z</time></trkpt><trkpt lat="44.6787956" lon="10.6256571"><ele>67.0</ele><time>2026-04-22T18:01:01.03Z</time></trkpt><trkpt lat="44.6788753" lon="10.6256198"><ele>67.16666666666666</ele><time>2026-04-22T18:01:03.031Z</time></trkpt><trkpt lat="44.6789571" lon="10.6255757"><ele>67.33333333333333</ele><time>2026-04-22T18:01:05.031Z</time></trkpt><trkpt lat="44.6790361" lon="10.6255396"><ele>67.5</ele><time>2026-04-22T18:01:07.03Z</time></trkpt><trkpt lat="44.6791216" lon="10.6255037"><ele>67.66666666666667</ele><time>2026-04-22T18:01:09.031Z</time></trkpt><trkpt lat="44.679207" lon="10.6254594"><ele>67.83333333333334</ele><time>2026-04-22T18:01:11.03Z</time></trkpt><trkpt lat="44.679298" lon="10.6254091"><ele>68.0</ele><time>2026-04-22T18:01:13.031Z</time></trkpt><trkpt lat="44.679392" lon="10.6253746"><ele>68.0</ele><time>2026-04-22T18:01:15.03Z</time></trkpt><trkpt lat="44.6794787" lon="10.6253518"><ele>68.0</ele><time>2026-04-22T18:01:17.03Z</time></trkpt><trkpt lat="44.6795731" lon="10.6253275"><ele>68.0</ele><time>2026-04-22T18:01:19.031Z</time></trkpt><trkpt lat="44.6796666" lon="10.6253108"><ele>68.0</ele><time>2026-04-22T18:01:21.03Z</time></trkpt><trkpt lat="44.6797585" lon="10.6252966"><ele>68.0</ele><time>2026-04-22T18:01:23.031Z</time></trkpt><trkpt lat="44.6798638" lon="10.625288"><ele>68.0</ele><time>2026-04-22T18:01:25.03Z</time></trkpt><trkpt lat="44.6799623" lon="10.6253007"><ele>68.0</ele><time>2026-04-22T18:01:27.031Z</time></trkpt><trkpt lat="44.6800643" lon="10.6253053"><ele>68.0</ele><time>2026-04-22T18:01:29.03Z</time></trkpt><trkpt lat="44.6801573" lon="10.6253228"><ele>68.0</ele><time>2026-04-22T18:01:31.031Z</time></trkpt><trkpt lat="44.6802624" lon="10.6253414"><ele>68.0</ele><time>2026-04-22T18:01:33.031Z</time></trkpt><trkpt lat="44.6803746" lon="10.6253485"><ele>68.2</ele><time>2026-04-22T18:01:35.031Z</time></trkpt><trkpt lat="44.6804815" lon="10.6253571"><ele>68.4</ele><time>2026-04-22T18:01:37.031Z</time></trkpt><trkpt lat="44.6805626" lon="10.6253794"><ele>68.60000000000001</ele><time>2026-04-22T18:01:39.03Z</time></trkpt><trkpt lat="44.68064" lon="10.6254342"><ele>68.8</ele><time>2026-04-22T18:01:41.03Z</time></trkpt><trkpt lat="44.6807281" lon="10.6254957"><ele>69.0</ele><time>2026-04-22T18:01:43.03Z</time></trkpt><trkpt lat="44.6808372" lon="10.6255483"><ele>69.0</ele><time>2026-04-22T18:01:45.03Z</time></trkpt><trkpt lat="44.6809457" lon="10.6256313"><ele>69.0</ele><time>2026-04-22T18:01:47.03Z</time></trkpt><trkpt lat="44.6810466" lon="10.6257017"><ele>69.0</ele><time>2026-04-22T18:01:49.031Z</time></trkpt><trkpt lat="44.6811382" lon="10.6257641"><ele>69.0</ele><time>2026-04-22T18:01:51.03Z</time></trkpt><trkpt lat="44.6812258" lon="10.6258339"><ele>69.0</ele><time>2026-04-22T18:01:53.03Z</time></trkpt><trkpt lat="44.6813257" lon="10.625891"><ele>68.60000000000001</ele><time>2026-04-22T18:01:55.03Z</time></trkpt><trkpt lat="44.6814285" lon="10.6259586"><ele>68.2</ele><time>2026-04-22T18:01:57.03Z</time></trkpt><trkpt lat="44.6815258" lon="10.6260245"><ele>67.80000000000001</ele><time>2026-04-22T18:01:59.03Z</time></trkpt><trkpt lat="44.6816249" lon="10.6260818"><ele>67.4</ele><time>2026-04-22T18:02:01.03Z</time></trkpt><trkpt lat="44.6817137" lon="10.6261378"><ele>67.0</ele><time>2026-04-22T18:02:03.031Z</time></trkpt><trkpt lat="44.6818239" lon="10.6261901"><ele>66.6</ele><time>2026-04-22T18:02:05.03Z</time></trkpt><trkpt lat="44.6819347" lon="10.6262373"><ele>66.2</ele><time>2026-04-22T18:02:07.031Z</time></trkpt><trkpt lat="44.6820398" lon="10.6262714"><ele>65.8</ele><time>2026-04-22T18:02:09.031Z</time></trkpt><trkpt lat="44.6821363" lon="10.6263225"><ele>65.4</ele><time>2026-04-22T18:02:11.03Z</time></trkpt><trkpt lat="44.6822326" lon="10.6263885"><ele>65.0</ele><time>2026-04-22T18:02:13.03Z</time></trkpt><trkpt lat="44.6823367" lon="10.6264259"><ele>65.0</ele><time>2026-04-22T18:02:15.03Z</time></trkpt><trkpt lat="44.6824369" lon="10.6264731"><ele>65.0</ele><time>2026-04-22T18:02:17.03Z</time></trkpt><trkpt lat="44.6825257" lon="10.6265002"><ele>65.0</ele><time>2026-04-22T18:02:19.03Z</time></trkpt><trkpt lat="44.6826356" lon="10.6265315"><ele>65.0</ele><time>2026-04-22T18:02:21.031Z</time></trkpt><trkpt lat="44.6827578" lon="10.6265638"><ele>65.0</ele><time>2026-04-22T18:02:23.03Z</time></trkpt><trkpt lat="44.6828697" lon="10.6266044"><ele>65.2</ele><time>2026-04-22T18:02:25.031Z</time></trkpt><trkpt lat="44.6829846" lon="10.6266509"><ele>65.4</ele><time>2026-04-22T18:02:27.03Z</time></trkpt><trkpt lat="44.6830686" lon="10.6267471"><ele>65.6</ele><time>2026-04-22T18:02:29.031Z</time></trkpt><trkpt lat="44.6830749" lon="10.626872"><ele>65.8</ele><time>2026-04-22T18:02:31.03Z</time></trkpt><trkpt lat="44.683016" lon="10.6269526"><ele>66.0</ele><time>2026-04-22T18:02:33.03Z</time></trkpt><trkpt lat="44.6829629" lon="10.627019"><ele>66.16666666666667</ele><time>2026-04-22T18:02:35.03Z</time></trkpt><trkpt lat="44.6829774" lon="10.62714"><ele>66.33333333333333</ele><time>2026-04-22T18:02:38.03Z</time></trkpt><trkpt lat="44.6830161" lon="10.6272558"><ele>66.5</ele><time>2026-04-22T18:02:41.03Z</time></trkpt><trkpt lat="44.6830715" lon="10.6273415"><ele>66.66666666666666</ele><time>2026-04-22T18:02:43.03Z</time></trkpt><trkpt lat="44.6831503" lon="10.6274065"><ele>66.83333333333333</ele><time>2026-04-22T18:02:45.031Z</time></trkpt><trkpt lat="44.6832288" lon="10.6274831"><ele>67.0</ele><time>2026-04-22T18:02:47.03Z</time></trkpt><trkpt lat="44.6833101" lon="10.6275541"><ele>67.0</ele><time>2026-04-22T18:02:49.031Z</time></trkpt><trkpt lat="44.6833845" lon="10.6276309"><ele>67.0</ele><time>2026-04-22T18:02:51.031Z</time></trkpt><trkpt lat="44.6834698" lon="10.6276524"><ele>67.0</ele><time>2026-04-22T18:02:53.031Z</time></trkpt><trkpt lat="44.6835648" lon="10.6276737"><ele>67.0</ele><time>2026-04-22T18:02:55.031Z</time></trkpt><trkpt lat="44.6836537" lon="10.6277015"><ele>67.0</ele><time>2026-04-22T18:02:57.031Z</time></trkpt><trkpt lat="44.6837331" lon="10.6277674"><ele>66.83333333333333</ele><time>2026-04-22T18:02:59.03Z</time></trkpt><trkpt lat="44.6838016" lon="10.6278451"><ele>66.66666666666666</ele><time>2026-04-22T18:03:01.031Z</time></trkpt><trkpt lat="44.6838744" lon="10.6278842"><ele>66.5</ele><time>2026-04-22T18:03:03.031Z</time></trkpt><trkpt lat="44.6839384" lon="10.6279478"><ele>66.33333333333333</ele><time>2026-04-22T18:03:05.031Z</time></trkpt><trkpt lat="44.6840106" lon="10.6280396"><ele>66.16666666666667</ele><time>2026-04-22T18:03:07.031Z</time></trkpt><trkpt lat="44.6840911" lon="10.6281238"><ele>66.0</ele><time>2026-04-22T18:03:09.031Z</time></trkpt><trkpt lat="44.6841706" lon="10.6282055"><ele>66.0</ele><time>2026-04-22T18:03:11.03Z</time></trkpt><trkpt lat="44.6842453" lon="10.628294"><ele>66.0</ele><time>2026-04-22T18:03:13.031Z</time></trkpt><trkpt lat="44.6843154" lon="10.628374"><ele>66.0</ele><time>2026-04-22T18:03:15.031Z</time></trkpt><trkpt lat="44.6843881" lon="10.6284583"><ele>66.0</ele><time>2026-04-22T18:03:17.031Z</time></trkpt><trkpt lat="44.6844618" lon="10.6285404"><ele>66.0</ele><time>2026-04-22T18:03:19.03Z</time></trkpt><trkpt lat="44.6845392" lon="10.6286173"><ele>65.6</ele><time>2026-04-22T18:03:21.031Z</time></trkpt><trkpt lat="44.6846195" lon="10.628696"><ele>65.19999999999999</ele><time>2026-04-22T18:03:23.03Z</time></trkpt><trkpt lat="44.6846974" lon="10.6287876"><ele>64.80000000000001</ele><time>2026-04-22T18:03:25.031Z</time></trkpt><trkpt lat="44.6847744" lon="10.6288686"><ele>64.4</ele><time>2026-04-22T18:03:27.03Z</time></trkpt><trkpt lat="44.6848341" lon="10.6289692"><ele>64.0</ele><time>2026-04-22T18:03:29.031Z</time></trkpt><trkpt lat="44.6848983" lon="10.6290647"><ele>63.99999999999999</ele><time>2026-04-22T18:03:31.031Z</time></trkpt><trkpt lat="44.6849817" lon="10.6291249"><ele>64.0</ele><time>2026-04-22T18:03:33.03Z</time></trkpt><trkpt lat="44.6850532" lon="10.629191"><ele>64.0</ele><time>2026-04-22T18:03:35.03Z</time></trkpt><trkpt lat="44.6851012" lon="10.6292719"><ele>64.0</ele><time>2026-04-22T18:03:37.03Z</time></trkpt><trkpt lat="44.6851627" lon="10.6293513"><ele>63.99999999999999</ele><time>2026-04-22T18:03:39.03Z</time></trkpt><trkpt lat="44.6852247" lon="10.6294381"><ele>64.0</ele><time>2026-04-22T18:03:41.031Z</time></trkpt><trkpt lat="44.6852993" lon="10.6295154"><ele>63.83333333333333</ele><time>2026-04-22T18:03:43.031Z</time></trkpt><trkpt lat="44.6853798" lon="10.6295947"><ele>63.666666666666664</ele><time>2026-04-22T18:03:45.03Z</time></trkpt><trkpt lat="44.6854475" lon="10.6296587"><ele>63.5</ele><time>2026-04-22T18:03:47.031Z</time></trkpt><trkpt lat="44.6855165" lon="10.6297305"><ele>63.33333333333333</ele><time>2026-04-22T18:03:49.03Z</time></trkpt><trkpt lat="44.6855845" lon="10.6298106"><ele>63.166666666666664</ele><time>2026-04-22T18:03:51.03Z</time></trkpt><trkpt lat="44.6856532" lon="10.6298849"><ele>63.0</ele><time>2026-04-22T18:03:53.03Z</time></trkpt><trkpt lat="44.6857164" lon="10.6299549"><ele>63.0</ele><time>2026-04-22T18:03:55.031Z</time></trkpt><trkpt lat="44.6857878" lon="10.6300316"><ele>63.0</ele><time>2026-04-22T18:03:57.031Z</time></trkpt><trkpt lat="44.6858497" lon="10.6301053"><ele>63.0</ele><time>2026-04-22T18:03:59.03Z</time></trkpt><trkpt lat="44.685921" lon="10.6301814"><ele>63.0</ele><time>2026-04-22T18:04:01.031Z</time></trkpt><trkpt lat="44.6859905" lon="10.6302541"><ele>63.0</ele><time>2026-04-22T18:04:03.03Z</time></trkpt><trkpt lat="44.6860622" lon="10.6303305"><ele>63.0</ele><time>2026-04-22T18:04:05.031Z</time></trkpt><trkpt lat="44.6861318" lon="10.630415"><ele>63.2</ele><time>2026-04-22T18:04:07.031Z</time></trkpt><trkpt lat="44.6862064" lon="10.6305064"><ele>63.4</ele><time>2026-04-22T18:04:09.03Z</time></trkpt><trkpt lat="44.6862917" lon="10.6305913"><ele>63.60000000000001</ele><time>2026-04-22T18:04:11.03Z</time></trkpt><trkpt lat="44.6863747" lon="10.6306785"><ele>63.800000000000004</ele><time>2026-04-22T18:04:13.03Z</time></trkpt><trkpt lat="44.6864469" lon="10.6307543"><ele>64.0</ele><time>2026-04-22T18:04:15.031Z</time></trkpt><trkpt lat="44.6865152" lon="10.6308325"><ele>63.99999999999999</ele><time>2026-04-22T18:04:17.03Z</time></trkpt><trkpt lat="44.6865845" lon="10.6309055"><ele>64.0</ele><time>2026-04-22T18:04:19.031Z</time></trkpt><trkpt lat="44.6866473" lon="10.6309769"><ele>64.0</ele><time>2026-04-22T18:04:21.03Z</time></trkpt><trkpt lat="44.6867056" lon="10.6310618"><ele>64.0</ele><time>2026-04-22T18:04:23.031Z</time></trkpt><trkpt lat="44.6867684" lon="10.631148"><ele>63.99999999999999</ele><time>2026-04-22T18:04:25.031Z</time></trkpt><trkpt lat="44.6868382" lon="10.631227"><ele>64.0</ele><time>2026-04-22T18:04:27.031Z</time></trkpt><trkpt lat="44.6869167" lon="10.6313184"><ele>63.83333333333333</ele><time>2026-04-22T18:04:29.031Z</time></trkpt><trkpt lat="44.6869864" lon="10.6314023"><ele>63.666666666666664</ele><time>2026-04-22T18:04:31.031Z</time></trkpt><trkpt lat="44.6870482" lon="10.6314776"><ele>63.5</ele><time>2026-04-22T18:04:33.031Z</time></trkpt><trkpt lat="44.6871113" lon="10.6315312"><ele>63.33333333333333</ele><time>2026-04-22T18:04:35.031Z</time></trkpt><trkpt lat="44.6871853" lon="10.6315973"><ele>63.166666666666664</ele><time>2026-04-22T18:04:37.031Z</time></trkpt><trkpt lat="44.6872607" lon="10.6316996"><ele>63.0</ele><time>2026-04-22T18:04:39.031Z</time></trkpt><trkpt lat="44.6873118" lon="10.6317858"><ele>63.0</ele><time>2026-04-22T18:04:41.032Z</time></trkpt><trkpt lat="44.6873758" lon="10.6318745"><ele>63.0</ele><time>2026-04-22T18:04:43.031Z</time></trkpt><trkpt lat="44.6874504" lon="10.6319493"><ele>63.0</ele><time>2026-04-22T18:04:45.032Z</time></trkpt><trkpt lat="44.6875287" lon="10.6320297"><ele>63.0</ele><time>2026-04-22T18:04:47.032Z</time></trkpt><trkpt lat="44.6875896" lon="10.6321123"><ele>63.0</ele><time>2026-04-22T18:04:49.031Z</time></trkpt><trkpt lat="44.6876451" lon="10.6322125"><ele>63.14285714285714</ele><time>2026-04-22T18:04:51.032Z</time></trkpt><trkpt lat="44.6876896" lon="10.6322779"><ele>63.285714285714285</ele><time>2026-04-22T18:04:53.031Z</time></trkpt><trkpt lat="44.6877589" lon="10.6322851"><ele>63.42857142857143</ele><time>2026-04-22T18:04:57.031Z</time></trkpt><trkpt lat="44.6878168" lon="10.6323386"><ele>63.57142857142857</ele><time>2026-04-22T18:04:59.032Z</time></trkpt><trkpt lat="44.6878712" lon="10.6323936"><ele>63.71428571428571</ele><time>2026-04-22T18:05:01.031Z</time></trkpt><trkpt lat="44.6879381" lon="10.6324441"><ele>63.857142857142854</ele><time>2026-04-22T18:05:03.031Z</time></trkpt><trkpt lat="44.6879923" lon="10.6325067"><ele>64.0</ele><time>2026-04-22T18:05:05.032Z</time></trkpt><trkpt lat="44.68803" lon="10.6326111"><ele>64.16666666666666</ele><time>2026-04-22T18:05:07.031Z</time></trkpt><trkpt lat="44.6879816" lon="10.6327016"><ele>64.33333333333333</ele><time>2026-04-22T18:05:09.031Z</time></trkpt><trkpt lat="44.6878975" lon="10.6327691"><ele>64.5</ele><time>2026-04-22T18:05:11.031Z</time></trkpt><trkpt lat="44.6878138" lon="10.6328065"><ele>64.66666666666667</ele><time>2026-04-22T18:05:13.031Z</time></trkpt><trkpt lat="44.6877366" lon="10.6328342"><ele>64.83333333333334</ele><time>2026-04-22T18:05:15.032Z</time></trkpt><trkpt lat="44.6876523" lon="10.6328847"><ele>65.0</ele><time>2026-04-22T18:05:19.031Z</time></trkpt><trkpt lat="44.6875617" lon="10.6329218"><ele>65.0</ele><time>2026-04-22T18:05:22.031Z</time></trkpt><trkpt lat="44.6874937" lon="10.6329389"><ele>65.0</ele><time>2026-04-22T18:05:24.032Z</time></trkpt><trkpt lat="44.6874195" lon="10.632984"><ele>65.0</ele><time>2026-04-22T18:05:27.032Z</time></trkpt><trkpt lat="44.6874557" lon="10.633069"><ele>65.0</ele><time>2026-04-22T18:05:30.032Z</time></trkpt><trkpt lat="44.6875369" lon="10.6331034"><ele>65.0</ele><time>2026-04-22T18:05:32.031Z</time></trkpt><trkpt lat="44.6876253" lon="10.6331588"><ele>65.0</ele><time>2026-04-22T18:05:34.031Z</time></trkpt><trkpt lat="44.6876954" lon="10.633214"><ele>65.0</ele><time>2026-04-22T18:05:36.031Z</time></trkpt><trkpt lat="44.6877573" lon="10.6332765"><ele>65.0</ele><time>2026-04-22T18:05:38.032Z</time></trkpt><trkpt lat="44.6878183" lon="10.6333388"><ele>65.0</ele><time>2026-04-22T18:05:40.032Z</time></trkpt><trkpt lat="44.6878785" lon="10.633404"><ele>65.0</ele><time>2026-04-22T18:05:42.031Z</time></trkpt><trkpt lat="44.6879396" lon="10.6334558"><ele>65.0</ele><time>2026-04-22T18:05:44.031Z</time></trkpt><trkpt lat="44.6880019" lon="10.6335041"><ele>65.0</ele><time>2026-04-22T18:05:46.031Z</time></trkpt><trkpt lat="44.6880756" lon="10.6335636"><ele>65.16666666666667</ele><time>2026-04-22T18:05:48.032Z</time></trkpt><trkpt lat="44.6881381" lon="10.6336196"><ele>65.33333333333334</ele><time>2026-04-22T18:05:50.031Z</time></trkpt><trkpt lat="44.6881969" lon="10.6336851"><ele>65.5</ele><time>2026-04-22T18:05:52.032Z</time></trkpt><trkpt lat="44.6882469" lon="10.6337407"><ele>65.66666666666667</ele><time>2026-04-22T18:05:54.031Z</time></trkpt><trkpt lat="44.6883165" lon="10.6338044"><ele>65.83333333333333</ele><time>2026-04-22T18:05:56.031Z</time></trkpt><trkpt lat="44.6883849" lon="10.6338693"><ele>66.0</ele><time>2026-04-22T18:05:58.031Z</time></trkpt><trkpt lat="44.6884461" lon="10.6339455"><ele>65.66666666666667</ele><time>2026-04-22T18:06:00.031Z</time></trkpt><trkpt lat="44.688507" lon="10.634029"><ele>65.33333333333333</ele><time>2026-04-22T18:06:02.031Z</time></trkpt><trkpt lat="44.6885644" lon="10.6341063"><ele>65.0</ele><time>2026-04-22T18:06:04.032Z</time></trkpt><trkpt lat="44.6886131" lon="10.6341807"><ele>64.66666666666666</ele><time>2026-04-22T18:06:06.031Z</time></trkpt><trkpt lat="44.6885813" lon="10.6342786"><ele>64.33333333333333</ele><time>2026-04-22T18:06:09.031Z</time></trkpt><trkpt lat="44.688521" lon="10.6343768"><ele>64.0</ele><time>2026-04-22T18:06:11.031Z</time></trkpt><trkpt lat="44.6884521" lon="10.6344629"><ele>63.99999999999999</ele><time>2026-04-22T18:06:13.032Z</time></trkpt><trkpt lat="44.6883678" lon="10.6344977"><ele>64.0</ele><time>2026-04-22T18:06:15.031Z</time></trkpt><trkpt lat="44.6883471" lon="10.6346037"><ele>64.0</ele><time>2026-04-22T18:06:20.032Z</time></trkpt><trkpt lat="44.6882978" lon="10.6346836"><ele>64.0</ele><time>2026-04-22T18:06:23.032Z</time></trkpt><trkpt lat="44.6882338" lon="10.6347284"><ele>63.99999999999999</ele><time>2026-04-22T18:06:25.032Z</time></trkpt><trkpt lat="44.6881658" lon="10.6347631"><ele>64.0</ele><time>2026-04-22T18:06:27.032Z</time></trkpt><trkpt lat="44.6880984" lon="10.6348135"><ele>63.99999999999999</ele><time>2026-04-22T18:06:29.031Z</time></trkpt><trkpt lat="44.6881127" lon="10.6349205"><ele>64.0</ele><time>2026-04-22T18:06:33.032Z</time></trkpt><trkpt lat="44.6881804" lon="10.6349827"><ele>64.0</ele><time>2026-04-22T18:06:35.032Z</time></trkpt><trkpt lat="44.6882574" lon="10.6350363"><ele>64.0</ele><time>2026-04-22T18:06:37.031Z</time></trkpt><trkpt lat="44.6883377" lon="10.6350756"><ele>63.99999999999999</ele><time>2026-04-22T18:06:39.032Z</time></trkpt><trkpt lat="44.6884002" lon="10.6351232"><ele>64.0</ele><time>2026-04-22T18:06:41.032Z</time></trkpt><trkpt lat="44.6884649" lon="10.6351666"><ele>63.99999999999999</ele><time>2026-04-22T18:06:43.031Z</time></trkpt><trkpt lat="44.6885305" lon="10.6351998"><ele>64.0</ele><time>2026-04-22T18:06:45.031Z</time></trkpt><trkpt lat="44.6885184" lon="10.63532"><ele>64.0</ele><time>2026-04-22T18:06:48.031Z</time></trkpt><trkpt lat="44.6884904" lon="10.6354241"><ele>64.0</ele><time>2026-04-22T18:06:50.032Z</time></trkpt><trkpt lat="44.6884623" lon="10.6355117"><ele>63.99999999999999</ele><time>2026-04-22T18:06:52.032Z</time></trkpt><trkpt lat="44.6884325" lon="10.6356127"><ele>64.0</ele><time>2026-04-22T18:06:54.031Z</time></trkpt><trkpt lat="44.6884013" lon="10.6357241"><ele>66.0</ele><time>2026-04-22T18:06:57.031Z</time></trkpt><trkpt lat="44.6883574" lon="10.6358295"><ele>66.0</ele><time>2026-04-22T18:07:00.032Z</time></trkpt></trkseg></trk></gpx>